GFSSE_con_mucape_000.txt.gz
CAPE
23 297 1961 1492 1124 675 290 28 0 0 0 0 6 48 66 59 42 34 16 0 4 0 0 0 4 14 65 92 72 43 28 4 0 0 0 0 0 1 17 14 0 3 4
43 426 2044 1894 1212 724 215 50 11 0 6 1 14 40 37 7 24 31 50 23 0 0 0 0 0 0 2 14 20 16 21 26 0 0 0 0 0 0 7 9 34 0 10
79 385 1634 2032 1407 820 300 72 25 0 16 0 4 21 17 14 40 50 47 30 15 0 0 0 0 0 0 0 0 0 2 4 3 1 2 0 0 0 0 17 24 14 9
392 1027 1802 2037 1391 895 467 138 43 1 0 0 0 11 34 23 50 45 50 8 0 0 0 0 0 0 0 0 0 0 0 0 4 8 0 0 0 0 0 17 32 21 10
1169 1554 1568 2251 1664 1314 670 223 101 29 0 0 6 13 24 35 59 43 0 2 0 0 0 0 0 0 0 0 2 4 2 0 0 0 0 0 0 0 0 11 37 28 22
1306 1562 1654 2005 1794 1838 1151 422 179 65 2 0 0 11 27 39 48 55 41 78 54 0 0 0 0 0 0 0 3 12 42 18 8 0 0 0 0 0 0 1 13 9 29
1364 1504 1746 2145 1930 1808 1141 650 229 91 17 0 0 0 22 49 60 141 103 64 21 4 0 0 0 5 5 14 7 7 31 113 18 0 0 0 0 0 0 0 2 12 13
1227 1472 1817 2030 2176 1918 1429 938 490 124 54 0 0 0 16 37 66 194 193 136 68 8 42 13 30 37 27 14 33 49 72 98 8 0 0 0 0 3 28 25 5 8 7
1032 1495 1875 1960 1991 1801 1410 1039 759 346 185 23 52 36 34 42 10 60 220 181 137 137 71 85 82 51 67 100 115 138 238 148 29 0 0 0 0 35 133 136 172 102 43
1041 1459 1728 1781 1705 1499 1047 986 794 589 438 275 164 56 70 43 33 29 194 205 153 100 138 135 150 189 211 221 220 197 166 49 0 0 0 0 2 183 340 360 419 393 355
1224 1365 1653 1574 1437 1274 915 843 842 662 384 288 89 58 15 0 0 0 2 19 50 144 148 167 271 261 64 11 17 2 0 0 0 0 0 0 10 163 168 176 300 420 373
1376 1736 2030 1902 1636 1178 1014 818 637 564 354 205 89 20 0 0 0 0 0 2 54 68 47 71 40 15 2 0 0 0 0 0 0 0 0 0 0 0 0 0 19 179 90
1044 1586 2210 2059 1592 1071 933 805 489 428 316 205 103 9 2 0 0 0 0 7 18 45 69 25 0 0 0 0 0 0 0 0 0 0 0 0 0 0 0 0 0 0 158
644 1143 1481 1782 1491 1048 784 607 497 291 259 164 59 6 16 4 5 14 28 6 20 90 15 0 0 0 0 0 0 0 0 0 0 0 0 0 0 0 0 0 18 20 0
191 394 1058 1369 1223 969 811 526 447 342 177 143 60 25 34 15 22 69 18 81 1 1 0 0 0 0 0 0 0 0 0 0 0 0 0 0 0 0 0 0 0 0 0
0 6 299 882 1114 830 651 569 457 423 207 178 129 125 35 124 74 99 66 3 2 0 0 0 0 0 0 0 0 0 0 0 0 0 0 0 0 0 0 0 0 0 0
0 0 116 467 942 937 829 896 670 481 350 242 180 148 141 135 104 1 2 2 0 0 0 0 0 0 0 0 0 0 0 0 0 0 0 0 0 0 0 0 0 0 0
0 0 27 337 839 1031 957 1094 796 572 485 372 183 211 238 38 21 41 0 0 0 0 0 0 0 0 0 0 0 0 0 0 0 0 0 0 0 0 0 0 0 0 0
0 0 125 433 848 1092 1093 1044 641 594 501 463 304 113 51 0 0 0 0 0 0 0 0 0 0 0 0 0 0 0 0 0 0 0 0 0 0 0 0 0 0 0 0
0 7 348 563 960 1154 1249 848 765 669 519 445 182 128 136 1 0 0 0 0 0 0 0 0 0 0 0 0 0 0 0 0 0 0 0 0 0 0 0 0 0 0 0
5 76 554 784 1124 1260 1101 743 736 595 412 366 309 130 69 0 0 0 0 0 0 0 0 0 0 0 0 0 0 0 0 0 0 0 0 0 0 0 0 0 0 0 0
19 124 622 945 1169 1112 950 731 631 527 375 162 117 38 1 0 0 0 0 0 0 0 0 0 0 0 0 0 0 0 0 0 0 0 0 0 0 0 0 0 0 0 0
0 35 580 943 1155 951 938 764 359 189 75 85 28 0 0 0 0 0 0 0 0 0 0 0 0 0 0 0 0 0 0 0 0 0 0 0 0 0 0 0 0 0 0
0 0 85 577 971 909 735 657 396 17 9 33 3 0 0 0 0 0 0 0 0 0 0 0 0 0 0 0 0 0 0 0 0 0 0 0 0 0 0 0 0 0 0
0 0 0 24 395 544 552 806 419 7 3 16 0 0 0 0 0 0 0 0 0 0 0 0 0 0 0 0 0 0 0 0 0 0 0 0 0 0 0 0 0 0 0
0 0 0 1 224 514 623 434 210 5 16 5 0 0 0 0 0 0 0 0 0 0 0 0 0 0 0 0 0 0 0 0 0 0 0 0 0 0 0 0 0 0 0

GFSSE_con_mucape_003.txt.gz
CAPE
71 305 1777 1578 1143 814 332 75 25 2 0 0 2 59 74 101 81 51 34 27 9 0 0 0 0 6 57 72 73 82 33 15 2 0 0 0 0 0 1 24 16 7 12
114 427 2418 1877 1252 984 312 77 34 24 0 0 48 44 27 44 59 67 65 34 1 0 0 0 0 0 2 13 24 31 25 26 0 0 0 0 0 0 0 17 68 7 8
228 799 1827 2175 1689 1019 434 170 74 62 0 0 45 27 6 11 35 82 63 21 0 0 0 0 0 0 0 0 0 0 0 0 0 0 0 0 0 0 3 0 42 11 0
482 1030 1617 2293 1801 1233 701 324 89 46 42 0 0 14 20 13 58 68 47 22 0 0 0 0 0 0 1 0 0 0 0 0 0 0 0 0 0 0 0 36 8 20 7
668 1245 1843 2183 1911 1548 850 518 148 66 4 0 6 18 24 34 61 38 3 0 0 0 0 0 0 0 3 7 16 17 22 5 0 0 0 0 0 0 0 0 10 61 16
1241 1740 2071 2242 2059 1861 1309 681 418 120 22 0 0 23 30 40 49 56 48 106 25 0 0 0 0 1 3 6 4 5 11 29 8 0 0 0 0 0 0 0 0 0 11
1483 1984 1874 2394 2135 2131 1485 1022 638 218 89 0 0 13 25 58 96 86 93 51 28 0 0 0 17 27 22 20 15 10 1 21 0 0 0 0 0 6 45 29 5 7 16
1623 1994 1832 2003 2363 2142 1734 1329 808 269 144 41 0 4 19 76 79 149 190 127 97 19 102 27 63 86 57 59 67 61 56 53 1 0 0 0 0 14 93 116 104 77 44
1722 1939 1777 1522 1888 1836 1650 1277 1061 545 257 100 36 49 84 106 39 109 261 209 199 211 138 134 160 147 161 166 157 149 103 54 18 3 0 0 0 51 138 231 218 340 313
1590 1882 1815 1796 1828 1782 1609 1164 985 735 562 400 228 151 114 64 45 17 45 165 193 170 217 206 230 222 143 66 59 9 0 0 0 0 0 0 0 118 199 282 367 430 477
1369 1562 1564 1676 1782 1713 1502 923 850 714 515 353 137 68 10 0 0 1 0 31 106 222 224 182 78 6 0 0 0 0 0 0 0 0 0 0 0 60 89 76 44 154 380
1094 1124 1942 1625 1417 1546 1290 1026 855 682 505 245 128 80 1 0 0 0 0 3 50 18 11 13 2 0 0 0 0 0 0 0 0 0 0 0 0 0 0 0 0 9 68
1195 1149 1664 2060 1911 1329 1288 1041 823 774 472 294 137 53 2 0 0 0 0 14 29 38 8 1 0 0 0 0 0 0 0 0 0 0 0 0 0 0 0 0 20 96 2
904 1201 1151 1927 2063 1599 1068 1008 695 651 503 339 185 47 36 0 0 12 39 10 20 9 9 0 0 0 0 0 0 0 0 0 0 0 0 0 0 0 12 5 0 0 0
306 1060 1287 1244 1764 1805 1122 936 653 458 443 329 180 71 54 11 28 91 14 9 0 0 0 0 0 0 0 0 0 0 0 0 0 0 0 0 0 0 0 0 0 0 3
90 217 932 1315 1396 1661 1101 861 659 438 321 208 157 113 98 32 60 106 110 15 2 0 0 0 0 0 0 0 0 0 0 0 0 0 0 0 0 0 0 0 0 0 0
0 0 130 862 1177 1413 1032 883 566 456 374 217 195 232 121 67 168 54 1 0 0 0 0 0 0 0 0 0 0 0 0 0 0 0 0 0 0 0 0 0 0 0 0
0 0 0 319 876 1158 1193 909 767 680 488 464 320 249 136 144 49 41 5 0 0 0 0 0 0 0 0 0 0 0 0 0 0 0 0 0 0 0 0 0 0 0 0
0 0 0 386 686 885 1249 972 893 910 668 482 286 279 159 110 5 0 0 0 0 0 0 0 0 0 0 0 0 0 0 0 0 0 0 0 0 0 0 0 0 0 0
0 0 37 437 471 866 1227 1106 1080 826 644 413 299 438 140 53 0 0 0 0 0 0 0 0 0 0 0 0 0 0 0 0 0 0 0 0 0 0 0 0 0 0 0
0 0 261 383 459 956 1207 1152 890 504 567 412 408 346 195 43 0 0 0 0 0 0 0 0 0 0 0 0 0 0 0 0 0 0 0 0 0 0 0 0 0 0 0
0 55 368 534 479 936 1159 1106 569 459 424 393 370 319 127 37 0 0 0 0 0 0 0 0 0 0 0 0 0 0 0 0 0 0 0 0 0 0 0 0 0 0 0
0 97 866 517 603 979 983 909 630 520 426 259 167 182 56 0 0 0 0 0 0 0 0 0 0 0 0 0 0 0 0 0 0 0 0 0 0 0 0 0 0 0 0
0 40 737 578 787 904 823 806 557 323 177 106 60 52 0 0 0 0 0 0 0 0 0 0 0 0 0 0 0 0 0 0 0 0 0 0 0 0 0 0 0 0 0
0 0 354 670 809 660 832 939 630 364 339 2 40 9 0 0 0 0 0 0 0 0 0 0 0 0 0 0 0 0 0 0 0 0 0 0 0 0 0 0 0 0 0
0 0 105 469 628 835 1153 839 748 323 101 10 10 0 0 0 0 0 0 0 0 0 0 0 0 0 0 0 0 0 0 0 0 0 0 0 0 0 0 0 0 0 0

GFSSE_con_mucape_006.txt.gz
CAPE
136 1174 2070 1390 983 650 293 70 45 2 0 0 4 50 109 91 67 50 40 33 1 0 0 0 0 16 55 60 65 41 24 19 0 0 0 0 0 0 0 5 95 23 3
326 1135 2168 1712 1035 728 282 86 54 17 0 0 63 41 35 65 71 66 55 18 2 0 0 0 1 0 6 11 15 21 25 18 0 0 0 0 0 0 0 18 14 94 0
526 1199 1395 1931 1586 909 350 135 93 34 0 37 19 5 0 6 38 59 36 0 0 0 0 0 0 0 0 0 0 0 0 0 0 0 0 0 0 0 0 1 10 2 0
678 1409 1469 2243 1684 923 504 260 122 81 0 0 8 4 0 17 36 54 10 0 0 0 0 0 0 5 6 5 5 1 0 0 0 0 0 0 0 0 0 0 9 46 2
898 1570 1738 2262 1760 1181 639 417 119 78 10 0 0 6 22 12 37 48 0 0 0 0 0 0 0 1 3 4 10 22 30 13 0 0 0 0 0 0 0 0 16 52 92
910 1572 2217 2051 1935 1476 1148 563 254 72 4 0 5 11 22 33 40 18 0 0 2 0 0 0 0 9 12 11 10 3 8 15 0 2 0 0 0 0 1 1 0 0 34
1008 1620 2183 2211 2180 1790 1373 946 563 124 33 0 3 7 14 43 95 81 35 14 3 0 0 0 25 65 48 18 33 43 27 1 0 3 1 0 2 0 27 32 57 37 33
1311 1609 2060 2049 2230 1912 1627 1378 789 275 92 11 7 3 17 59 91 80 104 40 29 2 83 22 95 111 119 140 136 111 54 22 12 26 15 9 0 4 92 137 216 229 180
1435 1617 1727 1750 1385 1754 1670 1336 973 423 264 50 2 25 140 71 34 124 143 159 129 168 98 137 165 180 180 161 108 32 3 1 0 5 0 1 0 39 147 182 295 404 511
1383 1456 1436 1438 1058 1449 1328 1042 990 781 580 338 204 192 103 44 8 0 57 83 108 121 175 187 147 26 4 0 0 0 0 0 0 0 0 0 0 72 152 164 196 200 268
1359 1472 1396 1397 1371 1556 1565 798 795 667 539 386 145 49 2 0 0 0 0 15 98 142 58 16 10 0 0 0 0 0 0 0 0 0 0 0 0 0 0 0 0 1 17
1415 1479 1458 1642 1562 1505 1460 941 669 288 438 244 125 70 0 0 0 0 0 2 7 4 8 2 0 0 0 0 0 0 0 0 0 0 0 0 0 0 0 0 0 27 60
1305 1542 1527 1809 1812 1526 1517 1250 815 426 390 372 209 74 0 0 0 0 27 63 151 18 0 0 0 0 0 0 0 0 0 0 0 0 0 0 0 0 3 21 1 0 0
1281 1511 1538 1546 1593 1439 1589 1230 861 627 498 419 293 109 22 1 41 60 151 21 0 0 0 0 0 0 0 0 0 0 0 0 0 0 0 0 0 0 0 0 0 0 0
846 1302 1570 1637 1664 1469 1704 1346 975 682 593 511 347 99 102 163 228 1 0 0 0 0 0 0 0 0 0 0 0 0 0 0 0 0 0 0 0 0 0 0 0 0 0
473 848 1337 1628 1623 1495 1833 1512 1172 782 619 652 361 191 288 265 82 47 1 1 1 0 0 0 0 0 0 0 0 0 0 0 0 0 0 0 0 0 0 0 0 0 0
44 242 680 1373 1620 1583 1959 1565 1277 889 738 625 405 390 394 24 22 42 6 3 0 0 0 0 0 0 0 0 0 0 0 0 0 0 0 0 0 0 0 0 0 0 0
0 0 0 333 1342 1494 1872 1621 1339 941 821 639 522 405 143 36 69 32 1 1 0 0 0 0 0 0 0 0 0 0 0 0 0 0 0 0 0 0 0 0 0 0 0
0 0 0 5 466 1243 1600 1469 1256 981 732 366 348 209 97 143 153 3 0 0 0 0 0 0 0 0 0 0 0 0 0 0 0 0 0 0 0 0 0 0 0 0 0
0 0 0 45 425 925 1423 1389 831 721 748 539 317 122 126 162 135 0 0 0 0 0 0 0 0 0 0 0 0 0 0 0 0 0 0 0 0 0 0 0 0 0 0
0 0 0 199 759 833 1145 816 745 964 860 718 368 201 209 260 24 0 0 0 0 0 0 0 0 0 0 0 0 0 0 0 0 0 0 0 0 0 0 0 0 0 0
0 32 156 527 685 692 210 794 783 874 666 652 454 355 201 182 37 0 0 0 0 0 0 0 0 0 0 0 0 0 0 0 0 0 0 0 0 0 0 0 0 0 0
0 43 372 677 624 446 322 792 628 691 533 559 495 339 274 161 34 0 0 0 0 0 0 0 0 0 0 0 0 0 0 0 0 0 0 0 0 0 0 0 0 0 0
0 23 488 626 440 192 426 740 701 641 502 435 465 226 234 192 3 0 0 0 0 0 0 0 0 0 0 0 0 0 0 0 0 0 0 0 0 0 0 0 0 0 0
0 55 593 270 257 126 509 636 785 606 535 380 270 214 116 48 0 0 0 0 0 0 0 0 0 0 0 0 0 0 0 0 0 0 0 0 0 0 0 0 0 0 0
0 81 208 187 154 304 584 641 828 634 439 264 289 46 39 5 0 0 0 0 0 0 0 0 0 0 0 0 0 0 0 0 0 0 0 0 0 0 0 0 0 0 0

GFSSE_con_mucape_009.txt.gz
CAPE
383 1190 1922 1454 817 494 193 35 5 0 0 0 10 42 94 80 41 38 36 4 0 0 0 0 3 21 48 62 69 58 48 32 0 0 0 0 0 0 0 4 66 26 33
633 1441 1976 1554 841 567 180 51 0 0 0 3 34 43 62 57 64 54 27 20 0 0 0 1 0 0 5 3 0 10 23 20 0 0 0 0 0 0 5 7 14 47 4
1011 1115 1098 1727 1394 838 267 102 28 0 11 22 0 0 0 2 29 27 6 0 0 0 0 2 1 0 0 0 0 0 0 0 0 0 0 0 0 0 0 0 3 6 0
1001 1122 1056 1875 1502 963 395 227 85 0 19 8 2 0 0 7 35 29 0 0 0 0 0 0 0 1 2 1 0 4 4 0 0 0 0 0 0 0 0 0 2 8 13
980 1294 1268 2100 1589 1108 633 284 177 39 0 0 0 0 0 17 35 0 0 0 0 0 0 0 0 0 0 0 0 1 18 18 0 1 1 0 0 0 0 0 0 5 44
1016 1429 1640 1987 1700 1320 1067 387 153 59 5 0 0 5 13 12 21 5 0 0 0 0 0 0 7 14 13 1 8 8 0 0 0 3 0 2 0 0 0 7 3 0 0
1002 1942 1736 2087 1806 1465 1277 918 406 84 30 18 0 0 24 64 68 54 15 13 0 0 0 0 22 81 38 47 79 53 13 0 0 9 5 5 11 0 18 32 35 69 65
1065 1746 1827 1936 1823 1614 1428 1230 730 135 62 17 29 4 91 45 107 70 75 22 8 50 1 29 102 121 134 141 116 73 26 11 0 5 4 2 1 8 58 58 161 195 194
1065 1417 2050 1784 1502 1567 1483 1328 897 445 170 34 31 26 150 39 82 115 97 100 92 62 67 138 144 115 67 31 3 0 0 0 0 0 0 0 0 7 68 89 157 211 221
1111 1264 1727 1903 1617 1243 1157 1077 823 760 522 217 218 282 117 54 2 183 280 119 69 93 127 45 0 0 0 0 0 0 0 0 0 0 0 0 0 0 7 20 18 15 27
1164 1272 1273 1338 1119 1569 1389 781 742 776 486 435 205 74 0 3 0 5 7 46 104 42 13 0 0 0 0 0 0 0 0 0 0 0 0 0 0 0 0 0 0 2 48
1166 1234 1240 1247 1149 1531 1459 906 637 322 394 107 69 28 0 0 0 13 0 31 9 0 0 0 0 0 0 0 0 0 0 0 0 0 0 0 0 0 0 22 13 0 23
1111 1318 1356 1472 1334 1240 1470 1196 858 450 503 333 137 55 0 0 0 0 8 2 13 0 0 0 0 0 0 0 0 0 0 0 0 0 0 0 0 17 23 9 0 9 4
978 1288 1575 1564 1654 1531 1412 1442 804 612 528 421 208 54 0 0 10 0 74 119 0 0 0 0 0 0 0 0 0 0 0 0 0 0 0 0 0 0 0 0 5 0 0
620 1117 1509 1635 1734 1657 1528 1475 1111 791 495 433 344 113 0 0 77 63 0 0 0 0 0 0 0 0 0 0 0 0 0 0 0 0 0 0 0 0 0 0 0 0 0
308 794 1265 1577 1806 2340 1608 1407 1176 939 570 502 511 146 55 129 166 0 0 0 0 0 0 0 0 0 0 0 0 0 0 0 0 0 0 0 0 0 0 0 0 0 0
49 335 790 1304 1602 1656 2199 1693 1638 1119 680 622 805 155 219 305 38 0 0 0 0 0 0 0 0 0 0 0 0 0 0 0 0 0 0 0 0 0 0 0 0 0 0
0 18 326 775 1340 1628 2016 1793 1520 1283 780 965 848 499 497 103 0 11 1 1 0 0 0 0 0 0 0 0 0 0 0 0 0 0 0 0 0 0 0 0 0 0 0
0 0 0 87 797 1516 1772 1892 1649 1275 1105 848 706 772 196 73 19 60 1 0 0 0 0 0 0 0 0 0 0 0 0 0 0 0 0 0 0 0 0 0 0 0 0
0 0 0 0 78 956 1678 1890 1512 1475 1052 1001 525 324 153 82 97 80 0 0 0 0 0 0 0 0 0 0 0 0 0 0 0 0 0 0 0 0 0 0 0 0 0
0 0 0 1 75 511 1572 1544 1296 1357 958 689 493 332 243 147 99 38 0 0 0 0 0 0 0 0 0 0 0 0 0 0 0 0 0 0 0 0 0 0 0 0 0
0 0 0 6 122 732 1625 1289 995 1092 670 739 653 474 267 282 96 183 0 0 0 0 0 0 0 0 0 0 0 0 0 0 0 0 0 0 0 0 0 0 0 0 0
0 0 0 57 460 1134 989 808 922 666 481 673 723 573 375 406 189 67 1 0 0 0 0 0 0 0 0 0 0 0 0 0 0 0 0 0 0 0 0 0 0 0 0
0 0 0 187 736 960 481 523 501 416 642 677 671 563 673 362 313 117 2 0 0 0 0 0 0 0 0 0 0 0 0 0 0 0 0 0 0 0 0 0 0 0 0
0 0 17 230 736 692 382 296 184 398 507 584 450 469 636 353 319 38 1 0 0 0 0 0 0 0 0 0 0 0 0 0 0 0 0 0 0 0 0 0 0 0 0
0 0 39 351 629 597 147 242 140 307 381 538 376 460 422 382 241 177 0 0 0 0 0 0 0 0 0 0 0 0 0 0 0 0 0 0 0 0 0 0 0 0 0

GFSSE_con_mucape_012.txt.gz
CAPE
872 1370 1848 1311 759 437 172 74 0 0 0 11 77 98 86 47 38 38 2 0 0 0 0 4 13 36 43 60 72 75 42 32 2 0 0 0 0 0 2 9 22 17 14
958 1204 1870 1371 704 397 144 49 0 0 1 18 73 141 84 58 59 39 21 0 0 0 1 5 1 1 3 6 2 2 11 0 0 0 0 0 0 0 2 8 0 12 10
1059 1107 1367 1380 1166 595 176 64 4 0 60 11 0 24 26 61 29 0 0 0 0 0 3 5 3 3 1 0 0 0 0 0 0 0 0 0 0 0 0 0 0 8 0
1112 902 842 1611 1277 512 266 94 4 71 7 23 0 0 13 39 8 0 0 0 0 0 0 0 0 0 0 0 0 0 2 0 0 0 0 0 0 0 0 0 0 5 24
1030 808 1065 1652 1318 723 378 223 11 0 38 5 17 0 13 33 9 0 0 0 0 0 0 0 0 0 0 0 0 0 0 0 0 1 0 0 0 0 0 0 0 0 0
1065 1076 1589 1614 1444 1103 749 342 151 0 0 0 6 0 8 1 7 0 2 0 0 0 0 4 16 7 0 0 8 0 0 0 0 0 0 0 0 0 0 1 2 2 1
1251 1279 1478 1813 1594 1364 1000 697 189 27 4 16 12 19 76 63 40 0 3 0 0 0 1 11 32 22 21 47 31 4 0 0 0 3 8 4 4 7 18 11 14 74 93
1795 1657 1395 1713 1627 1438 1270 988 609 146 42 30 22 34 83 79 108 87 28 0 0 7 0 57 77 89 68 37 11 0 0 0 0 0 1 0 0 0 25 37 84 189 187
1877 1784 1304 1202 1183 1330 1217 1040 809 462 135 80 129 156 94 98 346 237 89 66 89 1 84 81 37 17 2 0 0 0 0 0 0 0 0 0 0 0 2 22 25 24 32
1154 1796 1471 1273 1062 969 987 1007 810 657 390 261 265 413 91 36 410 445 378 203 48 88 43 0 0 0 0 0 0 0 0 0 0 0 0 0 0 0 0 0 0 2 14
1033 1746 1693 1556 1238 1040 943 774 753 745 427 335 372 136 43 0 0 115 34 106 81 41 0 0 0 0 0 0 0 0 0 0 0 0 0 0 0 0 0 15 32 31 89
949 1075 1691 1773 1455 1225 1263 614 449 426 193 134 100 26 0 0 0 0 2 35 56 0 0 0 0 0 0 0 0 0 0 0 0 0 0 0 0 2 29 13 10 35 22
956 1027 1020 1064 1321 1464 1135 730 509 401 249 77 47 13 0 0 0 1 0 0 0 0 0 0 0 0 0 0 0 0 0 0 0 0 0 0 0 17 13 19 10 1 8
929 1050 1136 1177 1358 1551 1379 1502 804 428 359 195 136 32 0 0 0 0 2 47 1 0 0 0 0 0 0 0 0 0 0 0 0 0 0 0 0 0 1 3 0 0 0
770 1074 1338 1197 1431 1232 1328 1380 1066 446 420 252 212 89 0 5 2 0 12 2 0 0 0 0 0 0 0 0 0 0 0 0 0 0 0 0 0 0 0 0 0 0 0
120 921 1438 1381 1532 1642 1336 1287 1162 565 520 428 344 162 0 8 34 52 18 0 0 0 0 0 0 0 0 0 0 0 0 0 0 0 0 0 0 0 0 0 0 0 0
0 476 1097 1482 1597 1564 1470 1222 1100 1036 731 465 472 633 11 86 37 25 0 0 0 0 0 0 0 0 0 0 0 0 0 0 0 0 0 0 0 0 0 0 0 0 0
0 15 648 1260 1624 1570 1337 1409 1644 884 883 596 498 647 214 235 117 51 0 0 0 0 0 0 0 0 0 0 0 0 0 0 0 0 0 0 0 0 0 0 0 0 0
0 0 169 892 1443 1610 1396 1503 1565 1229 882 728 565 752 356 225 238 0 5 1 0 0 0 0 0 0 0 0 0 0 0 0 0 0 0 0 0 0 0 0 0 0 0
0 0 0 345 1014 1556 1491 1301 1553 1275 1336 771 618 496 486 429 120 55 27 1 0 0 0 0 0 0 0 0 0 0 0 0 0 0 0 0 0 0 0 0 0 0 0
0 0 0 0 185 1470 1605 1385 1627 1324 932 942 790 696 632 281 138 97 34 2 0 0 0 0 0 0 0 0 0 0 0 0 0 0 0 0 0 0 0 0 0 0 0
0 0 0 0 0 240 1475 1380 1537 1381 967 883 932 783 530 275 191 171 70 36 0 0 0 0 0 0 0 0 0 0 0 0 0 0 0 0 0 0 0 0 0 0 0
0 0 0 0 0 0 1411 1619 1428 1212 1029 783 1060 778 447 318 250 233 119 89 5 0 0 0 0 0 0 0 0 0 0 0 0 0 0 0 0 0 0 0 0 0 0
0 0 0 0 0 304 1498 1452 1200 1028 773 685 831 617 534 391 322 293 135 16 73 0 0 0 0 0 0 0 0 0 0 0 0 0 0 0 0 0 0 0 0 0 0
0 0 0 0 21 1022 1305 1123 842 890 714 524 586 567 487 463 362 312 161 100 86 0 0 0 0 0 0 0 0 0 0 0 0 0 0 0 0 0 0 0 0 0 0
0 0 0 0 384 893 1037 806 528 683 301 389 331 516 543 459 298 336 246 161 4 0 0 0 0 0 0 0 0 0 0 0 0 0 0 0 0 0 0 0 0 0 0

GFSSE_con_mucape_015.txt.gz
CAPE
758 1200 1900 1150 665 406 224 84 9 0 117 207 195 190 117 62 27 3 0 0 0 2 3 14 17 49 63 72 62 55 31 6 0 0 0 0 0 0 1 5 24 25 22
884 1278 1705 1306 620 349 121 52 0 0 166 24 107 91 60 53 19 2 1 0 1 1 5 11 8 19 23 11 6 0 0 0 0 0 0 0 0 0 0 0 6 1 2
1134 1232 1075 1309 943 396 125 43 7 32 162 141 229 150 92 24 5 0 0 0 1 5 10 7 2 0 0 0 0 0 0 0 0 0 0 0 0 0 0 0 0 1 0
1112 1142 887 1344 955 349 161 45 194 112 0 15 15 24 32 3 0 0 0 0 0 1 0 0 0 0 0 0 0 0 0 0 0 1 0 0 0 0 0 0 0 2 9
1052 959 1091 1383 1036 471 209 63 263 41 31 51 82 45 34 7 3 2 0 0 0 0 4 2 0 0 0 0 0 0 0 0 0 0 0 0 0 0 0 0 0 0 0
793 759 1425 1418 1198 951 641 205 67 102 0 11 69 57 100 14 6 2 0 0 0 0 2 9 1 0 0 1 0 0 0 0 0 0 0 0 0 7 4 0 0 0 8
922 909 1274 1583 1415 1159 979 633 124 53 29 53 60 57 57 44 10 2 0 0 0 1 0 22 7 13 20 3 0 0 0 0 0 0 2 0 0 2 0 4 7 130 119
1128 1009 982 1415 1467 1248 1088 798 346 240 128 44 113 152 107 103 48 59 14 0 13 0 14 37 59 64 34 0 0 0 0 0 0 0 0 0 0 0 2 6 46 55 86
1311 1269 1242 1066 1145 1159 992 726 488 383 322 170 304 255 167 335 560 199 44 41 37 15 86 51 24 12 0 0 0 0 0 0 0 0 0 0 0 0 0 0 0 1 2
1599 1622 1410 999 882 884 848 735 563 460 350 427 516 307 93 288 640 617 412 379 48 124 22 5 0 0 0 0 0 0 0 0 0 0 0 0 0 0 0 0 1 30 76
1814 1572 1298 912 839 793 717 632 590 475 357 368 437 119 22 85 276 207 160 182 251 96 0 0 0 0 0 0 0 0 0 0 0 0 0 0 0 0 36 25 35 71 54
1688 1617 1392 1133 926 804 791 640 428 296 140 197 220 90 21 6 132 87 73 82 249 8 0 0 0 0 0 0 0 0 0 0 0 0 0 0 11 41 17 44 32 21 45
1015 1794 1680 1380 1126 971 809 644 480 272 127 101 108 54 17 14 10 7 2 0 1 0 0 0 0 0 0 0 0 0 0 0 0 0 0 0 8 15 25 18 16 16 12
769 972 1859 1613 1377 1183 994 811 635 477 326 51 68 52 0 11 19 40 0 0 0 0 0 0 0 0 0 0 0 0 0 0 0 0 0 0 0 1 7 2 0 0 0
853 962 1010 1335 1461 1287 1135 855 782 585 313 190 210 128 1 0 0 0 27 32 0 0 0 0 0 0 0 0 0 0 0 0 0 0 0 0 0 0 0 0 0 0 0
381 987 1112 1095 1286 1331 1307 1056 824 730 452 340 337 224 70 0 0 2 1 3 0 0 0 0 0 0 0 0 0 0 0 0 0 0 0 0 0 0 0 0 0 0 0
0 976 1200 1169 1368 1436 1314 1150 812 1003 554 420 411 265 187 15 16 8 40 48 0 0 0 0 0 0 0 0 0 0 0 0 0 0 0 0 0 0 0 0 0 0 0
0 336 1261 1418 1455 1485 1429 1311 997 813 611 563 511 458 356 42 104 57 93 0 0 0 0 0 0 0 0 0 0 0 0 0 0 0 0 0 0 0 0 0 0 0 0
0 0 1199 1501 1535 1671 1655 1514 1125 938 736 857 603 430 393 180 154 188 144 11 0 0 0 0 0 0 0 0 0 0 0 0 0 0 0 0 0 0 0 0 0 0 0
0 0 0 1390 1604 1669 1607 1409 1258 1316 962 922 654 500 435 211 204 205 136 34 10 0 0 0 0 0 0 0 0 0 0 0 0 0 0 0 0 0 0 0 0 0 0
0 0 0 321 1581 1671 1619 1302 1345 1308 926 1532 755 566 418 344 296 334 77 68 53 2 0 0 0 0 0 0 0 0 0 0 0 0 0 0 0 0 0 0 0 0 0
0 0 0 1 1245 1540 1505 1500 1267 1314 1031 949 701 697 570 476 407 344 128 81 46 16 0 0 0 0 0 0 0 0 0 0 0 0 0 0 0 0 0 0 0 0 0
0 0 0 0 536 1427 1394 1376 1358 1084 1068 864 859 896 771 737 661 267 165 101 24 27 9 0 0 0 0 0 0 0 0 0 0 0 0 0 0 0 0 0 0 0 0
0 0 0 0 0 1286 1309 1139 1408 981 902 1014 691 616 595 811 734 281 208 83 148 0 6 8 0 0 0 0 0 0 0 0 0 0 0 0 0 0 0 0 0 0 0
0 0 0 0 0 33 1103 990 1301 913 751 908 670 607 486 800 611 321 213 134 206 1 20 0 0 0 0 0 0 0 0 0 0 0 0 0 0 0 0 0 0 0 0
0 0 0 0 0 532 901 896 1026 927 740 678 625 489 351 882 549 304 253 158 7 44 17 0 0 0 0 0 0 0 0 0 0 0 0 0 0 0 0 0 0 0 0

GFSSE_con_mucape_018.txt.gz
CAPE
582 1023 1592 759 511 368 228 158 208 445 496 418 417 376 208 57 5 2 0 0 0 1 10 56 108 169 113 92 66 35 15 0 0 0 0 0 0 0 0 2 8 10 17
718 1138 1563 994 568 353 143 81 81 382 648 366 267 155 83 26 4 2 0 0 0 1 10 6 34 33 31 19 4 0 0 0 0 0 0 0 0 0 0 0 3 0 0
985 1135 1025 1186 731 177 116 56 77 108 134 395 160 112 96 15 3 1 0 0 4 8 14 18 16 4 0 0 0 0 0 0 0 0 0 0 0 0 0 0 0 0 0
1047 1001 793 1213 573 205 97 110 229 139 326 407 346 152 9 1 0 0 0 1 3 3 1 0 0 0 0 0 0 0 0 0 0 0 0 0 0 0 0 0 0 1 6
1032 836 831 1149 582 248 105 429 149 66 80 195 334 206 0 0 0 0 0 0 0 2 4 2 0 0 0 0 0 0 0 0 5 0 0 0 0 0 0 0 0 0 0
906 791 1140 1217 827 607 402 523 140 29 18 100 148 313 75 4 4 0 0 0 1 4 6 3 1 0 0 1 0 0 0 0 0 0 0 0 0 8 3 0 0 0 0
853 891 1008 1392 895 526 416 678 428 92 39 61 76 110 73 27 28 0 0 0 2 6 28 14 1 1 4 1 0 0 0 0 0 0 0 0 7 9 3 5 6 113 112
697 965 973 1348 1263 1013 576 367 474 323 175 161 217 193 114 71 66 44 0 0 6 2 29 38 67 60 18 0 0 0 0 0 0 0 0 0 0 0 2 6 12 6 17
881 934 925 1000 999 1054 964 452 346 445 407 446 522 460 428 439 349 186 53 73 5 68 127 129 94 19 0 0 0 0 0 0 0 0 0 0 0 0 0 0 0 0 4
1086 1020 867 982 845 773 697 566 400 468 406 432 577 410 204 370 618 544 334 380 66 187 76 34 0 0 0 0 0 0 0 0 0 0 0 0 0 0 1 1 16 62 131
1125 1002 851 948 806 710 567 429 477 435 397 440 403 103 61 394 449 370 223 295 410 220 19 0 0 0 0 0 0 0 0 0 0 0 0 0 0 38 32 64 66 83 71
1247 1149 976 906 750 683 605 492 341 203 203 242 239 44 0 373 435 294 254 220 433 146 0 0 0 0 0 0 0 0 0 0 0 0 0 5 38 34 52 39 44 52 44
1533 1441 1000 913 835 694 645 479 324 164 124 167 183 92 4 53 233 271 176 117 136 0 0 0 0 0 0 0 0 0 0 0 0 0 0 0 4 29 31 19 13 11 10
1700 1616 1299 980 963 817 782 642 511 343 82 110 152 119 37 38 103 167 31 22 2 0 0 0 0 0 0 0 0 0 0 0 0 0 0 0 0 7 6 1 0 0 0
1090 1624 1474 1297 1295 1057 930 758 688 614 369 156 27 49 29 0 38 86 0 3 0 0 0 0 0 0 0 0 0 0 0 0 0 0 0 0 0 0 0 0 0 0 0
631 791 1580 1566 1642 1318 1085 877 821 677 459 244 8 44 12 11 80 84 18 39 0 0 0 0 0 0 0 0 0 0 0 0 0 0 0 0 0 0 0 0 0 0 0
0 238 799 1429 1490 1558 1300 1024 1041 951 695 420 121 204 133 8 2 0 35 25 3 0 0 0 0 0 0 0 0 0 0 0 0 0 0 0 0 0 0 0 0 0 0
0 0 412 947 1326 1391 1399 1216 1206 1073 651 568 375 371 244 163 1 18 48 22 56 0 0 0 0 0 0 0 0 0 0 0 0 0 0 0 0 0 0 0 0 0 0
0 0 83 791 1176 1318 1350 1334 1173 938 735 612 507 495 313 235 110 21 44 98 110 0 0 0 0 0 0 0 0 0 0 0 0 0 0 0 0 0 0 0 0 0 0
0 0 0 672 1058 1261 1325 1319 1194 985 849 661 651 500 376 325 308 78 79 99 83 7 1 0 0 0 0 0 0 0 0 0 0 0 0 0 0 0 0 0 0 0 0
0 0 0 299 1089 1261 1166 1123 1213 1080 935 777 781 681 483 415 347 84 98 188 113 9 16 0 0 0 0 0 0 0 0 0 0 0 0 0 0 0 0 0 0 0 0
0 0 0 0 875 1326 1199 1118 1034 1101 974 875 917 678 525 659 527 211 254 251 102 13 0 0 0 0 0 0 0 0 0 0 0 0 0 0 0 0 0 0 0 0 0
0 0 0 0 106 1233 1311 1264 1020 934 822 855 900 666 735 649 608 686 594 377 89 8 0 0 0 0 0 0 0 0 0 0 0 0 0 0 0 0 0 0 0 0 0
0 0 0 0 0 1160 1310 1276 887 681 673 812 718 615 524 578 835 741 604 451 144 46 6 0 0 0 0 0 0 0 0 0 0 0 0 0 0 0 0 0 0 0 0
0 0 0 0 0 822 1299 1223 1002 801 616 727 789 667 553 414 349 466 387 545 221 111 6 3 5 4 0 0 0 0 0 0 0 0 0 0 0 0 0 0 0 0 0
0 0 0 0 0 99 1106 1028 841 710 717 625 684 642 573 443 451 337 492 558 274 160 77 25 28 11 0 0 0 0 0 0 0 0 0 0 0 0 0 0 0 0 0

GFSSE_con_mucape_021.txt.gz
CAPE
227 808 1315 636 634 526 483 438 625 686 849 649 458 366 121 3 0 0 0 0 0 2 5 85 108 88 55 65 61 12 0 0 0 0 0 0 0 0 6 3 2 4 9
475 919 1328 649 510 436 364 388 834 953 949 673 498 345 86 3 1 0 0 2 1 4 20 96 74 93 71 34 10 0 0 0 0 0 0 0 0 0 0 0 0 0 0
694 918 842 1025 725 348 164 180 452 553 671 709 353 150 51 7 4 0 1 2 4 10 47 50 37 19 11 0 0 0 0 0 0 0 0 0 0 0 0 0 0 0 0
819 890 698 1131 499 173 108 91 201 360 419 545 312 164 39 4 0 0 2 3 8 12 13 5 2 1 0 0 0 0 0 0 0 0 0 0 0 0 0 0 0 1 4
888 756 714 1060 467 173 119 137 192 218 371 546 403 102 1 0 0 0 0 2 2 3 2 0 0 0 0 0 0 0 0 0 0 0 0 0 0 2 1 0 0 0 0
893 698 1045 1024 523 383 391 326 167 348 402 492 482 130 0 0 0 0 0 0 2 4 4 2 0 0 0 0 0 0 0 0 0 0 0 0 0 13 2 5 0 0 0
827 771 849 1071 618 319 760 482 245 164 175 252 227 83 47 41 2 0 0 0 1 6 52 3 4 20 24 1 0 0 0 0 0 0 0 0 7 6 7 6 15 61 135
790 862 855 944 869 567 826 605 408 300 232 263 455 344 125 87 57 16 0 0 1 12 54 40 90 61 5 0 0 0 0 0 0 0 0 0 0 0 1 1 4 3 21
833 858 889 836 754 636 551 677 455 391 361 429 544 623 417 352 272 74 46 43 22 100 161 216 129 5 0 0 0 0 0 0 0 0 0 0 0 0 0 0 0 0 97
839 820 827 850 791 639 399 387 460 435 467 578 586 485 379 393 486 398 293 334 57 291 168 118 37 0 0 0 0 0 0 0 0 0 0 0 0 0 3 21 102 125 94
959 822 813 893 741 705 568 231 366 458 389 454 448 274 172 286 393 353 187 327 339 312 143 11 0 0 0 0 0 0 0 0 0 0 0 0 7 38 97 65 109 66 45
1060 850 812 895 702 617 521 273 217 284 236 299 343 122 91 374 436 353 259 303 519 321 31 0 0 0 0 0 0 0 0 0 0 0 0 56 34 58 51 46 42 32 21
1212 1075 806 897 742 589 431 276 218 206 193 205 254 68 21 433 501 395 344 282 255 17 0 0 0 0 0 0 0 0 0 0 0 0 0 26 27 26 24 11 6 10 3
1323 1299 909 856 823 688 562 403 270 179 115 139 172 111 11 164 400 391 312 174 99 0 0 0 0 0 0 0 0 0 0 0 0 0 0 0 10 9 4 0 0 0 0
1332 1314 1182 1080 928 833 752 626 571 432 246 86 124 133 53 0 169 205 213 36 16 0 0 0 0 0 0 0 0 0 0 0 0 0 0 0 0 0 0 0 0 0 0
1127 1346 1375 1316 1062 959 926 789 772 564 453 393 111 108 90 16 33 93 106 0 11 0 0 0 0 0 0 0 0 0 0 0 0 0 0 0 0 0 0 0 0 0 0
652 673 1231 1284 1180 1142 1140 1008 939 696 591 527 420 255 62 31 0 8 89 6 11 0 0 0 0 0 0 0 0 0 0 0 0 0 0 0 0 0 0 0 0 0 0
0 0 237 1163 1108 1235 1387 1243 1137 893 800 789 634 149 27 37 6 36 67 38 24 1 7 0 0 0 0 0 0 0 0 0 0 0 0 0 0 0 0 0 0 0 0
0 0 0 577 1253 1279 1346 1219 1164 1036 994 916 674 426 163 173 128 106 2 25 55 13 47 0 0 0 0 0 0 0 0 0 0 0 0 0 0 0 0 0 0 0 0
0 0 0 122 873 1221 1176 1153 978 1071 1138 1055 714 592 362 305 172 163 49 35 14 57 10 0 0 0 0 0 0 0 0 0 0 0 0 0 0 0 0 0 0 0 0
0 0 0 23 630 1029 900 894 834 798 933 990 724 688 559 445 281 285 206 89 44 74 56 0 0 0 0 0 0 0 0 0 0 0 0 0 0 0 0 0 0 0 0
0 0 0 0 224 781 962 953 678 754 786 1055 760 762 718 559 286 329 429 110 47 313 88 0 0 0 0 0 0 0 0 0 0 0 0 0 0 0 0 0 0 0 0
0 0 0 0 0 615 920 954 905 753 658 781 835 816 813 726 453 410 454 413 175 349 130 1 0 0 0 0 0 0 0 0 0 0 0 0 0 0 0 0 0 0 0
0 0 0 0 0 42 989 993 907 711 494 544 768 841 831 701 402 407 666 521 314 340 199 9 0 0 0 0 0 0 0 0 0 0 0 0 0 0 0 0 0 0 0
0 0 0 0 0 0 729 980 894 838 596 492 615 782 768 712 423 405 308 601 310 304 245 104 0 1 0 1 0 0 0 0 0 0 0 0 0 0 0 0 0 0 0
0 0 0 0 0 0 511 1026 959 688 555 517 567 640 570 531 439 416 304 319 367 299 243 205 30 7 6 8 21 6 0 0 0 0 0 0 0 0 0 0 0 0 0

GFSSE_con_mucape_024.txt.gz
CAPE
52 740 1616 1095 896 590 541 563 700 1125 1162 836 604 175 130 22 0 0 0 1 0 0 51 21 63 72 56 65 40 0 0 0 0 0 0 0 0 3 5 0 9 1 3
132 860 1406 1174 664 539 535 671 887 987 1090 900 514 278 52 5 1 0 2 1 1 0 54 92 96 77 61 23 0 0 0 0 0 0 0 0 0 1 1 2 0 0 0
542 691 623 947 688 432 537 624 874 833 939 869 547 208 60 3 0 0 0 1 2 17 67 72 10 13 12 0 0 0 0 0 0 0 0 0 0 0 0 0 0 0 0
744 664 511 998 725 441 328 514 631 670 698 617 337 127 28 4 0 2 4 8 8 42 41 23 6 3 1 1 0 1 0 0 0 0 0 0 0 0 0 0 0 0 0
778 596 596 1118 597 238 165 243 466 608 551 627 497 126 20 0 0 3 4 4 2 1 0 0 0 0 0 0 0 0 0 0 0 0 0 0 0 10 2 0 0 0 0
810 605 981 955 473 360 321 296 182 236 466 583 476 78 0 0 0 0 1 2 3 3 2 0 2 5 7 6 1 0 0 0 0 0 0 0 0 18 2 8 0 36 0
753 717 767 926 453 283 577 583 569 604 811 462 151 52 4 0 0 0 0 1 17 33 11 2 5 27 18 1 0 0 0 0 0 0 0 0 0 3 7 1 17 40 31
707 805 719 757 658 606 863 505 404 492 479 492 448 175 89 44 2 0 4 14 20 96 66 73 125 55 0 0 0 0 0 0 0 0 0 0 0 0 0 0 0 0 49
762 756 738 599 487 757 689 511 372 416 457 513 615 436 304 281 98 34 28 40 29 126 121 233 118 0 0 0 0 0 0 0 0 0 0 0 0 0 0 0 0 19 116
807 726 706 619 468 386 582 574 432 427 415 466 534 610 356 362 372 219 216 191 48 323 227 156 17 0 0 0 0 0 0 0 0 0 0 0 0 15 74 85 85 65 60
812 706 716 675 558 319 251 366 426 392 344 369 384 326 283 270 326 244 158 269 227 246 169 21 0 0 0 0 0 0 0 0 0 0 0 0 33 64 101 73 70 54 32
1198 734 705 731 681 510 356 154 230 226 228 264 286 259 218 197 292 317 185 264 431 289 42 0 0 0 0 0 0 0 0 0 0 0 0 32 46 44 40 33 25 18 11
905 814 679 764 728 613 521 183 149 213 191 198 277 231 76 234 346 390 233 298 255 72 0 0 0 0 0 0 0 0 0 0 0 0 0 40 14 4 19 13 2 2 1
995 993 868 749 797 691 576 383 170 168 194 157 210 194 63 272 438 429 311 279 115 11 0 0 0 0 0 0 0 0 0 0 0 0 0 8 4 1 0 0 0 0 0
1146 1120 1144 974 875 761 667 566 455 291 161 142 132 170 84 93 414 438 346 243 108 0 0 0 0 0 0 0 0 0 0 0 0 0 0 0 0 0 0 0 0 0 0
1108 1135 1210 1197 939 869 810 712 626 500 441 351 160 132 99 45 125 258 257 188 54 0 0 0 0 0 0 0 0 0 0 0 0 0 0 0 0 0 0 0 0 0 0
222 950 1140 1279 1134 1101 1016 894 811 712 630 540 380 216 93 56 2 88 125 115 4 0 0 0 0 0 0 0 0 0 0 0 0 0 0 0 0 0 0 0 0 0 0
0 138 677 1030 1067 1179 1197 1064 976 898 787 725 543 441 318 188 26 6 55 72 2 2 0 0 0 0 0 0 0 0 0 0 0 0 0 0 0 0 0 0 0 0 0
0 0 0 627 1025 1056 1199 1129 1044 999 940 922 723 610 528 278 26 0 0 40 10 33 0 1 0 0 0 0 0 0 0 0 0 0 0 0 0 0 0 0 0 0 0
0 0 0 1 857 1073 1082 1080 975 980 1102 1065 943 853 654 455 95 14 14 43 9 53 8 23 0 0 0 0 0 0 0 0 0 0 0 0 0 0 0 0 0 0 0
0 0 0 0 10 772 993 1257 1370 888 892 1062 1085 1056 903 596 362 165 103 49 0 27 6 44 0 0 0 0 0 0 0 0 0 0 0 0 0 0 0 0 0 0 0
0 0 0 0 0 412 745 771 740 678 726 848 999 1065 1012 743 530 299 216 143 56 32 45 98 14 0 0 0 0 0 0 0 0 0 0 0 0 0 0 0 0 0 0
0 0 0 0 0 82 684 696 709 762 624 692 742 924 1044 814 737 458 293 205 121 182 72 376 47 0 0 0 0 0 0 0 0 0 0 0 0 0 0 0 0 0 0
0 0 0 0 0 0 424 656 510 483 554 662 665 793 918 834 738 700 499 251 222 290 211 45 126 21 0 0 0 0 0 0 0 0 0 0 0 0 0 0 0 0 0
0 0 0 0 0 0 29 638 567 585 531 487 640 648 775 821 710 726 654 303 290 237 374 113 166 87 7 0 0 0 0 0 0 0 0 0 0 0 0 0 0 0 0
0 0 0 0 0 0 0 357 659 470 446 548 596 576 623 652 608 610 670 341 363 258 325 269 256 186 91 13 4 11 5 1 0 0 0 0 0 0 0 0 0 0 0

GFSSE_con_mucape_027.txt.gz
CAPE
66 1075 1762 1262 1188 1254 1314 1353 1530 1717 1557 1129 801 472 232 32 2 0 1 0 2 14 22 45 67 49 45 29 5 0 0 0 0 0 0 2 4 5 4 0 0 1 0
116 1076 1572 1454 1088 1192 1031 1216 1423 1462 1381 1024 507 337 73 17 1 1 3 0 0 48 87 85 77 68 49 1 0 0 0 0 0 0 0 0 3 3 3 0 0 0 12
543 950 683 1379 1204 978 696 849 1037 1265 1394 1161 506 154 28 3 0 1 0 0 0 55 61 42 38 20 2 0 0 0 0 0 0 0 0 0 0 0 0 0 0 0 6
868 606 365 1063 750 659 706 806 948 1148 1112 992 393 135 43 3 0 0 0 0 27 34 20 9 2 1 0 0 1 1 0 0 0 0 0 0 1 3 0 0 0 0 0
773 485 403 914 822 668 551 632 944 1120 1183 761 440 102 20 0 1 3 7 5 7 1 0 0 0 0 0 1 4 5 0 0 0 0 0 0 2 18 2 0 0 0 0
753 522 744 1012 754 643 610 651 736 808 792 698 606 83 0 0 3 4 2 0 0 0 0 1 6 11 9 3 1 0 0 0 0 0 0 0 6 5 1 0 30 149 13
752 625 602 943 505 322 489 552 483 636 729 759 251 29 0 2 3 3 3 5 11 4 5 15 50 21 2 0 0 0 0 0 0 0 0 0 0 4 5 0 4 14 129
799 784 616 682 605 586 720 733 883 848 1174 512 335 75 0 1 2 1 15 44 62 112 70 86 105 0 0 0 0 0 0 0 0 0 0 0 0 0 0 0 0 62 77
906 858 693 511 387 616 666 524 569 782 941 631 436 261 192 110 20 9 25 50 82 132 158 199 8 0 0 0 0 0 0 0 0 0 0 0 0 0 0 0 2 125 71
890 906 743 579 353 558 408 398 384 455 587 648 486 331 233 204 182 83 133 105 69 348 254 86 0 0 0 0 0 0 0 0 0 0 0 0 1 104 147 83 71 57 37
860 799 787 642 426 530 465 286 294 338 314 309 307 249 197 240 202 142 80 131 251 220 149 10 0 0 0 0 0 0 0 0 0 0 0 3 48 72 76 53 40 17 6
1361 1493 698 783 568 340 393 391 260 220 231 247 271 405 285 307 377 231 133 161 342 201 59 0 0 0 0 0 0 0 0 0 0 0 0 51 36 40 23 8 7 4 2
1256 1231 737 668 653 518 289 235 291 240 270 272 279 274 199 194 295 389 294 362 310 21 0 0 0 0 0 0 0 0 0 0 0 0 8 20 3 5 1 2 0 0 0
1078 1254 1217 762 620 705 637 371 194 225 214 223 279 199 156 169 281 432 330 382 189 10 0 0 0 0 0 0 0 0 0 0 0 0 2 6 0 0 0 0 0 0 0
956 1023 1066 1105 888 621 583 535 399 230 180 179 193 163 130 132 223 260 403 234 136 78 0 0 0 0 0 0 0 0 0 0 0 0 0 0 0 0 0 0 0 0 0
890 1044 969 940 1155 875 641 632 519 410 279 182 157 151 104 51 254 200 278 295 151 82 0 0 0 0 0 0 0 0 0 0 0 0 0 0 0 0 0 0 0 0 0
51 822 905 901 979 1434 1211 728 693 590 467 386 309 280 145 41 64 199 241 224 144 53 0 0 0 0 0 0 0 0 0 0 0 0 0 0 0 0 0 0 0 0 0
0 0 546 899 929 1039 1160 1078 857 734 610 632 587 499 364 169 79 44 86 120 91 32 0 0 0 0 0 0 0 0 0 0 0 0 0 0 0 0 0 0 0 0 0
0 0 0 367 1026 878 1014 1289 883 900 872 783 736 691 574 411 269 166 80 38 55 28 0 0 0 0 0 0 0 0 0 0 0 0 0 0 0 0 0 0 0 0 0
0 0 0 0 278 1038 936 1196 1128 1026 851 912 895 746 747 586 516 306 112 12 39 18 0 0 0 0 0 0 0 0 0 0 0 0 0 0 0 0 0 0 0 0 0
0 0 0 0 0 560 677 761 858 730 1031 758 905 960 868 783 720 478 183 24 0 18 3 0 0 0 0 0 0 0 0 0 0 0 0 0 0 0 0 0 0 0 0
0 0 0 0 0 0 526 723 661 585 768 666 691 713 926 959 832 660 394 114 78 51 4 0 4 26 0 0 0 0 0 0 0 0 0 0 0 0 0 0 0 0 0
0 0 0 0 0 0 2 652 492 372 457 655 705 935 654 946 975 771 597 247 180 121 59 4 3 59 13 0 0 0 0 0 0 0 0 0 0 0 0 0 0 0 0
0 0 0 0 0 0 8 403 412 150 158 498 379 527 670 768 902 828 730 460 253 227 64 30 58 16 81 4 0 0 0 0 0 0 0 0 0 0 0 0 0 0 0
0 0 0 0 0 0 0 452 580 312 448 534 357 406 524 570 734 760 770 694 430 296 185 83 53 27 77 73 0 0 0 0 0 0 0 0 0 0 0 0 0 0 0
0 0 0 0 0 0 0 8 430 449 350 270 315 407 485 539 601 590 631 704 686 349 206 127 114 55 65 114 56 24 1 0 0 0 0 0 0 0 0 0 0 0 0

GFSSE_con_mucape_030.txt.gz
CAPE
647 1070 1982 1832 1652 1667 1651 1752 1748 1751 1720 1285 1073 747 306 27 8 10 2 1 7 21 30 67 53 72 42 12 0 0 1 3 0 1 2 9 4 7 6 0 1 0 0
733 1011 1268 1565 1868 1770 1817 1890 2035 1854 1679 1217 817 485 120 8 3 5 0 0 19 54 71 79 68 32 3 0 0 0 0 0 0 0 0 0 8 6 1 0 0 3 10
894 772 547 1254 1114 1301 1561 1376 1577 1641 1609 986 574 213 39 7 8 4 0 0 59 78 71 58 24 1 0 0 0 0 0 0 0 0 0 0 0 0 0 0 0 0 19
841 762 647 1104 1089 1231 943 926 1326 1658 1336 1031 360 72 6 5 1 0 0 20 37 30 13 5 2 0 0 0 0 0 0 0 0 0 0 3 8 0 0 0 0 0 0
881 607 631 1022 1024 651 937 546 829 1401 1374 914 358 71 3 0 0 3 2 15 14 2 0 0 0 0 0 1 3 0 0 0 0 0 1 10 19 3 0 0 0 0 0
744 501 553 948 852 710 883 672 791 1501 1112 487 353 41 0 0 3 5 1 0 0 0 0 2 3 4 4 5 1 0 0 0 0 0 5 0 7 0 0 16 31 140 163
614 514 376 987 810 576 572 648 727 1185 1089 510 179 1 0 2 4 2 1 0 0 0 1 9 9 1 0 0 0 0 0 0 1 1 8 0 0 0 0 0 0 157 136
700 571 446 653 693 544 621 667 624 904 1208 752 242 10 0 2 2 2 17 51 33 29 47 108 3 0 0 0 0 0 0 0 1 3 0 0 0 0 0 0 5 176 60
816 571 458 430 343 531 699 833 814 782 1221 564 307 147 122 87 28 33 66 78 187 102 142 57 0 0 0 0 0 0 0 0 0 0 0 0 0 0 0 0 170 91 46
1024 884 619 371 190 178 375 429 587 939 730 473 369 301 183 124 113 61 143 116 112 222 194 0 0 0 0 0 0 0 0 0 0 0 0 0 30 180 124 125 73 48 31
980 978 803 408 235 230 289 185 247 350 465 419 282 156 103 49 48 29 31 100 313 248 95 0 0 0 0 0 0 0 0 0 0 0 0 17 86 86 61 42 31 18 0
1203 1129 933 620 337 289 268 221 139 119 199 282 328 201 109 114 108 54 25 97 255 217 70 0 0 0 0 0 0 0 0 0 0 0 14 96 40 25 3 2 2 0 0
1245 874 1153 882 546 381 348 339 270 163 123 157 216 313 193 244 434 344 179 139 114 12 0 0 0 0 0 0 0 0 0 0 0 0 10 7 20 12 0 0 0 0 0
921 1347 1348 1086 786 657 545 369 394 224 151 172 174 234 387 365 351 453 449 295 253 49 0 0 0 0 0 0 0 0 0 0 0 0 5 4 0 0 0 0 0 0 0
946 1171 961 1081 813 717 884 791 498 352 139 118 173 208 242 245 217 278 312 462 301 148 0 0 0 0 0 0 0 0 0 0 0 0 2 0 0 0 0 0 0 0 0
1114 1297 958 913 1233 715 885 1111 960 544 271 140 149 196 230 168 173 262 397 330 374 152 41 0 0 0 0 0 0 0 0 0 0 0 0 0 0 0 0 0 0 0 0
150 147 1123 1369 1264 1061 874 1187 1150 1013 547 391 281 159 139 104 126 217 232 250 359 149 64 8 0 0 0 0 0 0 0 0 0 0 0 0 0 0 0 0 0 0 0
93 34 0 624 1336 1262 999 946 1137 1220 936 675 532 453 268 173 102 147 252 199 249 138 52 10 0 0 0 0 0 0 0 0 0 0 0 0 0 0 0 0 0 0 0
17 0 0 0 449 1019 1195 993 1115 1094 1241 1110 812 675 534 443 332 156 137 312 265 53 9 0 0 0 0 0 0 0 0 0 0 0 0 0 0 0 0 0 0 0 0
0 0 0 0 0 100 961 1417 973 1109 1351 1124 1057 922 747 586 526 350 187 159 168 33 0 0 0 0 0 0 0 0 0 0 0 0 0 0 0 0 0 0 0 0 0
0 0 0 0 0 0 28 836 1289 1089 1029 1407 1270 976 908 746 562 366 406 234 160 100 0 2 0 0 0 0 0 0 0 0 0 0 0 0 0 0 0 0 0 0 0
0 0 0 0 0 0 0 62 489 681 834 791 580 1131 834 843 688 513 404 377 194 143 31 7 4 0 0 0 0 0 0 0 0 0 0 0 0 0 0 0 0 0 0
0 0 0 0 0 0 0 0 229 711 750 663 537 576 819 757 712 588 403 439 409 325 82 72 48 8 1 0 0 0 0 0 0 0 0 0 0 0 0 0 0 0 0
0 0 0 0 0 0 0 0 0 218 374 413 447 671 618 609 1030 702 481 458 490 417 90 118 92 47 10 0 13 0 0 0 0 0 0 0 0 0 0 0 0 0 0
0 0 0 0 0 0 0 0 0 0 21 76 320 662 661 591 348 936 319 381 468 438 266 182 191 54 13 5 11 31 3 0 0 0 0 0 0 0 0 0 0 0 0
0 0 0 0 0 0 0 0 0 0 62 215 495 786 617 571 642 627 496 205 408 529 447 289 306 114 59 38 24 42 61 25 3 0 0 0 0 0 0 0 0 0 0

GFSSE_con_mucape_033.txt.gz
CAPE
1075 1031 2391 2156 1665 1460 1537 1721 1670 1680 1650 1289 1138 693 299 54 13 10 2 0 5 12 68 51 65 38 18 0 0 4 0 0 1 4 1 9 8 4 0 0 9 2 4
1098 974 1723 2040 2090 1707 1849 1878 1997 1867 1660 1602 1055 522 106 4 4 0 0 0 59 41 80 67 32 4 0 0 0 0 0 0 0 0 0 0 12 0 0 0 2 0 0
962 820 520 1628 1679 2240 2092 1865 2004 1734 1594 1055 581 159 12 6 3 0 0 42 138 129 87 47 6 0 0 0 0 0 0 0 0 0 0 0 0 0 0 0 0 0 0
878 551 424 1333 1221 1601 1633 1333 1664 1633 1165 703 250 46 4 6 0 0 4 51 56 37 19 10 0 0 0 0 0 0 0 0 0 0 0 4 2 0 0 0 0 0 0
749 560 616 1033 959 823 579 994 1591 1544 980 853 234 44 4 1 0 0 26 27 8 0 0 0 0 0 0 2 2 0 0 0 0 1 9 13 18 0 0 24 46 0 23
679 671 588 912 833 517 423 244 1011 1360 960 437 135 23 0 1 6 9 6 0 0 0 0 1 1 1 2 0 0 0 0 0 0 7 9 0 1 2 13 4 181 273 273
524 689 370 868 733 582 438 348 732 1460 719 281 100 0 0 2 3 4 3 0 0 0 1 4 2 0 0 0 0 0 0 0 1 9 6 0 0 0 0 0 125 154 84
523 531 351 608 830 628 513 397 527 1232 893 416 89 0 1 1 1 0 0 0 0 11 37 39 0 0 0 0 0 0 0 0 1 0 0 0 0 0 0 0 177 94 33
595 489 330 288 335 512 547 500 340 823 965 487 147 86 83 43 4 18 47 56 58 47 139 2 0 0 0 0 0 0 0 0 0 0 0 0 0 0 0 0 124 65 27
732 502 330 259 118 87 94 556 619 518 728 356 184 137 96 67 86 86 130 138 152 153 99 0 0 0 0 0 0 0 0 0 0 0 0 0 126 111 130 119 69 52 21
892 748 468 247 115 97 136 189 369 694 380 221 180 82 17 0 0 9 42 104 204 339 30 0 0 0 0 0 0 0 0 0 0 0 1 50 76 90 55 29 20 3 4
1174 797 662 333 145 156 175 160 194 371 454 208 126 109 24 11 3 0 11 111 245 216 56 0 0 0 0 0 0 0 0 0 0 0 12 84 27 13 11 2 1 1 0
1115 1201 754 608 328 200 184 199 92 90 113 174 247 142 64 62 56 27 34 16 150 12 5 0 0 0 0 0 0 0 0 0 0 0 3 18 21 10 0 0 0 0 0
990 1265 1101 763 650 374 295 284 246 168 103 90 117 175 153 220 252 255 148 70 13 56 6 0 0 0 0 0 0 0 0 0 0 0 0 7 15 1 0 0 0 0 0
904 713 1128 1131 867 652 494 548 501 400 155 108 105 155 195 306 365 330 397 270 186 123 31 0 0 0 0 0 0 0 0 0 0 0 0 0 0 0 0 0 0 0 0
914 1013 871 1361 1395 814 777 792 845 676 449 161 120 141 139 160 241 193 208 420 435 266 115 4 0 0 0 0 0 0 0 0 0 0 0 0 0 0 0 0 0 0 0
334 782 1082 1089 1015 1321 1077 1064 1135 1021 738 474 235 165 162 151 136 113 179 276 310 413 131 30 0 0 0 0 0 0 0 0 0 0 0 0 0 0 0 0 0 0 0
0 0 27 539 1282 1280 1284 1234 1233 1199 1095 899 650 435 303 224 152 123 193 364 142 324 256 57 0 0 0 0 0 0 0 0 0 0 0 0 0 0 0 0 0 0 0
0 0 0 0 109 720 1226 1147 947 1351 1403 1211 964 757 660 455 273 188 238 353 171 208 285 45 0 0 0 0 0 0 0 0 0 0 0 0 0 0 0 0 0 0 0
0 0 0 0 0 3 359 984 1046 1177 1286 1357 1266 1134 855 867 711 522 341 319 320 363 170 8 1 0 0 0 0 0 0 0 0 0 0 0 0 0 0 0 0 0 0
0 0 0 0 0 0 0 133 1025 1049 946 1235 1244 1290 1248 1115 984 873 648 429 295 213 182 78 33 3 0 0 0 0 0 0 0 0 0 0 0 0 0 0 0 0 0
0 0 0 0 0 0 0 0 98 850 535 697 1004 858 1065 1278 1187 1016 852 656 508 405 198 76 73 28 0 0 0 0 0 0 0 0 0 0 0 0 0 0 0 0 0
0 0 0 0 0 0 0 0 0 28 733 892 708 788 1211 875 1130 1031 1083 758 688 570 313 118 83 61 46 11 7 0 0 0 0 0 0 0 0 0 0 0 0 0 0
0 0 0 0 0 0 0 0 0 0 58 561 558 694 832 682 526 1014 1140 789 618 516 276 198 128 99 56 67 52 0 0 0 0 0 0 0 0 0 0 0 0 0 0
0 0 0 0 0 0 0 0 0 0 0 70 267 304 366 870 583 610 770 801 831 569 330 230 124 132 92 86 124 37 31 20 13 2 0 0 0 0 0 0 0 0 0
0 0 0 0 0 0 0 0 0 0 0 1 68 187 340 654 742 647 856 756 970 732 322 191 168 130 155 137 172 71 37 22 41 27 8 0 13 10 0 0 0 0 0

GFSSE_con_mucape_036.txt.gz
CAPE
858 1383 2413 1923 1716 1787 1799 1770 1894 1679 1512 1057 867 551 241 39 10 2 0 0 27 68 74 52 57 19 6 1 0 0 0 3 20 23 27 15 2 0 0 9 16 0 13
921 1306 2341 2248 1791 2038 2158 2169 1789 1632 1620 1318 814 474 108 8 0 0 0 41 36 73 67 37 3 0 1 1 0 0 0 0 0 2 0 0 5 1 0 0 0 0 1
797 870 1450 2287 2156 2279 2240 2045 1772 1606 1658 1426 482 88 0 3 0 0 9 137 113 100 61 20 0 0 0 0 0 0 0 0 0 2 17 0 0 0 0 0 0 0 0
742 406 470 1660 2246 2249 2018 2162 1860 1728 1414 790 191 0 5 4 0 0 79 94 79 35 12 0 0 0 0 1 0 0 0 0 0 2 9 3 0 1 0 4 0 0 0
639 321 636 1154 1381 1352 1555 1681 1851 1571 868 613 304 3 3 0 0 54 72 16 1 0 0 0 0 0 2 2 0 0 0 0 0 1 0 0 0 3 23 161 10 93 242
453 441 693 965 993 321 627 1071 1418 1311 705 325 93 2 0 1 6 17 7 0 0 0 0 1 2 1 0 0 0 0 0 0 0 3 0 0 0 6 4 166 264 212 139
643 604 380 868 359 358 508 541 932 1506 652 257 50 0 1 5 9 11 2 0 0 0 5 7 1 0 0 0 0 0 0 0 0 0 0 0 0 0 0 58 144 77 43
632 466 187 434 123 518 367 447 1056 1258 616 226 45 0 4 5 3 4 0 0 0 33 48 0 0 0 0 0 0 0 0 0 0 0 0 0 0 0 0 79 88 48 12
445 284 146 147 264 366 243 203 820 980 701 251 81 65 73 36 5 3 14 5 21 54 47 0 0 0 0 0 0 0 0 0 0 0 0 0 0 0 0 115 61 13 4
385 345 195 156 158 99 137 217 140 633 468 197 128 81 26 22 31 58 58 101 91 148 9 0 0 0 0 0 0 0 0 0 0 0 0 28 91 34 78 83 47 23 16
476 347 190 157 30 18 18 136 258 242 219 144 86 38 15 0 0 8 10 31 67 225 18 0 0 0 0 0 0 0 0 0 0 0 1 121 98 92 69 35 15 9 0
719 486 281 150 56 40 64 113 100 252 201 106 44 19 5 0 0 0 6 85 251 143 0 0 0 0 0 0 0 0 0 0 0 0 6 92 18 28 20 9 5 2 0
567 680 527 288 109 93 102 95 121 374 269 113 66 59 19 1 15 8 9 63 70 18 0 0 0 0 0 0 0 0 0 0 0 0 0 16 12 7 4 1 0 0 0
925 642 578 643 290 114 130 122 51 58 112 151 137 127 63 13 24 20 23 16 85 33 3 0 0 0 0 0 0 0 0 0 0 0 0 0 10 1 1 1 1 0 0
560 812 1069 600 713 316 166 133 170 134 67 24 46 139 142 91 96 126 138 66 35 33 8 0 0 0 0 0 0 0 0 0 0 0 0 0 0 0 0 1 0 0 1
689 712 463 662 525 739 433 333 304 377 251 164 53 67 88 130 120 135 173 226 151 69 84 20 8 0 0 0 0 0 0 0 0 0 0 0 0 0 0 0 0 0 2
599 792 772 554 559 530 601 660 572 615 536 375 214 54 66 58 138 159 119 166 224 195 115 121 30 0 0 0 0 0 0 0 0 0 0 0 0 0 0 0 0 0 0
25 122 888 958 858 633 738 837 722 1164 698 653 380 202 110 106 94 84 53 129 149 256 301 147 44 0 0 0 0 0 0 0 0 0 0 0 0 0 0 0 0 0 0
0 0 0 83 1006 1039 891 864 1056 952 1089 876 754 595 362 256 194 121 71 64 198 162 239 155 60 45 0 0 0 0 0 0 0 0 0 0 0 0 0 0 0 0 0
0 0 0 0 0 0 798 1062 1056 883 814 1063 1072 906 714 501 427 248 207 103 196 172 233 183 105 80 17 0 0 0 0 0 0 0 0 0 0 0 0 0 0 0 0
0 0 0 0 0 0 0 5 983 916 688 592 691 1079 1007 769 619 523 310 253 126 235 233 190 127 59 45 25 7 0 0 0 0 0 0 0 0 0 0 0 0 0 0
0 0 0 0 0 0 0 0 0 758 658 545 389 485 666 960 879 790 597 487 277 246 342 267 119 124 130 50 35 16 0 0 0 0 0 0 0 0 0 0 0 0 0
0 0 0 0 0 0 0 0 0 0 139 442 361 390 441 457 670 1051 849 679 682 345 354 305 231 178 151 58 45 38 12 1 3 2 0 0 0 0 0 0 0 0 0
0 0 0 0 0 0 0 0 0 0 0 0 404 571 496 429 447 501 652 805 656 706 877 394 295 224 153 109 67 60 39 17 24 12 0 0 16 6 1 0 0 0 0
0 0 0 0 0 0 0 0 0 0 0 0 0 108 365 527 551 581 463 384 706 696 684 653 492 242 139 131 120 124 79 51 53 35 9 13 30 37 25 0 0 0 0
0 0 0 0 0 0 0 0 0 0 0 0 0 0 20 44 321 615 588 708 782 680 755 765 570 553 177 126 94 140 158 141 132 106 52 7 27 43 27 1 0 0 0

GFSSE_con_mucape_039.txt.gz
CAPE
1038 1552 2241 1942 2033 1894 1911 1846 1993 1789 1421 997 711 451 244 48 0 0 0 20 71 69 61 50 15 19 9 1 0 0 2 15 21 18 12 0 0 3 10 1 0 11 2
1136 1705 2132 2148 2053 2052 2186 1929 1898 1674 1483 1339 737 399 156 7 0 0 7 30 72 69 5 4 3 4 3 0 0 0 0 0 0 0 0 0 0 0 0 0 7 0 0
1208 1700 1809 2174 2302 2402 2293 1826 1805 1736 1543 1243 344 95 4 1 0 3 130 96 121 64 14 2 2 2 0 0 0 0 0 0 0 8 0 0 0 0 0 0 0 1 0
1135 1359 1644 2300 2402 2392 2175 1894 1719 1729 1376 798 188 0 5 0 0 127 244 231 83 13 0 0 0 0 0 0 0 0 0 0 0 2 0 0 0 5 60 0 0 15 0
490 632 1378 2269 2182 2138 2281 1893 1670 1261 1017 509 149 0 0 0 9 114 50 20 1 0 0 0 0 2 1 0 0 0 0 0 0 0 0 0 0 7 154 65 140 200 236
420 407 866 1248 1407 1494 1699 1766 1328 1135 447 124 38 0 0 3 20 44 8 0 0 0 0 1 2 1 0 0 0 0 0 0 0 0 0 0 0 2 152 203 155 191 218
416 277 331 908 843 910 1176 1281 1188 1173 505 123 4 0 2 9 11 8 1 0 1 0 2 1 0 0 0 0 0 0 0 0 0 0 0 0 0 0 3 109 93 64 40
450 499 307 313 146 607 688 852 1255 1094 629 79 29 0 3 9 11 8 0 0 0 4 7 0 0 0 0 0 0 0 0 0 0 0 0 0 0 0 0 95 66 11 5
567 442 258 50 97 264 273 346 961 906 531 138 80 79 62 16 23 30 2 0 26 93 1 0 0 0 0 0 0 0 0 0 0 0 0 0 0 0 89 103 36 9 5
400 247 66 64 73 78 78 129 523 568 302 126 119 104 46 32 54 83 88 97 116 163 0 0 0 0 0 0 0 0 0 0 0 0 0 35 33 2 100 65 44 23 2
394 303 108 78 70 57 60 89 114 282 147 110 68 29 21 11 21 41 43 97 150 151 1 0 0 0 0 0 0 0 0 0 0 0 10 165 193 139 86 32 24 6 3
420 302 209 105 34 14 25 73 67 160 104 51 22 18 4 1 8 15 25 43 108 114 19 0 0 0 0 0 0 0 0 0 0 0 19 194 117 89 34 23 18 6 0
560 540 243 144 88 44 64 37 44 94 121 73 35 16 16 0 0 6 20 99 130 72 18 1 0 0 0 0 0 0 0 0 0 0 1 104 0 8 11 3 2 2 0
674 589 469 385 93 56 98 73 35 146 111 105 51 37 22 0 0 8 9 38 69 57 23 6 0 0 0 0 0 0 0 0 0 0 0 6 0 1 4 5 2 2 2
357 644 487 484 519 102 128 84 67 133 255 155 77 86 74 13 0 6 16 13 29 33 22 9 1 0 0 0 0 0 0 0 0 0 0 0 0 0 0 2 2 5 1
535 392 393 474 567 535 182 115 98 126 116 117 94 101 99 75 59 0 34 44 60 67 50 31 18 2 0 0 0 0 0 0 0 0 0 0 0 0 0 0 1 5 1
586 583 536 389 590 585 587 364 198 223 217 212 239 93 57 81 89 102 114 107 104 116 58 27 36 13 8 0 0 0 0 0 0 0 0 0 0 0 0 0 0 5 4
510 695 664 635 506 485 676 546 540 489 421 639 203 281 153 36 37 87 128 148 169 240 152 81 40 65 0 0 0 0 0 0 0 0 0 0 0 0 0 0 0 0 3
0 588 778 784 837 709 529 482 587 619 562 428 577 448 279 193 116 61 101 153 141 195 297 258 169 65 58 0 0 0 0 0 0 0 0 0 0 0 0 0 0 0 0
0 0 0 151 842 824 846 696 661 922 732 854 848 764 626 431 291 256 241 137 110 155 166 332 276 148 100 20 26 20 0 0 0 0 0 0 0 0 0 0 0 0 0
0 0 0 0 0 0 343 882 842 847 933 755 739 871 824 727 626 530 286 243 197 162 194 228 221 198 190 114 25 23 0 0 0 0 0 0 0 0 0 0 0 0 0
0 0 0 0 0 0 0 0 43 721 907 910 672 439 341 537 701 509 425 491 277 244 217 257 271 207 194 121 138 80 3 1 0 3 0 0 0 0 0 0 0 0 0
0 0 0 0 0 0 0 0 0 0 86 299 479 478 430 312 264 252 341 345 453 450 308 234 207 202 216 139 79 86 25 6 18 20 10 8 16 1 0 0 0 0 0
0 0 0 0 0 0 0 0 0 0 0 0 11 235 348 333 335 306 213 211 388 467 438 488 496 303 418 196 109 95 90 43 49 22 39 39 40 30 4 0 19 7 0
0 0 0 0 0 0 0 0 0 0 0 0 0 0 0 184 463 473 415 376 323 297 466 535 444 445 412 324 267 171 77 78 42 38 39 46 42 60 43 22 18 14 20
0 0 0 0 0 0 0 0 0 0 0 0 0 0 0 0 0 200 366 486 553 258 272 366 462 452 464 463 393 427 285 189 137 62 48 64 78 97 102 39 17 32 20

GFSSE_con_mucape_042.txt.gz
CAPE
964 1732 2295 2269 1784 2020 2095 1857 1876 1688 1308 969 704 453 201 7 0 0 20 129 107 80 36 16 16 18 3 2 1 1 4 2 2 0 0 0 7 16 4 7 15 0 1
1156 1656 2162 2458 2117 2064 2247 2011 1947 1694 1479 1150 646 314 36 0 0 1 26 118 45 5 5 5 5 3 0 0 0 0 1 0 0 0 0 0 0 0 2 1 0 0 0
1348 1664 1854 2304 2364 2388 2077 1659 1834 1668 1549 1157 343 199 1 0 0 62 57 134 69 7 3 3 3 0 0 0 0 0 0 0 0 0 0 0 0 0 0 0 0 0 0
1381 1568 1654 2310 2438 2281 2095 1878 1869 1563 1072 799 224 64 0 0 217 210 221 170 27 2 0 0 0 0 0 0 0 0 0 0 0 0 0 0 0 19 2 0 1 0 169
1285 1460 1765 2299 2459 2194 1996 1833 2062 1556 576 461 96 0 0 0 350 275 186 18 0 0 0 0 0 0 0 0 0 0 0 0 0 0 0 0 0 42 58 106 107 240 364
812 1171 1967 2155 2215 2183 1888 1923 1689 1075 302 76 9 0 0 59 167 76 5 0 0 0 0 1 1 0 0 0 0 0 0 0 0 0 0 0 0 98 168 165 184 186 156
691 956 1149 1599 1865 1926 1840 1462 1343 1048 408 79 3 0 4 53 90 50 0 0 0 1 1 1 0 0 0 0 0 0 0 0 0 0 0 0 0 0 138 114 57 49 47
381 380 383 734 1060 1129 1134 1253 1322 1035 386 59 18 5 4 6 8 30 29 19 1 2 1 0 0 0 0 0 0 0 0 0 0 0 0 0 0 0 99 72 12 11 3
320 281 129 88 222 578 595 974 1114 909 413 169 76 74 74 37 21 14 21 36 43 58 0 0 0 0 0 0 0 0 0 0 0 0 0 0 0 0 87 65 16 11 8
568 474 334 87 53 48 84 500 699 638 318 149 114 94 35 34 79 68 73 100 146 87 0 0 0 0 0 0 0 0 0 0 0 0 0 0 20 55 101 54 23 19 7
413 242 124 33 38 37 39 132 435 319 140 96 88 42 17 11 43 66 53 102 162 90 3 0 0 0 0 0 0 0 0 0 0 0 20 165 80 149 81 67 27 19 5
396 234 58 42 47 44 50 47 181 121 68 56 36 16 8 12 38 45 63 93 163 90 37 1 0 0 0 0 0 0 0 0 0 1 60 304 223 185 72 42 23 9 4
422 266 180 81 56 54 45 37 34 128 69 54 31 13 11 2 20 32 39 76 82 90 42 16 0 0 0 0 0 0 0 0 0 4 75 226 178 95 22 13 4 3 1
460 348 241 121 51 26 21 28 24 55 81 56 35 13 8 0 0 13 24 38 83 87 47 27 5 0 0 0 0 0 0 0 0 0 26 77 105 0 4 8 4 5 1
628 539 304 163 61 36 50 47 25 0 61 62 34 24 7 1 0 0 9 21 61 65 42 18 0 0 0 0 0 0 0 0 0 0 0 0 52 27 1 6 5 7 6
736 671 526 438 293 48 60 105 75 39 35 38 82 30 43 57 29 26 25 19 47 48 41 31 0 0 0 0 0 0 0 0 0 0 0 0 1 29 0 0 2 0 8
444 261 547 493 486 418 119 113 114 103 105 130 104 140 109 79 81 59 52 48 67 68 49 54 48 31 15 8 12 0 0 0 0 0 0 0 0 0 0 0 0 0 0
521 472 419 348 478 496 512 282 139 149 161 246 230 130 191 183 78 72 92 101 102 106 84 67 54 22 31 31 21 0 0 0 0 0 0 0 0 0 0 0 0 0 0
472 534 569 611 514 389 571 533 483 414 446 357 333 214 187 240 174 88 98 82 82 128 140 130 126 87 75 0 11 37 0 0 0 0 0 0 0 0 0 0 0 0 0
0 54 501 662 655 662 577 420 499 535 482 558 433 388 492 478 350 250 183 156 136 156 178 195 253 222 233 158 109 126 33 0 5 0 0 0 0 0 0 0 0 0 0
0 0 0 0 185 486 674 684 592 518 506 618 600 707 663 540 462 274 201 215 212 233 201 168 199 294 247 249 181 118 42 30 9 17 9 0 0 0 0 0 0 0 0
0 0 0 0 0 0 0 0 240 586 706 674 743 552 449 508 543 522 441 316 288 186 235 202 220 204 240 300 242 120 47 0 1 52 25 20 15 17 11 15 12 0 0
0 0 0 0 0 0 0 0 0 0 0 70 151 292 278 334 373 287 228 200 186 177 165 234 224 261 214 173 108 83 26 0 1 4 15 19 19 14 30 33 45 29 0
0 0 0 0 0 0 0 0 0 0 0 0 0 0 0 5 30 108 161 160 118 148 209 202 208 230 276 224 171 142 137 89 62 3 0 15 31 23 21 34 35 47 2
0 0 0 0 0 0 0 0 0 0 0 0 0 0 0 0 0 0 40 290 233 162 120 106 121 260 240 201 159 202 186 144 115 158 112 35 71 62 44 34 41 56 77
0 0 0 0 0 0 0 0 0 0 0 0 0 0 0 0 0 0 0 57 221 193 122 65 85 88 73 70 103 258 258 175 67 132 134 44 5 21 47 124 86 56 75

GFSSE_con_mucape_045.txt.gz
CAPE
401 996 2128 2149 1755 1627 1622 1633 1658 1584 1339 867 617 341 73 0 0 0 166 175 99 28 27 24 14 6 1 0 4 0 0 0 0 0 0 5 14 4 7 5 0 0 0
979 1389 2171 2077 1904 2045 2159 2020 1648 1477 1363 842 558 183 15 0 0 11 163 20 1 2 2 3 2 0 0 0 1 0 0 0 0 0 0 0 0 2 1 0 0 0 0
1223 1512 1919 2293 2291 2401 2133 1778 1679 1510 1331 944 274 83 0 0 2 26 194 9 7 5 3 2 1 0 0 0 1 1 1 0 0 0 0 0 1 0 0 0 0 0 0
1274 1561 1812 2384 2488 2201 1912 1840 1665 1296 827 470 273 4 0 8 161 148 264 55 6 1 0 0 0 0 0 0 0 0 0 0 0 0 0 0 0 21 0 0 1 49 168
1153 1396 1607 2327 2367 2149 1894 1880 1571 1147 601 381 135 0 0 366 288 335 366 26 0 0 0 0 0 0 0 0 0 0 0 0 0 0 0 0 1 99 62 121 147 314 286
1246 1326 1675 2209 2303 2119 1963 2040 1673 754 332 102 26 0 0 493 577 261 57 0 0 0 0 0 0 0 0 0 0 0 0 0 0 0 0 0 2 169 220 193 158 127 108
1164 1411 1764 2359 2192 2065 1923 2048 1494 853 322 84 3 0 94 210 186 72 0 0 0 0 0 0 0 0 0 0 0 0 0 0 0 0 0 0 0 76 159 113 58 42 36
858 1146 1354 1777 2046 1884 1927 1535 1240 980 341 51 13 8 55 110 118 51 32 7 1 2 1 0 0 0 0 0 0 0 0 0 0 0 0 0 0 2 118 46 0 2 3
723 769 414 537 702 853 1178 1256 1161 885 475 160 95 83 74 52 21 22 53 43 33 31 0 0 0 0 0 0 0 0 0 0 0 0 0 0 0 0 90 47 11 13 4
595 495 367 143 149 320 546 748 777 562 368 169 113 83 41 40 57 83 90 106 109 66 0 0 0 0 0 0 0 0 0 0 0 0 0 0 0 30 138 35 24 13 4
525 458 340 180 36 147 135 400 472 268 149 96 68 26 11 20 38 50 31 68 169 94 8 0 0 0 0 0 0 0 0 0 0 0 0 11 41 202 138 88 26 30 6
531 341 210 126 32 54 54 163 310 113 62 43 30 12 0 7 29 36 40 62 117 88 56 10 0 0 0 0 0 0 0 0 0 0 11 188 173 210 159 103 11 24 7
425 239 145 53 42 28 44 59 234 133 64 42 22 0 0 0 22 33 38 68 84 107 66 40 4 0 0 0 0 0 0 0 0 0 35 231 307 252 156 15 6 9 2
445 263 147 52 46 46 38 31 54 118 59 48 17 12 3 0 0 12 18 46 61 79 57 34 18 3 0 0 0 0 0 0 0 1 35 131 319 160 40 0 4 5 1
503 394 243 138 63 56 55 29 25 46 73 56 28 0 0 0 0 0 0 10 21 29 47 34 17 0 0 0 0 0 0 0 0 0 16 52 72 164 36 19 10 11 0
613 549 384 273 99 54 37 47 30 17 30 53 40 1 0 0 10 0 0 0 0 18 41 35 31 6 0 0 0 0 0 0 0 0 0 0 4 92 105 20 9 10 5
850 702 575 369 223 109 56 64 75 63 39 18 2 0 61 7 14 25 18 28 44 37 53 54 49 27 15 0 0 0 0 0 0 0 0 0 0 15 74 18 7 6 11
351 808 657 655 531 400 171 87 88 75 74 78 107 93 138 144 145 50 28 35 47 59 52 46 59 57 26 17 16 24 20 8 0 0 0 0 0 0 0 68 70 4 7
388 446 417 353 388 541 447 306 182 130 126 128 147 258 232 141 127 167 147 86 69 46 31 47 91 101 97 78 60 55 37 45 26 11 0 0 0 0 0 0 0 14 12
369 408 552 523 548 457 425 408 505 433 337 368 394 385 372 258 311 312 318 220 164 136 128 122 97 152 162 167 141 143 103 51 1 1 2 5 15 12 10 3 0 0 0
0 0 154 352 526 599 590 571 454 488 515 567 550 519 553 399 342 369 295 203 129 123 164 189 156 136 178 202 123 70 75 83 75 72 42 8 1 71 31 29 19 14 3
0 0 0 0 0 0 45 358 602 672 620 578 545 537 590 590 511 399 320 226 202 170 162 162 164 115 124 146 119 88 18 0 0 1 31 6 5 35 25 40 18 18 32
0 0 0 0 0 0 0 0 0 0 0 0 189 390 450 535 546 340 348 348 249 177 136 147 115 138 155 147 181 91 39 4 1 2 1 0 11 34 25 36 34 30 36
0 0 0 0 0 0 0 0 0 0 0 0 0 0 0 0 0 0 8 34 107 124 101 70 64 127 163 62 43 54 107 87 45 29 23 17 12 62 25 49 53 28 37
0 0 0 0 0 0 0 0 0 0 0 0 0 0 0 0 0 0 0 0 0 160 180 118 93 80 52 45 39 37 174 46 30 5 4 3 7 5 17 21 0 25 35
0 0 0 0 0 0 0 0 0 0 0 0 0 0 0 0 0 0 0 0 0 1 127 117 72 47 63 65 58 34 49 48 42 29 25 17 17 6 10 27 0 1 0

GFSSE_con_mucape_048.txt.gz
CAPE
318 1025 2247 1896 1681 1695 1658 1526 1552 1526 1036 778 431 156 52 0 0 160 117 105 16 12 19 11 6 4 4 4 3 0 0 0 0 0 0 6 1 4 3 0 0 0 32
443 1177 2200 2131 1785 1810 2018 1960 1891 1540 1275 596 334 91 0 0 1 231 37 1 0 0 2 8 8 2 0 3 2 0 0 0 0 0 0 0 0 1 0 0 0 0 51
827 1138 1766 2182 2222 2261 2242 1535 1398 1306 1269 780 130 43 0 0 15 302 2 3 3 1 2 3 1 1 0 3 2 0 0 0 0 0 0 0 0 0 0 0 0 0 0
1157 1493 1604 2337 2454 2364 2134 1740 1563 1210 814 335 149 1 0 2 79 385 116 8 3 0 0 0 0 0 0 0 0 0 0 0 0 0 0 0 5 0 0 2 115 128 59
1212 1562 1812 2417 2384 2163 2044 1917 1534 986 621 397 69 0 26 333 279 462 160 17 0 0 0 0 0 0 0 0 0 0 0 0 0 0 0 0 50 5 125 167 191 250 179
1186 1503 2044 2371 2282 2060 1987 1857 1518 827 572 213 8 0 407 726 734 493 71 0 0 0 0 1 0 0 0 0 0 0 0 0 0 0 0 0 37 230 252 149 127 87 46
1016 1367 1916 2296 2197 2068 2030 1872 1406 765 302 64 3 4 499 691 413 119 28 0 0 0 2 0 0 0 0 0 0 0 0 0 0 0 0 0 0 205 172 93 44 3 1
986 1295 1541 2067 2046 1920 1925 1677 1258 878 313 36 33 92 325 386 159 72 37 14 0 1 0 0 0 0 0 0 0 0 0 0 0 0 0 0 0 13 130 5 0 0 3
1036 1173 1444 1498 1568 1476 1570 1350 1151 912 380 71 64 188 177 110 134 91 71 39 24 34 3 0 0 0 0 0 0 0 0 0 0 0 0 0 0 0 100 35 0 10 5
774 873 805 857 992 1011 1150 968 840 646 367 174 105 89 43 41 53 66 96 95 69 36 4 0 0 0 0 0 0 0 0 0 0 0 0 0 0 0 144 16 12 10 12
721 437 267 200 448 474 621 597 471 291 130 74 57 33 26 24 40 50 36 50 129 66 11 0 0 0 0 0 0 0 0 0 0 0 0 2 51 128 180 89 18 24 22
638 494 349 210 71 285 286 350 243 75 61 44 18 11 4 14 36 33 23 40 89 80 30 4 0 0 0 0 0 0 0 0 0 0 0 56 132 226 212 131 11 5 5
554 456 309 203 108 67 189 164 144 63 60 40 20 0 0 0 13 23 13 23 44 80 46 34 7 0 0 0 0 0 0 0 0 0 4 72 351 385 206 48 1 0 4
577 403 237 140 51 26 49 61 192 133 64 40 18 0 0 0 0 4 3 13 33 42 56 25 9 3 0 0 0 0 0 0 0 0 0 29 267 242 177 1 0 0 0
572 378 214 99 33 34 25 26 53 132 72 40 26 0 0 0 0 0 0 0 10 18 15 10 0 0 0 0 0 0 0 0 0 0 0 0 49 214 159 48 35 5 4
578 479 323 186 66 41 38 27 16 18 53 51 35 0 0 0 0 0 0 0 0 0 0 7 11 7 7 0 0 0 0 0 0 0 0 0 1 70 148 70 43 12 7
640 566 525 353 265 91 38 25 32 15 0 29 41 2 0 0 0 0 9 0 0 0 0 0 30 40 49 33 14 0 0 0 0 0 0 0 0 1 63 104 48 32 15
770 798 734 588 412 296 154 68 54 77 51 59 49 39 41 56 77 86 90 34 21 20 9 39 43 53 69 73 77 53 41 36 27 47 37 29 1 0 0 100 244 59 16
452 432 684 750 641 594 506 266 154 115 111 92 94 82 97 160 128 93 114 132 152 106 83 81 77 70 74 89 113 134 111 94 84 27 20 9 16 11 9 18 20 53 110
355 353 469 436 382 381 464 456 384 331 287 204 170 173 207 233 289 253 207 281 281 246 192 131 104 110 127 122 115 105 135 112 87 117 116 111 87 58 19 4 31 18 0
177 350 350 469 544 526 533 451 433 440 516 509 454 380 398 416 461 418 305 262 249 196 171 112 133 100 92 98 99 0 0 5 16 27 78 68 41 22 34 0 3 17 7
0 0 0 29 288 439 556 625 596 613 564 517 522 501 509 493 495 520 482 368 264 187 114 133 154 111 118 110 86 129 18 0 0 0 0 0 0 0 0 0 5 9 4
0 0 0 0 0 16 30 14 0 54 199 323 378 384 295 393 532 561 526 435 338 292 285 238 149 109 77 19 38 69 30 8 8 3 13 8 4 1 0 0 0 26 17
0 0 0 0 0 0 0 0 0 0 0 0 0 0 0 0 0 0 0 0 4 18 67 93 101 63 49 52 79 27 20 19 46 9 10 7 7 18 8 6 6 3 11
0 0 0 0 0 0 0 0 0 0 0 0 0 0 0 0 0 0 0 0 0 0 0 36 149 89 70 62 93 58 20 10 17 6 5 9 8 6 15 3 6 4 1
0 0 0 0 0 0 0 0 0 0 0 0 0 0 0 0 0 0 0 0 0 0 0 0 107 102 110 76 43 38 30 2 3 10 6 2 8 0 1 5 1 1 2

GFSSE_con_mucape_051.txt.gz
CAPE
330 1270 2235 2062 1919 1805 1792 1519 1360 811 834 505 335 219 41 93 194 201 161 49 10 11 12 7 8 33 66 7 0 0 0 0 0 0 0 2 2 0 0 0 0 14 171
396 1305 2171 2068 1986 2025 2035 1976 1684 1266 913 405 272 90 24 106 412 72 0 2 1 4 14 9 6 7 10 4 0 0 0 0 0 0 0 0 3 0 0 0 0 9 115
822 1188 1491 2019 2068 2181 2195 1749 1629 1397 1138 483 180 36 3 68 448 0 6 6 2 2 5 4 2 5 7 5 1 1 0 0 0 0 0 4 0 0 0 0 0 0 15
1069 1123 1355 2248 2251 2376 2068 1698 1599 1235 537 273 93 5 8 80 457 173 39 5 0 0 0 0 0 2 2 0 0 0 0 0 0 0 0 4 5 0 3 235 191 111 156
1146 1105 1715 2394 2457 2325 2062 1864 1566 1032 566 303 37 0 153 166 617 247 59 0 0 0 0 0 0 0 0 0 0 0 0 0 0 0 0 8 98 158 206 177 144 139 85
1234 1273 2017 2276 2365 2162 2067 1912 1417 837 605 189 0 47 618 399 664 293 25 0 0 1 2 0 0 0 0 0 0 0 0 0 0 0 0 0 74 201 172 97 45 3 0
1186 1550 1743 2279 2166 2071 1941 1788 1394 945 433 35 1 271 1045 937 550 139 17 0 0 1 1 0 0 0 0 0 0 0 0 0 0 0 0 0 0 207 149 42 7 0 0
1144 1784 1621 1992 2026 2004 1952 1555 1266 925 285 30 149 388 801 420 268 89 38 12 4 14 3 0 0 0 0 0 0 0 0 0 0 0 0 0 0 33 76 1 0 0 3
1264 1534 1622 1504 1467 1572 1586 1311 1106 901 351 121 403 573 377 507 170 82 63 28 17 29 2 0 0 0 0 0 0 0 0 0 0 0 0 0 0 0 80 8 2 1 7
1165 1133 1295 1454 1160 1228 1429 957 790 678 330 166 138 59 32 28 75 71 79 65 43 21 0 0 0 0 0 0 0 0 0 0 0 0 0 0 0 10 135 39 10 1 2
741 730 938 823 888 1079 1005 787 526 334 148 69 57 24 15 33 38 53 30 42 85 37 3 0 0 0 0 0 0 0 0 0 0 0 0 3 29 87 216 77 8 0 0
557 674 599 651 642 818 701 647 448 185 67 44 40 29 20 22 33 34 18 27 54 58 9 0 0 0 0 0 0 0 0 0 0 0 0 4 141 165 311 112 3 0 0
611 474 364 219 346 430 497 411 291 102 50 44 20 0 0 0 21 34 25 31 57 57 27 16 0 0 0 0 0 0 0 0 0 0 0 1 147 409 285 113 0 0 0
709 590 470 358 226 125 287 282 187 66 59 44 29 1 0 0 0 4 4 11 25 42 60 16 1 0 0 0 0 0 0 0 0 0 0 0 37 294 182 26 1 0 0
658 585 446 269 166 42 103 168 170 123 73 54 35 12 0 0 0 0 0 0 2 11 14 16 0 0 0 0 0 0 0 0 0 0 0 0 0 92 270 148 48 18 8
732 601 379 222 137 41 25 33 45 129 120 67 31 14 0 0 0 0 0 0 0 0 0 0 0 0 0 0 0 0 0 0 0 0 0 0 0 2 99 150 49 37 11
711 582 405 242 147 64 48 40 35 31 35 63 42 36 0 0 0 0 0 0 0 0 0 0 0 0 0 0 23 24 18 10 0 0 0 17 10 0 0 106 105 58 30
701 638 533 479 355 279 106 51 33 36 28 33 38 36 22 2 32 49 43 48 37 7 0 0 0 0 0 4 27 48 60 80 79 78 62 32 1 0 0 6 166 172 78
674 720 699 730 662 473 363 253 150 80 74 89 70 57 54 53 75 100 98 91 85 82 101 93 69 33 43 39 50 63 74 83 88 84 91 96 57 46 38 25 2 115 269
517 585 624 630 749 653 587 551 399 242 198 167 143 117 92 102 133 154 233 260 157 167 199 187 132 74 35 42 38 38 53 66 34 10 43 72 121 105 66 45 22 1 1
239 317 337 475 516 434 428 443 484 457 399 383 384 325 287 236 266 308 351 401 336 223 171 118 85 61 21 44 34 0 0 0 0 0 0 0 0 0 0 0 0 0 0
0 164 300 358 489 572 554 561 548 491 490 461 425 455 488 494 470 450 441 459 491 408 332 205 108 62 78 129 46 20 5 0 0 0 0 0 0 0 0 0 0 0 0
0 0 4 0 47 282 431 478 536 590 565 471 494 527 502 461 423 410 437 470 443 401 354 338 264 208 148 34 1 5 8 3 3 0 0 2 0 2 2 2 2 0 4
0 0 0 0 0 0 1 11 20 1 0 0 0 0 0 0 0 0 0 0 2 1 0 4 55 71 63 17 2 8 1 10 22 3 3 3 5 3 0 0 0 0 0
0 0 0 0 0 0 0 0 0 0 0 0 0 0 0 0 0 0 0 0 0 0 0 2 3 1 90 86 20 33 20 11 2 2 0 3 2 0 0 0 0 0 1
0 0 0 0 0 0 0 0 0 0 0 0 0 0 0 0 0 0 0 0 0 0 1 0 2 2 81 100 73 28 12 3 0 5 3 3 4 2 0 0 0 0 0

GFSSE_con_mucape_054.txt.gz
CAPE
807 1256 2475 2072 1754 1617 1646 1558 1413 1146 775 512 384 105 281 275 410 238 120 61 11 13 9 59 213 202 13 3 0 0 0 0 0 0 0 1 0 0 0 0 46 54 4
619 876 2311 2453 2111 2032 2020 1747 1413 1079 930 533 285 90 398 530 208 7 3 1 3 16 15 7 24 10 11 3 0 0 0 0 0 0 0 0 0 0 0 0 1 101 102
730 703 1174 2424 2387 2206 2057 1729 1419 1069 906 337 150 67 386 476 22 58 8 1 4 11 6 10 11 6 9 4 1 0 0 0 0 0 0 2 0 0 36 0 0 0 67
810 756 861 2273 2375 2330 2049 1665 1545 801 472 246 86 41 192 558 234 102 4 0 1 2 1 2 6 3 0 0 0 0 0 0 0 0 12 17 11 74 292 224 119 162 134
860 707 1197 2145 2430 2246 1883 1740 1308 704 467 156 32 59 152 716 418 130 0 0 0 0 0 0 0 0 0 0 0 0 0 0 0 0 13 101 92 214 207 127 69 15 10
812 751 1769 2357 2402 2202 1931 1866 1182 765 485 100 5 229 286 875 537 67 0 0 0 0 0 0 0 0 0 0 0 0 0 0 0 0 0 2 216 175 106 2 0 0 1
713 1250 1474 2337 2385 2232 2090 1755 1362 773 295 23 69 612 573 940 444 78 1 0 0 0 0 0 0 0 0 0 0 0 0 0 0 0 0 0 5 172 50 0 0 0 3
848 1218 1449 1857 2100 2061 1878 1559 1365 704 179 14 261 1222 1386 603 283 83 28 0 18 14 0 0 0 0 4 0 0 6 0 0 0 0 0 0 0 80 18 0 0 1 3
1037 1087 1631 1359 1420 1675 1476 1338 1162 773 234 145 511 584 784 624 246 81 48 25 41 24 0 0 0 4 1 0 0 0 0 0 0 0 0 0 0 5 64 3 0 0 0
1576 1464 1196 1278 991 1148 1309 876 820 712 330 413 459 110 70 112 157 119 78 55 50 8 0 0 0 0 0 0 0 0 0 0 0 0 0 0 0 21 123 26 0 0 0
1192 1322 1008 1170 880 1079 1422 638 487 352 162 115 63 19 35 37 43 44 25 39 52 9 0 0 0 0 0 0 0 0 0 0 0 0 0 0 28 103 219 43 0 0 0
913 979 966 973 818 967 1209 663 521 183 180 108 42 9 0 0 8 23 16 18 39 31 0 0 0 0 0 0 0 0 0 0 0 0 0 0 42 196 302 106 0 0 0
610 693 942 1124 997 1038 916 750 463 441 316 237 81 34 0 0 1 10 10 2 21 20 43 9 1 0 0 0 0 0 0 0 0 0 0 0 11 222 313 158 0 0 0
687 736 763 736 897 920 944 845 577 443 304 302 146 48 7 0 0 0 0 0 0 13 28 28 6 0 0 0 0 0 0 0 0 0 0 0 0 73 321 60 0 0 0
1007 948 817 636 579 619 775 745 614 503 339 279 208 74 34 10 0 0 0 0 0 0 0 11 13 0 0 0 0 0 0 0 0 0 0 0 0 0 117 254 142 44 3
1028 1055 925 696 602 463 430 570 734 637 452 340 228 139 58 37 24 0 0 0 0 0 0 0 5 16 18 7 11 0 0 0 0 0 0 0 0 0 4 100 120 57 64
828 811 814 651 498 411 296 334 382 425 433 321 256 176 99 61 52 20 25 0 0 0 0 0 0 1 15 19 19 21 0 12 0 19 18 24 21 0 0 1 80 98 73
782 731 645 483 465 411 308 260 190 184 225 233 266 265 158 74 66 80 77 72 37 0 0 0 0 38 63 94 95 109 120 63 54 50 31 23 27 30 13 1 0 108 134
795 681 625 606 554 500 503 383 339 276 317 343 334 322 295 230 141 144 183 186 146 94 36 53 63 64 119 208 195 140 141 138 71 42 58 17 1 58 63 46 33 16 157
775 740 617 672 756 822 744 605 460 407 355 328 350 325 247 251 227 262 306 367 367 329 241 196 142 111 101 181 128 56 112 93 65 51 4 0 0 0 0 43 40 8 0
278 627 620 612 900 982 990 906 936 887 693 541 442 374 320 312 250 270 409 387 422 363 317 281 223 234 276 172 10 26 120 3 37 2 0 0 0 0 0 0 0 0 0
30 231 380 523 749 916 935 947 972 1019 999 991 902 824 758 731 661 584 544 524 457 373 367 341 259 166 121 96 79 51 12 2 8 0 0 0 0 0 0 0 0 0 0
0 0 229 343 470 528 587 565 558 575 574 588 544 492 477 462 453 435 433 424 406 448 610 561 342 260 167 159 110 77 21 6 11 11 0 0 0 0 0 0 0 0 0
0 0 0 12 52 215 465 528 483 371 303 386 128 9 0 0 0 0 0 0 0 1 15 17 74 168 124 123 7 3 3 25 24 8 2 0 0 0 0 0 0 0 0
0 0 0 0 0 0 0 0 0 0 0 0 0 0 0 0 0 0 0 0 0 0 0 0 0 2 4 55 5 22 7 4 24 30 9 11 1 0 2 0 0 0 0
0 0 0 0 0 0 0 0 0 0 0 0 0 0 0 0 0 0 0 0 0 0 1 1 3 2 4 17 16 160 27 7 0 0 0 3 1 2 5 1 0 0 0

GFSSE_con_mucape_057.txt.gz
CAPE
1088 1479 2313 1880 1373 1620 1461 1200 1080 953 802 438 223 188 167 463 278 114 43 24 47 31 212 397 125 9 4 0 0 0 0 0 0 0 0 0 0 0 0 18 222 19 28
997 1253 2295 2257 1846 1895 1836 1151 1264 1180 964 530 168 377 528 182 4 1 1 4 18 10 100 117 14 12 5 2 1 0 0 0 0 0 0 0 0 0 0 0 5 4 157
823 1169 1643 2422 2256 2156 1910 1585 1316 1065 713 320 126 384 240 81 74 4 1 6 13 8 43 88 9 12 6 2 1 0 0 0 0 0 12 2 10 274 56 2 141 191 158
626 945 1278 2550 2325 2250 1825 1409 1147 676 393 230 83 341 452 244 56 2 0 2 4 5 8 6 5 2 2 0 0 0 0 0 0 1 18 32 94 248 244 152 43 5 10
556 757 1719 2368 2469 2141 1758 1396 906 567 332 124 66 198 824 582 155 0 0 0 0 0 3 4 1 0 0 0 0 0 0 0 0 1 50 101 85 147 41 3 2 3 2
566 713 1611 2388 2415 2091 1840 1560 898 617 206 45 92 207 804 757 138 0 0 0 0 0 0 0 0 0 0 0 0 0 0 0 0 0 0 98 123 92 9 1 1 2 2
566 1417 1300 2439 2212 2079 1933 1626 1116 593 90 28 305 673 877 608 148 6 0 2 1 0 0 0 0 0 0 0 0 0 0 0 0 0 0 0 1 59 1 0 0 1 2
685 1138 1115 1988 2072 1894 1768 1518 1177 441 20 74 539 927 1169 542 232 43 8 21 17 0 0 0 0 0 0 0 0 0 0 0 0 0 0 0 1 85 4 0 0 0 0
928 863 1217 1482 1415 1564 1402 1330 1096 510 78 185 708 1077 843 646 217 56 26 30 31 13 0 0 0 0 0 0 0 0 0 0 0 0 0 0 0 26 24 0 0 0 0
786 1175 1364 1058 1044 1098 1031 851 773 515 282 779 329 227 166 186 213 104 49 52 33 0 0 0 0 0 0 0 0 0 0 0 0 0 0 0 0 25 91 8 0 0 0
1319 997 1201 1079 808 886 835 482 427 199 134 221 71 50 39 38 53 33 36 58 38 4 0 0 0 0 0 0 0 0 0 0 0 0 0 0 13 58 266 45 0 0 0
1295 1402 1103 1223 656 1300 1028 455 554 173 89 26 0 8 3 0 3 18 17 17 50 15 0 0 0 0 0 0 0 0 0 0 0 0 0 0 0 71 247 129 0 0 0
801 1084 900 1222 751 1490 1099 694 532 239 270 238 55 3 0 0 0 0 6 0 6 12 28 2 0 0 0 0 0 0 0 0 0 0 0 0 0 0 306 255 0 0 0
668 634 590 857 991 934 912 716 516 332 220 280 210 61 5 0 0 0 0 0 0 10 17 18 1 0 0 0 0 0 0 0 0 0 0 0 0 0 85 131 0 0 0
804 658 592 805 781 774 845 825 532 491 240 206 206 122 41 11 0 0 0 0 0 0 0 0 5 0 0 1 0 0 0 0 0 0 0 0 0 0 0 62 185 94 12
1257 1102 961 606 796 948 715 885 756 769 322 184 177 172 84 52 30 0 0 0 0 0 0 0 1 28 33 29 27 2 2 0 0 0 0 0 0 0 0 0 10 10 55
1053 990 968 858 833 825 576 493 518 610 317 216 172 158 111 81 69 42 42 45 5 0 0 0 1 24 40 36 31 45 34 30 42 31 0 0 0 0 0 0 0 0 26
1095 1078 972 769 587 415 278 293 247 266 238 262 269 279 162 78 138 188 182 180 150 98 64 49 35 61 85 126 132 171 210 91 80 110 125 112 32 0 0 0 0 0 5
968 1004 1023 884 684 593 467 382 274 184 275 321 364 402 394 296 209 249 294 336 324 317 245 182 197 187 239 273 245 187 163 158 136 72 75 85 86 16 0 0 0 11 13
869 941 1008 954 761 691 693 642 569 490 424 428 478 511 480 480 457 444 419 331 534 597 398 410 465 367 307 238 141 112 205 189 155 105 48 8 4 2 0 0 0 0 0
730 951 1007 1008 932 847 999 920 898 819 706 618 557 501 499 504 495 549 648 453 399 506 626 391 417 290 335 251 108 32 126 100 42 7 24 7 0 0 0 0 0 0 0
150 722 941 970 963 1063 1098 1118 1154 1182 1056 1015 1059 805 850 812 797 1055 884 903 870 620 634 668 596 321 296 210 89 165 9 0 26 19 0 0 0 0 0 0 0 0 0
57 167 554 710 765 899 1064 1077 932 870 828 713 901 801 987 498 468 414 413 951 396 715 478 728 573 376 303 80 53 61 36 4 19 21 14 0 0 0 0 0 0 0 0
13 21 17 243 402 557 729 755 653 544 620 498 307 134 237 157 37 21 3 0 0 3 15 3 8 20 57 20 8 6 17 41 27 11 6 3 5 0 8 13 0 0 0
0 0 0 0 40 229 400 518 536 505 309 136 57 0 0 0 0 0 0 0 0 0 0 0 0 0 10 4 5 26 29 25 15 29 10 6 0 0 0 10 0 0 0
0 0 0 0 0 0 1 8 17 10 0 0 0 0 0 0 0 0 0 0 0 0 0 0 1 0 3 8 6 21 35 12 14 6 2 12 0 0 0 4 0 0 0

GFSSE_con_mucape_060.txt.gz
CAPE
1275 1690 2156 1988 1645 1569 1344 1141 888 939 862 304 235 305 510 219 47 14 6 88 489 422 270 64 26 4 1 0 0 0 0 0 0 0 0 0 0 1 32 40 32 64 136
1161 1474 2034 1994 1933 1726 1657 1284 1269 1147 1021 414 462 589 89 13 2 3 8 17 26 216 159 10 13 10 4 0 0 0 0 0 0 0 0 0 21 0 0 79 299 146 135
1065 1419 1745 2135 1963 1867 1682 1443 1312 1143 822 503 465 94 136 10 3 3 9 11 23 130 70 7 13 5 2 0 0 0 0 0 0 1 7 27 112 62 228 147 152 22 15
1088 1111 1469 2299 1999 1955 1641 1447 1147 632 270 224 495 412 180 20 0 1 4 7 10 10 6 9 5 1 0 0 0 0 0 0 1 21 23 15 78 258 117 12 9 9 8
1003 932 1751 2265 2131 1888 1629 1340 733 344 186 94 522 970 585 108 0 0 0 1 3 7 4 3 1 0 0 0 0 0 0 0 0 21 20 19 17 13 7 2 1 2 3
675 1405 1924 2148 2050 1799 1553 1310 607 279 105 57 479 886 727 151 0 0 1 1 1 2 1 1 0 0 0 0 0 0 0 0 0 0 6 105 27 25 1 1 3 5 1
1198 1393 1869 2204 2075 1843 1647 1274 857 193 40 141 402 694 566 171 10 0 1 1 0 1 0 0 0 0 0 0 0 0 0 0 0 0 0 0 37 17 1 0 0 0 0
1151 1138 1543 1892 1891 1770 1592 1242 824 255 88 501 734 1083 539 246 72 0 0 0 0 0 0 0 0 0 0 0 0 0 0 0 0 0 0 0 39 38 13 0 0 0 0
1108 1044 1289 1386 1446 1425 1261 1070 692 207 281 801 1269 1213 785 447 137 29 20 30 19 5 0 0 0 0 0 0 0 0 0 0 0 0 0 0 0 63 24 0 0 0 0
849 820 1141 1077 1106 999 811 642 414 196 754 540 362 202 136 154 156 70 54 67 22 0 0 0 0 0 0 0 0 0 0 0 0 0 0 0 0 27 65 12 0 0 0
1042 1252 1280 1040 919 793 611 384 185 84 238 156 125 42 25 31 40 24 33 50 36 6 0 0 0 0 0 0 0 0 0 0 0 0 0 0 0 31 239 43 0 0 0
1050 1121 958 919 817 826 622 262 84 26 1 0 55 36 27 14 26 46 24 34 43 0 0 0 0 0 0 0 0 0 0 0 0 0 0 0 0 0 141 197 1 0 0
1013 1029 1111 949 774 907 616 381 328 99 100 55 6 0 0 0 0 9 0 0 1 2 0 9 0 0 0 0 0 0 0 0 0 0 0 0 0 0 82 315 0 0 0
1012 877 1050 758 1088 1049 797 589 378 152 191 120 139 17 0 0 0 0 0 0 0 0 0 11 0 0 0 0 0 0 0 0 0 0 0 0 0 0 0 147 27 0 0
852 870 864 694 667 925 826 628 430 228 238 204 173 81 25 1 0 0 0 0 0 0 0 0 0 0 0 0 0 0 0 0 0 0 0 0 0 0 0 0 179 73 22
680 523 760 757 658 757 793 692 497 415 361 132 168 126 68 22 4 0 0 0 0 0 0 0 0 0 0 0 1 0 0 0 0 0 0 0 0 0 0 0 0 2 29
1005 687 545 817 551 544 890 855 597 507 340 203 148 130 93 40 22 10 0 0 0 0 0 0 0 0 0 0 0 0 4 11 9 8 6 1 3 0 0 0 0 0 13
967 946 773 759 808 675 641 618 578 505 404 216 147 153 115 53 31 60 39 54 59 29 7 0 0 0 1 4 2 10 53 23 38 43 39 38 42 14 11 1 0 0 0
927 965 934 752 605 395 356 210 232 288 249 163 201 251 243 151 61 148 222 257 257 201 251 162 273 80 353 133 115 23 64 3 26 24 0 0 0 13 16 10 0 0 0
837 1000 986 934 723 592 481 362 245 274 206 243 302 340 373 387 340 263 284 286 485 556 676 371 340 130 127 91 61 82 61 59 42 39 0 0 9 0 0 0 0 0 0
799 876 1002 939 808 667 600 548 517 426 417 386 414 498 459 484 501 441 441 270 591 401 463 304 303 147 13 120 43 37 55 25 17 0 0 13 4 0 0 0 0 0 0
366 885 1032 1034 931 852 857 805 719 618 635 604 625 551 565 585 631 934 711 759 820 790 634 425 418 387 331 160 55 43 9 0 0 0 3 7 0 0 0 0 0 0 0
24 415 980 1030 1022 1006 1014 942 916 947 938 898 897 849 793 785 772 529 465 394 547 531 612 282 410 193 109 84 57 35 7 4 0 1 11 0 0 0 0 0 0 0 0
21 21 402 741 880 968 1085 1076 880 841 824 696 677 728 520 431 338 327 206 44 6 0 12 9 0 0 10 7 13 44 21 17 8 7 2 12 0 3 3 1 1 0 0
0 9 19 385 516 783 988 940 790 744 536 563 572 462 196 110 0 0 0 0 0 0 0 0 0 0 0 0 0 8 7 15 8 27 23 16 14 8 11 2 0 0 0
0 0 5 11 5 144 327 468 509 468 443 387 240 99 0 0 0 0 0 0 0 0 0 0 0 0 0 0 6 6 6 11 2 14 29 10 25 2 7 0 0 0 0

GFSSE_con_mucape_063.txt.gz
CAPE
945 1620 2284 1948 1382 1300 1144 950 877 847 655 234 514 485 84 26 23 113 188 518 688 328 75 22 2 0 0 0 0 0 0 0 0 0 0 70 0 8 245 125 305 58 63
1147 1347 2150 2062 1779 1500 1204 1219 1249 1009 828 974 494 22 3 1 4 18 75 355 290 70 56 14 5 1 0 0 0 0 0 0 0 0 0 118 21 299 113 23 176 66 100
1251 1211 1567 2130 2005 1745 1523 1265 1310 967 788 847 379 55 5 2 8 17 7 89 231 47 12 9 4 2 0 0 0 0 0 0 1 0 1 2 72 220 12 17 8 9 12
1240 1208 1521 2090 1940 1765 1562 1112 990 601 345 928 648 105 4 1 6 14 10 6 8 11 10 7 4 1 0 0 0 0 0 0 12 104 11 1 4 10 7 4 7 4 2
1160 1343 1762 2040 1933 1739 1324 980 486 254 245 867 973 594 5 0 1 4 7 11 9 10 7 3 2 1 0 0 0 0 0 0 0 16 16 0 0 4 4 4 1 1 1
1146 1530 1828 1879 1883 1676 1397 918 327 183 159 537 1073 608 14 0 2 1 3 4 5 5 3 2 0 0 0 0 0 0 0 0 0 5 35 34 12 18 3 0 0 0 0
1363 1607 1584 1971 1837 1568 1320 916 537 188 147 392 999 507 99 0 0 2 1 2 3 2 2 1 0 0 11 6 0 0 0 0 0 0 0 30 16 20 0 0 0 0 0
1430 1538 1570 1742 1662 1478 1256 892 524 332 376 623 1222 711 229 49 0 0 0 0 0 0 0 9 21 0 0 4 0 0 0 0 0 0 0 25 76 22 0 0 0 0 0
1358 1449 1441 1410 1310 1187 1008 639 334 585 845 889 1166 819 513 169 22 0 20 18 2 0 0 8 9 0 0 0 0 0 0 0 0 0 0 0 5 53 0 0 0 0 0
1155 1256 1236 1187 1098 780 515 329 167 669 544 816 773 428 174 104 75 42 69 41 0 0 0 4 1 0 0 0 0 0 0 0 0 0 0 0 0 10 35 1 0 0 0
972 1000 1041 986 856 611 322 54 76 370 217 349 318 41 35 16 6 0 7 14 14 0 0 0 0 0 0 0 0 0 0 0 0 0 0 0 0 16 172 48 0 0 0
1068 1099 912 831 740 536 314 5 2 40 121 156 95 19 22 10 5 9 5 0 0 0 0 0 0 0 0 0 0 0 0 0 0 0 0 0 0 0 66 209 1 0 0
987 1070 994 946 808 549 258 89 33 11 0 3 25 15 9 12 27 20 0 0 0 0 0 0 0 0 0 0 0 0 0 0 0 0 0 0 0 0 0 220 18 0 0
992 843 884 858 921 712 413 360 173 97 116 92 23 0 0 0 5 7 0 0 0 0 0 0 0 0 0 0 0 0 0 0 0 0 0 0 0 0 0 137 237 0 0
826 947 835 942 1053 859 639 570 383 137 184 161 174 61 0 0 0 0 0 0 0 0 0 0 0 0 0 0 0 0 0 0 0 0 0 0 0 0 0 0 80 104 45
743 923 666 704 1228 1122 777 594 434 231 260 220 195 176 63 10 0 0 0 0 0 0 0 0 0 0 0 0 0 0 0 0 0 0 0 0 0 0 0 1 0 1 45
532 1005 898 635 826 962 837 702 508 313 328 200 227 179 114 50 13 0 0 0 0 0 0 0 0 0 0 0 0 0 10 20 8 20 13 17 19 15 8 14 12 9 10
706 585 785 717 712 799 863 814 643 571 294 369 214 185 155 102 57 27 8 15 3 4 2 0 0 0 0 1 6 10 10 31 38 29 46 58 72 60 33 4 20 22 1
916 850 664 698 670 637 643 663 625 504 388 394 254 172 179 195 84 99 121 128 163 164 171 136 209 80 102 18 12 11 9 11 43 0 54 53 66 15 9 6 0 1 0
885 1032 945 821 809 724 633 531 450 398 314 299 282 241 289 310 203 133 216 266 218 388 313 276 203 155 141 20 36 51 12 12 10 0 25 62 29 8 2 0 0 0 0
748 955 916 1010 791 612 434 391 265 212 288 245 265 300 689 387 512 341 287 271 607 569 462 633 344 176 111 16 44 31 28 26 17 0 0 21 15 0 7 1 0 0 0
770 798 900 1004 908 814 666 551 467 380 415 434 435 474 664 654 515 429 647 741 760 468 520 541 396 301 137 62 33 39 40 5 0 0 0 7 22 25 10 0 0 0 0
428 769 1010 978 986 883 800 702 676 701 589 636 649 611 598 558 496 682 808 588 516 576 433 422 294 416 25 20 23 50 33 4 2 0 21 35 23 4 0 0 0 0 0
0 307 923 1016 1038 976 925 942 906 806 766 862 922 875 792 629 548 443 553 547 505 342 196 27 4 0 0 0 0 14 37 43 24 6 1 5 3 0 0 1 1 0 0
0 0 321 976 937 977 956 940 817 747 681 826 662 830 826 660 460 161 12 0 0 0 0 0 0 0 0 0 0 0 0 2 7 19 13 0 16 26 13 3 2 3 0
0 0 0 323 707 765 707 653 554 593 481 530 620 548 544 417 129 0 0 0 0 0 0 0 0 0 0 0 0 0 3 0 0 4 8 13 12 38 22 17 13 0 0

GFSSE_con_mucape_066.txt.gz
CAPE
752 1459 1925 1718 1316 1300 1160 955 674 392 611 637 373 219 126 167 445 627 698 496 286 95 37 2 0 0 0 0 1 0 0 6 34 1 0 137 256 169 35 18 18 0 3
1090 1514 1962 1831 1580 1415 1142 835 674 888 701 689 3 0 0 45 204 504 469 332 136 63 10 1 0 0 1 4 4 1 0 0 0 0 57 99 214 82 11 6 26 8 148
1193 1524 1523 1896 1660 1520 1282 755 578 695 757 502 6 1 3 7 16 175 461 134 13 15 7 1 0 0 0 0 0 0 0 0 0 0 77 4 5 12 7 6 9 4 5
1121 1407 1454 1836 1768 1445 1216 775 748 609 796 570 7 1 4 10 9 7 53 13 13 9 3 2 0 0 0 0 0 0 31 198 137 61 0 0 0 8 5 7 7 3 0
945 1335 1582 1810 1630 1484 1024 769 606 862 817 701 83 1 2 6 14 24 7 8 8 4 4 3 0 0 0 0 0 0 0 77 82 13 6 4 0 9 3 2 0 0 0
1091 1389 1652 1717 1626 1478 1156 831 417 878 749 640 112 0 0 2 5 10 7 7 6 4 3 2 0 0 0 0 0 0 0 0 21 22 23 21 1 0 0 0 0 0 0
1304 1433 1471 1756 1477 1304 936 773 633 651 992 793 227 4 0 1 3 5 6 7 6 3 2 0 0 10 10 0 0 0 0 0 0 0 8 0 9 0 0 0 0 0 0
1326 1277 1251 1333 1439 1267 852 721 599 699 885 1152 692 98 0 1 2 3 6 6 5 2 1 3 0 0 0 0 0 0 0 0 0 0 0 1 34 0 0 0 0 0 0
1365 1286 1256 1172 1126 979 782 570 495 732 895 1280 890 521 156 21 7 1 0 0 0 0 8 14 9 0 0 0 0 0 0 0 0 0 0 0 28 16 0 0 0 0 0
1321 1211 1105 1039 896 543 217 300 620 831 940 1075 729 379 100 34 40 35 57 37 0 0 11 11 7 0 0 0 0 0 0 0 0 0 0 0 0 40 36 0 0 0 0
1278 1134 1017 1015 711 322 70 76 461 385 704 803 348 112 39 0 4 12 0 4 5 0 0 0 0 0 0 0 0 0 0 0 0 0 0 0 0 12 95 125 0 0 0
1178 1097 895 811 614 258 63 8 326 313 510 605 286 29 0 0 0 0 0 0 0 0 0 0 0 0 0 0 0 0 0 0 0 0 0 0 0 0 46 175 0 0 0
728 971 852 776 595 308 109 11 24 249 281 318 182 19 15 0 0 5 0 0 0 0 0 0 0 0 0 0 0 0 0 0 0 0 0 0 0 0 0 52 334 0 0
492 878 820 773 634 366 205 66 52 0 16 76 83 27 0 0 14 7 0 0 0 0 0 0 0 0 0 0 0 0 0 0 0 0 0 0 0 0 0 0 340 73 0
429 506 730 869 753 565 366 372 296 123 85 82 18 0 0 2 12 2 0 0 0 0 0 0 0 0 0 0 0 0 0 0 0 0 0 0 0 2 1 0 39 187 98
360 560 547 931 1004 906 626 545 464 326 179 179 195 146 58 8 0 0 0 0 0 0 0 0 0 0 0 0 0 0 0 0 8 15 13 7 16 14 21 9 7 30 53
564 541 519 630 675 970 919 637 489 265 253 272 250 201 203 77 17 0 0 0 0 0 0 0 0 0 0 0 0 0 8 23 22 18 35 25 40 25 11 22 51 25 30
449 687 680 692 922 878 990 756 621 421 292 337 289 249 207 139 50 28 0 0 7 2 0 0 0 0 0 0 5 3 11 10 22 37 30 46 48 17 32 16 75 40 19
575 706 744 725 768 1079 885 862 752 512 389 403 330 275 204 175 130 82 44 31 65 60 73 38 62 16 6 22 36 10 13 12 11 7 18 61 58 41 0 0 0 3 0
660 587 685 698 739 710 844 826 754 603 459 328 307 269 240 219 265 130 124 177 224 206 170 392 120 145 116 72 43 32 8 30 11 4 0 6 40 43 0 0 4 0 0
710 724 614 611 781 611 673 651 634 636 360 585 428 556 275 222 243 271 164 235 316 190 236 352 132 277 126 42 30 11 8 4 10 6 0 0 0 21 12 10 15 0 0
767 769 671 731 777 830 665 727 616 421 378 326 211 244 303 396 423 537 428 374 471 355 273 282 239 313 222 77 21 6 8 0 0 0 0 0 8 6 9 17 8 0 0
651 662 808 815 849 839 750 560 440 359 277 344 321 355 476 569 756 781 650 739 518 578 542 382 310 127 36 22 2 11 12 0 0 0 0 5 7 7 13 14 0 0 0
312 606 769 892 1037 894 764 651 525 471 410 458 435 492 576 750 499 453 506 462 407 321 478 333 324 174 21 0 0 0 10 64 22 5 0 1 9 5 2 2 4 0 2
0 56 532 791 879 933 827 759 647 534 455 334 382 396 613 536 399 412 449 447 485 454 16 0 0 0 0 0 0 0 0 0 15 29 3 0 0 7 4 8 13 0 15
0 0 0 570 792 910 817 828 720 484 442 400 379 341 314 376 235 392 272 110 0 0 0 0 0 0 0 0 0 0 0 0 0 0 7 1 2 12 12 11 3 14 7

GFSSE_con_mucape_069.txt.gz
CAPE
636 1022 1499 1502 1210 1120 960 621 258 527 767 297 185 301 752 824 961 779 575 336 205 16 0 0 1 2 7 8 6 28 10 8 4 15 199 256 72 14 11 46 11 31 256
850 1037 1614 1717 1342 1170 970 656 344 873 737 167 67 204 586 766 759 803 390 251 48 6 1 1 8 9 11 7 2 0 0 1 0 104 98 18 17 9 3 1 19 29 32
1076 1143 1225 1628 1392 1070 980 520 480 493 426 8 1 17 298 598 711 508 174 49 21 3 0 0 3 1 0 0 0 0 0 0 64 121 25 0 0 7 7 4 3 9 10
1116 1123 1023 1549 1314 1072 657 532 833 670 47 1 0 5 20 156 590 309 116 13 4 3 1 0 0 0 0 0 0 163 172 17 32 11 0 0 0 3 3 1 2 1 1
1149 1146 1210 1591 1497 1299 643 746 815 659 59 1 5 14 47 5 25 10 41 11 5 4 2 0 0 0 0 0 0 73 199 104 41 0 0 0 0 0 0 0 0 0 0
1035 1220 1255 1367 1444 1394 1056 1040 946 442 195 1 2 7 14 17 5 6 8 6 5 4 1 0 0 0 0 0 0 0 1 59 0 0 0 0 0 0 0 1 0 0 0
1001 1152 1045 1376 1200 1113 916 963 1179 1086 533 7 2 4 8 10 13 8 6 8 4 2 0 0 0 0 0 0 0 0 0 0 0 0 0 0 0 0 0 1 1 0 0
1122 1163 1001 1242 1211 1110 867 841 1110 1368 805 134 8 1 3 5 9 10 9 7 5 13 0 0 0 0 0 0 0 0 0 0 0 0 0 0 1 0 0 0 0 0 0
1177 1125 1048 1013 943 811 750 668 746 1209 1057 742 337 40 3 3 2 3 4 3 20 21 18 3 0 0 0 0 0 0 0 0 0 0 0 0 1 1 0 0 0 0 0
1113 1060 925 878 722 428 357 380 508 744 993 864 479 145 21 28 46 6 39 37 3 10 11 9 1 0 0 0 0 0 0 0 0 0 0 0 0 10 0 2 0 0 0
1060 1007 847 848 462 121 29 224 580 614 849 598 231 28 0 0 0 9 0 0 8 0 0 0 0 0 0 0 0 0 0 0 0 0 0 0 0 0 19 258 0 0 0
1036 925 1089 870 386 90 0 281 369 398 675 517 92 31 0 0 0 0 0 0 0 0 0 0 0 0 0 0 0 0 0 0 0 0 0 0 0 0 0 116 31 0 0
833 985 1298 929 389 118 13 175 303 448 567 702 218 25 0 0 0 0 0 0 0 0 0 0 0 0 0 0 0 0 0 0 0 0 0 0 0 0 0 0 96 69 0
305 702 941 727 440 196 38 8 296 320 473 565 312 48 2 1 0 1 0 0 0 0 0 0 0 0 0 0 0 0 0 0 0 0 0 0 0 0 0 0 95 101 53
367 216 289 645 574 335 233 68 35 155 309 350 234 74 25 16 22 17 0 0 0 0 0 0 0 0 0 0 0 0 0 0 0 0 1 4 11 17 18 7 21 101 119
91 7 138 296 553 408 365 321 283 189 90 9 25 34 34 0 19 19 0 0 0 0 0 0 0 0 0 0 0 0 0 0 2 18 23 11 20 23 35 23 24 38 44
265 52 222 322 340 398 358 227 267 312 271 162 181 157 122 114 43 4 0 0 0 0 0 0 0 0 0 0 0 0 2 6 19 34 10 26 24 42 22 18 62 40 34
287 171 338 450 527 483 296 292 341 376 271 254 261 247 202 203 116 28 17 0 0 0 0 0 0 0 0 0 2 1 9 9 10 4 24 39 39 41 34 31 41 32 26
382 338 300 351 220 252 416 538 506 498 295 293 315 334 254 228 163 76 38 0 5 31 51 63 73 16 9 5 7 8 10 14 10 2 6 0 11 23 52 22 0 0 1
488 510 440 424 601 510 588 566 393 538 549 379 383 458 346 260 216 189 87 66 59 111 158 122 42 166 105 116 62 20 12 7 0 2 0 0 4 16 35 7 0 6 15
682 488 472 543 600 530 437 364 352 448 560 357 307 316 320 330 270 305 267 123 204 278 241 229 277 321 147 79 40 10 0 0 0 0 0 0 0 0 25 15 17 15 4
650 609 572 635 696 610 519 479 467 612 561 581 418 329 302 307 386 249 224 203 272 344 274 228 205 187 170 126 36 8 12 0 0 0 0 0 0 1 3 11 10 15 1
234 563 611 656 678 664 594 503 485 387 388 395 393 466 297 303 384 320 338 426 375 413 555 400 356 251 215 58 16 22 10 0 0 0 0 0 0 0 10 11 8 5 0
13 373 562 602 522 474 467 365 456 386 298 342 272 283 320 307 321 284 383 387 344 377 423 394 343 381 270 202 33 0 0 11 8 3 0 0 5 5 4 6 2 4 5
0 0 321 557 599 581 518 461 434 315 233 209 270 247 239 277 214 348 265 170 92 92 43 284 371 0 0 0 0 0 0 0 0 17 12 2 6 3 11 3 5 6 10
0 0 0 258 606 722 679 598 563 464 340 216 201 127 129 206 250 212 133 101 41 11 46 0 0 0 0 0 0 0 0 0 0 0 9 7 9 5 7 10 7 1 11

GFSSE_con_mucape_072.txt.gz
CAPE
355 804 1494 1403 1133 869 348 188 283 806 594 387 729 1063 1139 1072 964 867 535 216 13 0 0 2 8 43 72 56 59 4 5 7 238 101 35 64 13 8 11 31 30 29 263
532 894 1569 1668 1298 1060 698 185 636 774 561 406 623 824 930 903 929 644 317 126 3 1 4 5 11 23 55 11 6 5 2 158 82 0 0 1 16 8 4 0 1 4 36
792 956 1132 1633 1507 1229 903 314 673 512 178 115 477 758 875 885 670 477 163 48 1 1 7 11 12 4 0 0 0 0 40 174 55 15 0 0 0 6 4 2 3 4 1
836 1019 917 1321 1255 990 478 455 713 86 0 6 369 642 759 867 464 148 88 8 3 1 8 6 1 0 0 67 292 43 58 51 5 0 0 0 0 0 0 0 0 0 0
943 964 930 1195 1247 915 503 907 462 16 1 2 181 511 722 917 434 161 11 8 7 3 2 1 0 0 0 47 268 209 166 32 0 0 0 0 0 1 1 0 0 0 0
980 920 1035 1155 1204 1034 1130 914 335 33 2 3 14 131 386 237 123 62 9 8 6 5 1 0 0 0 0 0 1 169 116 25 0 0 0 0 0 1 2 1 0 0 0
983 998 885 1084 1095 960 1021 853 792 130 2 4 10 13 17 43 13 7 8 8 6 3 1 0 0 0 0 0 0 0 0 0 0 0 0 0 0 4 4 2 2 0 0
907 887 692 854 1054 1077 926 871 1139 753 4 3 11 11 12 7 13 7 8 7 4 0 0 0 0 0 0 0 0 0 0 0 0 0 0 0 0 2 1 0 2 1 0
933 799 707 735 773 761 793 718 909 966 241 6 14 14 17 20 12 6 5 4 27 13 0 0 7 0 0 0 0 0 0 0 0 0 0 0 0 2 0 0 0 0 0
663 746 614 634 492 393 394 453 637 840 630 319 58 47 6 7 43 44 29 43 24 20 17 5 0 0 0 0 0 0 0 0 0 0 0 0 0 3 1 15 0 0 0
593 655 668 502 288 151 121 163 363 731 624 363 62 0 0 0 0 1 0 0 17 0 0 0 0 0 0 0 0 0 0 0 0 0 0 0 0 0 0 82 0 0 0
639 663 855 555 183 53 38 144 267 378 620 245 36 0 0 0 0 0 0 0 10 0 0 0 0 0 0 0 0 0 0 0 0 0 0 0 0 0 0 12 42 0 0
760 801 568 703 180 31 26 222 267 226 687 445 39 13 0 0 0 0 0 0 0 0 0 0 0 0 0 0 0 0 0 0 0 0 0 0 0 0 0 0 14 91 38
577 709 694 1010 272 70 8 207 267 273 484 566 260 34 1 0 0 0 0 0 0 0 0 0 0 0 0 0 0 0 0 0 0 0 0 0 0 3 4 10 30 116 97
55 251 402 520 402 187 37 88 276 355 391 670 471 156 23 12 5 2 2 0 0 0 0 0 0 0 0 0 0 0 0 0 0 0 2 10 15 12 13 8 23 73 118
38 206 135 262 302 318 161 102 138 308 403 502 501 283 78 32 24 26 12 0 0 0 0 0 0 0 0 0 0 0 0 0 0 3 18 11 20 27 30 31 27 49 51
89 76 17 71 226 281 328 180 181 153 113 296 318 207 106 52 9 22 11 0 0 0 0 0 0 0 0 0 0 0 0 0 0 15 20 28 31 39 39 34 40 52 39
209 73 60 66 81 282 335 285 251 177 154 153 100 173 169 107 115 65 20 5 0 0 0 0 0 0 0 0 0 0 0 4 4 7 10 0 6 20 29 38 49 41 25
248 178 223 249 313 410 337 215 265 321 238 201 119 185 261 186 168 130 73 45 0 0 16 23 46 55 21 19 6 7 2 6 4 0 0 0 0 0 10 31 26 1 5
436 278 193 146 231 332 126 274 243 264 309 327 335 280 311 274 209 173 125 82 29 31 69 96 85 65 159 113 57 33 14 0 0 0 0 0 0 0 0 20 33 19 48
486 442 203 200 244 190 176 165 146 134 62 194 272 364 314 317 386 346 186 169 111 84 107 194 216 240 169 130 49 8 0 0 0 0 0 0 0 0 0 33 12 13 9
425 409 251 217 302 148 126 106 82 56 56 155 187 369 244 270 259 254 245 206 174 221 303 317 240 223 168 164 59 54 1 0 0 0 0 0 0 0 0 9 1 7 10
190 500 415 490 355 271 234 213 148 182 139 145 225 284 277 235 219 265 238 225 217 259 348 286 291 286 248 174 93 75 10 0 0 0 0 0 0 0 0 0 5 4 1
16 47 448 470 377 302 264 202 63 111 141 51 110 111 188 212 250 271 204 169 210 218 143 156 245 188 132 111 67 65 16 25 0 0 0 0 0 0 0 4 4 8 1
0 0 11 281 433 420 372 221 200 191 142 112 117 160 119 177 217 251 196 128 81 37 14 10 8 16 39 25 0 0 0 0 2 2 0 0 0 1 5 12 6 5 4
0 0 0 7 189 359 333 369 369 337 223 159 165 171 94 107 118 107 118 127 57 8 0 3 11 7 0 0 0 0 0 0 0 0 0 2 7 5 5 12 8 6 0

GFSSE_con_mucape_075.txt.gz
CAPE
475 867 1458 1378 1112 799 476 476 932 895 911 810 149 626 949 1059 1043 984 584 117 95 3 5 8 178 261 12 10 12 26 302 78 2 0 0 11 8 8 7 1 86 26 15
603 864 1413 1443 1050 803 338 609 1108 884 932 852 1187 852 1045 1269 1045 636 225 6 2 3 6 13 78 91 15 8 3 20 177 39 0 0 0 6 10 2 0 0 1 6 161
867 897 990 1479 1475 1109 654 601 910 899 648 820 991 1295 1489 1272 896 456 105 4 5 8 10 27 11 6 3 14 26 168 151 31 0 0 0 0 0 1 0 0 0 0 1
901 966 928 1311 1385 1197 422 785 736 182 170 766 938 973 1009 919 559 341 13 2 8 14 53 12 4 8 150 126 82 146 95 2 0 0 0 0 0 2 1 0 0 0 0
1019 1028 943 1250 1193 1003 584 847 245 0 5 548 647 865 1028 965 465 59 9 5 90 105 9 2 0 37 272 532 126 130 49 0 0 0 0 0 3 6 3 0 0 0 1
1082 1086 1235 1199 1117 928 1137 970 97 0 0 56 631 659 998 903 174 6 13 14 11 10 2 0 0 0 48 226 216 152 45 0 0 0 0 0 9 11 9 3 0 0 0
1143 1127 947 1048 1188 1151 1322 784 287 2 3 3 65 327 739 365 24 12 7 7 5 2 1 0 0 0 0 0 13 83 6 0 0 0 0 2 11 11 10 7 2 0 0
1084 1031 800 724 1126 1274 861 671 486 14 6 18 92 141 244 9 9 12 10 11 7 1 0 0 0 0 0 0 0 0 0 0 0 0 0 2 7 7 2 1 2 0 0
1129 954 775 664 793 897 683 732 737 131 9 19 23 102 19 72 9 10 12 9 19 18 15 0 0 0 0 0 0 0 0 0 0 0 0 0 0 4 0 0 0 0 0
961 849 768 765 607 406 590 541 539 282 49 17 20 14 6 5 18 47 56 74 41 13 0 0 0 0 0 0 0 0 0 0 0 0 0 0 0 3 0 8 0 0 0
653 760 635 656 388 249 257 487 545 379 150 36 6 1 6 12 18 7 0 29 54 22 3 0 0 0 0 0 0 0 0 0 0 0 0 0 0 0 0 21 0 0 0
423 578 693 452 229 130 75 236 517 571 403 66 22 12 1 25 33 0 0 0 27 21 0 0 0 0 0 0 0 0 0 0 0 0 0 0 0 0 0 9 37 11 0
330 641 597 399 145 77 75 118 242 573 501 161 29 10 8 10 25 6 11 5 0 0 0 0 0 0 0 0 0 0 0 0 0 0 0 0 0 0 0 0 13 76 63
162 454 423 479 185 33 57 116 142 202 472 166 65 15 10 0 7 0 0 0 0 0 0 0 0 0 0 0 0 0 0 0 0 0 0 0 0 4 6 12 13 65 82
158 233 443 513 285 98 22 115 168 159 406 721 272 42 20 0 0 0 0 0 0 0 0 0 0 0 0 0 0 0 0 0 0 0 1 4 9 17 25 23 27 38 65
58 96 120 298 353 270 110 63 204 196 197 380 454 286 97 19 11 9 16 3 0 0 0 0 0 0 0 0 0 0 0 0 0 0 0 7 2 21 33 52 52 40 49
3 16 73 99 269 341 299 151 76 241 267 301 462 455 264 103 35 27 30 16 0 0 0 0 0 0 0 0 0 0 0 0 0 0 8 8 6 4 18 22 69 66 70
4 3 16 39 108 328 391 219 163 116 94 153 306 343 260 125 52 24 32 23 0 0 0 0 0 0 0 0 0 1 6 3 8 7 1 2 0 0 0 0 15 51 50
13 21 3 24 112 310 351 237 302 317 230 187 91 37 56 113 87 114 82 34 11 0 0 0 0 0 21 13 14 26 9 12 8 0 0 0 0 0 0 0 7 14 17
101 32 38 58 97 335 406 286 230 313 320 261 228 169 168 93 185 197 156 80 30 0 0 18 41 41 24 40 44 43 39 7 0 0 0 0 0 0 0 0 0 2 28
139 124 135 133 47 260 263 240 154 54 76 259 196 219 210 101 198 247 197 148 92 31 12 67 103 51 45 75 115 46 17 0 0 0 0 0 0 0 0 0 10 0 9
106 249 165 170 137 155 225 173 128 101 76 38 55 119 206 172 117 218 234 194 114 110 81 161 187 231 281 157 87 23 9 0 0 0 0 0 0 0 0 0 0 0 0
110 223 263 217 239 228 268 111 89 72 57 83 80 68 95 82 145 127 206 195 192 197 257 238 264 207 249 123 103 84 19 0 0 0 0 0 0 0 0 0 0 0 0
19 50 179 272 285 236 265 172 96 89 64 69 88 27 77 40 65 71 115 180 177 157 142 228 106 76 84 172 109 68 11 1 0 0 0 0 0 0 0 1 3 4 2
0 0 0 37 261 236 219 229 172 106 54 57 78 15 63 54 82 75 67 85 107 101 61 47 49 8 6 6 4 0 0 0 0 0 0 0 0 0 0 2 4 6 12
0 0 0 0 41 231 263 244 179 143 87 82 70 64 53 61 83 77 70 64 67 54 52 28 24 10 16 16 16 4 0 0 0 0 0 0 0 0 2 1 3 6 11

GFSSE_con_mucape_078.txt.gz
CAPE
492 870 1611 1318 1143 783 670 666 834 891 781 470 787 1090 1004 1030 1129 1039 419 128 78 7 10 13 13 16 48 105 381 227 13 3 2 1 0 7 6 6 0 1 246 141 207
473 890 1607 1450 1258 785 953 1223 1235 1148 1141 637 1136 1013 1012 1131 1090 762 192 21 4 9 120 229 140 9 13 11 271 89 5 0 0 0 0 0 3 0 0 0 18 12 22
683 801 1101 1367 1386 1122 1139 975 926 722 861 1108 1208 1558 1363 1185 915 451 53 9 17 33 154 207 16 13 8 74 249 85 12 1 0 0 0 0 0 0 0 0 0 0 2
742 736 875 1289 1283 954 801 935 981 509 712 1143 1591 1655 1538 1283 743 199 55 34 102 175 90 12 10 7 29 91 188 42 2 0 0 0 0 0 0 1 1 1 0 0 0
633 611 806 1426 1431 1013 1005 957 411 288 606 880 1046 1292 1155 968 458 54 22 308 39 83 46 8 95 304 162 100 98 30 1 0 0 0 0 3 7 7 2 0 0 0 0
875 876 1160 1329 1277 1116 1394 918 125 7 430 687 844 884 941 958 136 17 52 300 249 139 7 18 41 207 409 282 135 38 0 0 0 0 3 4 17 8 10 1 0 0 2
856 931 1129 1174 1193 1211 1323 780 180 2 168 482 658 775 853 356 19 12 8 7 11 27 2 10 0 0 55 157 112 47 0 0 0 0 4 11 13 8 11 7 0 0 1
781 881 926 811 989 1365 1128 562 180 68 2 144 433 601 875 205 9 8 14 9 32 32 0 0 0 0 0 0 0 0 0 0 0 0 1 5 2 5 5 4 1 0 0
765 814 877 761 506 951 787 446 133 68 74 199 265 451 207 74 14 8 6 11 7 2 0 0 0 0 0 0 0 0 0 0 0 0 0 3 1 3 1 0 0 0 0
829 830 734 694 262 793 482 456 94 42 71 34 51 53 14 17 19 15 9 9 59 38 21 13 0 0 0 0 0 0 0 0 0 0 0 0 0 3 0 5 0 0 0
276 809 724 630 387 276 486 551 138 36 0 10 15 8 2 8 7 7 3 62 97 45 13 0 0 0 0 0 0 0 0 0 0 0 0 0 0 0 0 1 0 0 0
68 637 805 625 344 107 362 639 497 24 4 0 5 12 13 8 5 0 0 7 64 43 30 0 0 0 0 0 0 0 0 0 0 0 0 0 0 0 0 11 42 27 15
12 188 727 538 334 2 21 606 782 486 168 32 0 0 0 4 28 0 6 0 0 0 0 0 0 0 0 0 0 0 0 0 0 0 0 0 0 0 0 0 13 42 73
21 26 344 552 434 30 1 432 655 805 559 229 13 0 0 0 11 0 0 0 0 0 0 0 0 0 0 0 0 0 0 0 0 0 0 0 0 0 15 17 14 28 64
3 34 91 668 538 222 32 39 427 584 697 466 92 52 33 11 0 0 0 0 0 0 0 0 0 0 0 0 0 0 1 3 2 4 6 0 0 0 11 26 32 40 43
9 9 30 289 615 218 97 72 99 292 687 587 393 162 114 66 23 0 5 0 1 0 0 0 0 0 0 0 2 1 3 5 9 14 16 19 0 0 6 45 68 57 59
28 29 17 108 213 300 203 194 257 262 219 640 524 391 197 103 82 82 97 77 42 7 0 0 0 25 28 31 26 49 15 23 17 10 15 10 11 0 0 20 46 90 67
0 9 20 74 131 234 355 217 264 414 445 420 421 454 339 302 207 105 98 106 49 26 1 5 30 25 0 15 57 58 31 25 19 24 27 23 17 16 12 0 4 32 64
1 0 2 34 98 151 351 481 271 213 341 332 372 438 433 405 257 133 110 113 69 37 27 9 8 5 12 52 83 72 54 17 41 21 13 14 11 1 6 4 0 0 34
15 36 22 60 88 140 386 456 490 427 453 415 393 307 222 153 108 85 123 123 69 23 11 10 0 2 48 111 38 27 97 69 36 21 0 0 0 0 0 0 0 0 12
86 74 67 67 81 166 427 379 371 330 431 382 394 389 407 360 285 247 116 150 140 89 22 0 7 24 66 97 151 104 86 49 28 0 0 0 0 0 0 0 10 22 0
106 108 144 132 128 150 335 314 336 282 279 163 212 240 290 285 217 219 160 90 159 142 109 22 57 170 171 212 150 106 68 22 2 0 0 0 0 0 0 0 0 6 0
62 93 98 86 212 181 103 321 179 179 161 150 128 178 197 155 156 197 132 73 82 135 275 425 389 370 426 280 136 158 63 7 0 0 0 0 0 0 0 0 0 4 0
89 126 232 263 158 195 153 121 198 91 78 55 46 32 39 98 100 63 92 63 44 98 99 250 611 547 321 216 181 127 164 123 1 0 0 0 0 0 0 0 0 0 1
14 19 34 152 346 265 274 264 196 114 124 56 22 16 76 24 5 8 21 91 70 45 52 64 91 76 61 55 48 1 0 0 0 0 0 0 0 0 0 0 0 0 0
0 0 0 16 207 238 380 356 291 202 149 93 41 51 64 44 32 45 64 86 60 65 58 42 60 30 46 36 16 7 2 0 5 0 0 0 0 0 0 0 0 2 0

GFSSE_con_mucape_081.txt.gz
CAPE
726 1094 1781 1454 1103 896 770 653 452 323 592 1071 1236 1134 961 1074 1075 856 464 83 25 6 8 10 19 257 462 581 124 8 5 3 1 0 0 3 4 0 39 132 383 100 204
631 875 1693 1707 1184 925 1003 1177 1191 1016 721 1161 1309 1148 1029 1219 1090 627 278 24 17 47 16 20 23 34 264 328 7 4 0 0 0 0 0 0 0 0 0 0 23 9 34
513 794 1105 1774 1509 1325 1469 1092 1022 930 1018 964 1485 1198 1104 1245 999 507 168 17 76 354 168 13 15 32 134 169 7 2 0 0 0 0 0 0 0 0 0 0 0 1 1
588 852 860 1625 1610 1363 1490 969 790 888 882 908 1429 1415 1435 1221 790 327 116 74 458 461 264 15 11 17 252 191 3 1 0 0 0 0 1 0 0 2 1 0 0 0 0
679 804 1019 1483 1491 1250 1335 859 647 770 815 1322 1159 1415 1268 1240 554 232 69 389 57 374 93 38 89 49 136 127 40 0 0 0 0 3 8 14 7 5 2 0 0 0 0
674 793 1199 1430 1464 1300 1528 1114 444 631 626 1338 1319 1315 866 960 351 131 475 112 251 8 45 199 485 224 232 111 53 0 0 0 0 3 3 13 4 6 6 1 2 1 2
838 922 1058 1230 1401 1431 1513 1051 356 502 572 753 1137 944 822 824 68 55 212 258 145 46 48 42 125 319 233 155 61 0 0 0 0 1 8 8 7 10 10 4 0 1 2
715 910 939 808 1060 1227 1177 696 334 399 533 587 781 795 755 253 24 8 59 59 24 7 10 0 0 10 54 71 35 0 0 0 0 0 4 1 1 7 6 2 0 0 0
500 632 863 740 678 939 894 444 285 292 503 455 571 614 474 160 26 12 12 7 20 3 0 0 0 0 0 0 0 0 0 0 0 0 1 3 0 1 0 0 0 0 0
376 574 575 730 350 342 493 292 175 175 366 364 375 99 43 6 11 18 5 22 87 73 23 0 0 0 0 0 0 0 0 0 0 0 0 0 0 1 0 3 0 0 0
109 238 441 660 374 253 377 105 30 55 0 95 122 90 26 3 5 9 5 5 83 76 25 3 0 0 0 0 0 0 0 0 0 0 0 0 0 0 0 0 0 0 0
2 48 273 295 563 256 492 187 2 0 1 0 38 13 1 5 5 2 3 6 93 63 28 0 0 0 0 0 0 0 0 0 0 0 0 0 0 0 0 5 21 23 20
34 3 41 15 105 311 482 392 65 0 0 5 11 4 1 5 2 6 42 24 5 0 0 0 0 0 0 0 0 0 0 0 0 0 0 0 0 0 10 5 16 42 77
2 10 5 3 49 323 477 525 479 16 7 1 3 7 4 13 15 1 0 0 0 0 0 0 0 0 0 0 0 0 0 0 0 1 1 0 0 0 9 33 38 36 77
1 2 10 9 7 117 66 544 578 536 121 11 1 1 2 3 8 0 0 0 0 0 0 0 0 0 0 0 0 0 1 6 7 14 24 8 0 0 13 31 63 54 58
41 4 1 0 19 78 90 452 686 711 551 310 31 1 0 0 0 0 0 0 0 0 0 0 0 0 0 0 1 5 7 10 10 27 26 18 3 0 1 30 74 99 84
38 17 36 3 4 22 268 146 340 740 743 548 353 90 80 48 18 0 1 3 10 0 0 0 0 0 0 1 3 24 15 20 24 21 17 24 14 6 4 20 30 52 82
33 19 0 3 18 71 400 372 183 202 342 560 536 492 239 166 98 82 113 127 84 31 2 0 0 1 24 16 26 46 34 34 18 14 24 20 21 11 7 20 5 3 30
31 1 1 11 51 147 306 370 327 315 393 317 403 526 484 434 326 198 94 149 123 92 27 5 10 23 28 28 60 86 44 38 2 14 7 8 7 6 8 4 0 0 13
19 21 6 18 11 68 276 313 352 414 502 390 427 452 504 526 468 264 161 207 237 185 60 42 19 24 19 45 48 62 39 13 76 18 7 0 0 0 0 0 3 0 0
45 62 67 55 45 83 232 324 376 296 342 334 531 471 379 343 329 358 368 213 191 204 108 51 36 25 32 158 97 96 66 39 48 35 0 0 0 0 0 0 10 8 0
115 56 46 68 80 107 159 202 231 286 248 310 361 356 312 330 346 309 369 397 191 135 101 154 45 47 54 170 158 180 133 74 19 0 0 0 0 0 0 0 0 12 1
60 35 58 62 80 135 88 172 164 217 245 262 327 322 313 255 292 333 345 337 259 89 56 100 101 175 263 242 242 199 87 66 29 0 0 0 0 0 0 0 0 0 0
52 9 34 77 100 133 106 130 116 170 167 122 210 187 124 158 192 235 279 303 247 104 36 27 81 35 179 156 149 107 169 126 1 0 0 0 0 0 0 0 0 0 0
62 56 71 90 190 195 113 144 46 112 56 90 70 56 59 103 85 76 58 110 156 118 74 43 43 71 74 110 53 32 44 44 16 0 0 0 0 0 0 0 0 0 0
17 6 6 29 136 226 215 161 124 111 88 94 132 58 18 38 25 10 41 23 101 59 14 14 21 44 64 48 55 39 11 1 0 4 1 0 0 0 0 0 0 0 0

GFSSE_con_mucape_084.txt.gz
CAPE
1004 1085 1868 1367 1031 1013 813 632 560 1007 1635 1621 1238 1074 1218 1175 1032 787 295 96 70 35 15 397 500 612 352 10 8 4 3 1 9 0 1 1 7 107 157 158 218 19 147
1063 1114 1924 1702 1184 1063 1036 938 871 692 1164 1600 1440 1028 1134 1191 1123 677 208 46 20 12 16 119 92 613 184 8 2 0 0 0 0 0 0 0 0 0 0 0 24 10 6
1069 973 1429 1767 1608 1559 1452 1417 1259 930 889 1610 1323 1446 1319 1309 927 502 138 84 292 76 28 89 182 189 51 6 0 0 0 0 0 0 0 0 0 0 0 0 1 1 8
850 955 914 1624 1662 1601 1647 1325 1264 1092 924 1402 1226 1293 1423 1234 837 305 105 263 800 353 93 11 47 373 76 4 0 0 0 0 0 0 0 0 0 3 2 2 3 1 0
937 790 987 1612 1588 1609 1390 1206 985 1012 1136 1043 1178 1185 1163 1263 623 260 338 563 526 266 22 18 51 315 140 1 0 0 0 0 0 2 1 0 0 2 2 1 0 0 1
956 791 1378 1402 1346 1513 1512 1227 879 813 1019 1137 1088 1051 1107 1117 640 241 544 32 286 25 47 112 99 178 284 45 0 0 0 0 0 0 0 0 0 4 1 1 1 1 1
763 1163 1175 1083 1226 1491 1501 1188 911 775 976 1459 1196 1089 951 768 461 499 90 84 23 73 229 527 171 131 184 64 2 0 0 0 0 2 1 0 0 5 5 0 0 1 1
659 891 892 830 1138 1343 1290 974 720 855 797 1483 1062 1118 744 671 249 286 13 18 59 47 77 98 245 172 161 85 2 0 0 0 0 0 0 0 1 4 4 1 0 0 0
534 534 671 632 695 908 789 598 549 929 712 817 916 677 476 330 179 19 125 26 24 40 34 17 2 5 10 11 0 0 0 0 0 0 0 0 0 1 0 0 0 0 0
302 455 442 482 491 541 372 341 288 567 480 520 427 202 82 15 39 31 6 69 5 81 55 20 0 0 0 0 0 0 0 0 0 0 0 0 0 0 0 0 0 0 0
90 106 14 376 273 141 467 231 167 244 167 193 198 70 61 6 2 7 6 15 52 80 60 4 0 0 0 0 0 0 0 0 0 0 0 0 0 0 0 5 0 0 0
60 21 42 96 133 122 114 212 111 17 22 76 128 55 38 2 5 1 6 3 40 54 33 21 0 0 0 0 0 0 0 0 0 0 0 0 0 0 0 19 27 35 24
54 1 0 5 1 69 101 73 70 0 0 3 49 89 81 0 0 3 0 2 0 0 0 1 0 0 0 0 0 0 0 0 0 0 0 0 0 0 13 3 20 43 72
27 3 0 0 4 0 1 28 58 3 0 0 1 23 68 0 0 0 0 0 0 0 0 0 0 0 0 0 0 0 0 0 0 0 0 0 0 0 0 18 29 26 34
46 0 0 0 0 2 2 5 59 3 0 0 1 0 1 1 0 0 0 0 0 0 0 0 0 0 0 0 0 0 0 0 0 0 1 2 5 11 4 18 37 68 56
15 0 20 28 32 2 1 0 93 204 0 0 0 0 1 0 0 0 0 0 0 0 0 0 0 0 0 0 0 0 0 0 1 6 9 4 2 6 27 21 41 52 73
6 19 15 29 10 0 30 12 131 257 128 0 0 0 0 0 0 0 0 0 0 0 0 0 0 0 0 0 0 0 2 0 10 7 9 4 4 0 7 20 29 21 31
28 33 38 44 26 27 80 52 99 165 157 156 12 0 10 2 0 0 0 0 0 1 1 0 0 0 0 0 1 6 11 23 8 9 8 12 4 0 0 3 9 0 0
67 19 16 18 17 15 20 6 81 136 151 193 253 325 161 114 73 62 85 99 81 52 28 1 0 2 1 0 0 16 29 39 23 9 2 4 1 1 0 0 0 0 0
59 53 59 28 45 65 5 24 97 193 221 232 332 401 430 398 317 293 98 88 131 107 62 31 10 6 9 15 7 19 31 18 18 7 14 12 0 0 0 0 0 0 0
93 104 107 79 46 40 42 79 106 231 406 394 370 443 472 441 345 343 191 145 180 186 240 72 58 31 3 0 63 32 33 35 23 5 13 5 0 0 0 0 0 0 0
60 122 104 47 37 44 64 72 126 149 204 240 291 314 289 269 249 251 240 201 203 198 229 177 142 80 32 21 66 92 60 50 30 16 10 5 0 0 0 0 0 0 0
19 12 30 17 59 50 42 66 74 88 115 129 187 175 167 213 275 309 292 323 291 180 101 219 185 125 94 74 115 95 58 14 34 19 2 0 0 0 0 0 0 1 1
47 29 36 49 10 10 41 28 47 97 101 93 147 143 97 130 206 243 276 243 244 236 203 116 99 68 85 47 42 66 72 53 25 2 0 0 0 0 0 0 0 0 0
0 4 43 37 65 78 71 72 73 69 66 82 103 95 42 64 36 88 191 226 224 200 169 124 92 88 60 65 38 23 72 40 26 0 0 1 2 6 2 2 4 4 0
10 34 59 64 70 22 23 49 104 63 82 86 42 35 35 3 14 37 33 40 50 108 136 120 113 106 125 20 21 60 47 63 51 18 10 0 0 1 0 0 0 0 0

GFSSE_con_mucape_087.txt.gz
CAPE
822 1192 1840 1332 1082 940 860 1085 1910 2194 1879 1715 1263 1239 1249 1148 1059 546 52 0 158 294 753 706 654 89 6 5 6 8 49 27 3 1 2 20 51 86 177 76 19 18 53
871 1193 1766 1529 1175 995 922 1087 1347 1849 1816 1839 1505 1140 1108 1154 911 483 154 38 25 191 668 602 530 27 4 1 0 0 0 0 0 0 0 0 0 0 0 0 6 6 7
1017 1357 1431 1688 1621 1570 1424 823 942 1203 1770 1668 1508 1351 1112 1282 951 298 118 55 162 160 49 587 343 6 2 0 0 0 0 0 0 0 0 0 0 0 1 0 0 4 4
1122 1386 1369 1851 1784 1666 1566 1009 834 565 1199 1619 1422 1445 1765 1288 772 234 120 231 472 259 159 38 261 2 2 0 0 0 0 0 0 0 0 0 0 4 3 3 2 0 0
1058 1173 1443 1883 1881 1766 1651 1163 858 778 894 1554 1499 1113 1428 1230 797 185 699 827 478 290 362 43 489 44 0 0 0 0 0 0 2 0 0 0 0 1 3 2 1 3 1
1025 985 1575 1839 1863 1815 1528 1414 1032 1156 815 1303 1160 1218 1260 1003 803 646 847 585 33 14 15 13 404 92 1 0 0 0 0 0 0 0 0 0 0 3 4 3 3 3 1
936 1169 1432 1833 1686 1712 1404 1413 1291 965 976 1120 1113 1172 1033 1007 744 740 471 73 14 5 178 95 195 149 42 0 0 0 0 0 0 0 0 0 0 6 2 1 1 4 3
1092 1338 1231 1304 1181 1367 1159 1185 1051 979 852 1422 1045 1064 1109 801 882 514 130 10 18 212 535 179 106 151 77 17 0 0 0 0 0 0 0 0 3 3 1 0 0 1 1
776 1029 982 598 398 658 832 679 789 918 626 1591 1036 883 834 573 578 29 17 46 104 155 158 363 317 166 99 39 0 0 0 0 0 0 0 0 0 2 1 0 0 0 0
437 687 742 618 325 122 188 75 201 679 540 634 717 508 274 164 207 107 42 109 138 174 66 32 16 0 4 0 0 0 0 0 0 0 0 0 0 0 0 0 0 0 0
104 198 390 457 374 178 161 32 5 244 319 276 402 287 160 35 2 17 12 26 59 73 39 0 0 0 0 0 0 0 0 0 0 0 0 0 0 0 0 0 0 0 0
125 144 135 143 143 105 127 25 8 30 303 383 287 236 199 27 0 5 7 8 45 50 26 0 0 0 0 0 0 0 0 0 0 0 0 0 0 0 0 5 14 19 8
66 78 96 61 46 0 5 8 27 35 64 219 228 229 139 42 5 0 4 3 8 0 0 0 0 0 0 0 0 0 0 0 0 0 0 0 0 14 0 0 24 37 47
69 42 21 3 0 0 22 0 3 4 25 116 202 134 95 66 5 0 2 0 0 0 0 0 0 0 0 0 0 0 0 0 0 0 0 0 6 5 20 20 14 26 34
52 52 30 0 1 1 1 4 9 14 11 63 128 88 81 120 7 0 0 0 0 0 0 0 0 0 0 0 0 0 0 0 0 0 0 1 3 17 12 12 23 35 56
78 57 7 0 4 5 15 2 39 21 4 42 96 84 42 101 7 0 0 0 0 0 0 0 0 0 0 0 0 0 0 0 0 3 4 1 3 8 36 25 29 42 42
111 35 20 5 27 0 10 3 45 103 67 12 16 1 20 4 1 6 0 0 0 0 0 0 0 0 0 0 0 0 0 0 0 4 7 5 5 1 11 66 30 24 21
131 45 44 55 34 5 41 12 132 63 16 18 45 18 7 6 21 0 0 0 0 0 0 0 0 0 0 0 0 0 0 1 13 19 29 7 4 3 0 28 106 4 0
175 75 70 76 33 98 88 109 85 121 107 97 108 48 2 3 0 0 0 0 0 0 0 0 0 0 0 2 6 10 17 7 27 36 16 8 6 5 0 0 0 0 0
166 84 54 62 26 114 35 125 92 119 96 99 86 93 8 0 0 0 20 10 48 58 43 25 0 0 1 5 4 9 15 15 51 38 43 9 25 0 0 0 0 0 3
165 101 90 76 49 125 61 45 21 20 125 109 100 267 220 163 125 69 109 127 139 119 95 82 54 10 8 18 29 13 17 48 19 8 75 17 9 1 0 0 0 0 0
144 128 127 90 68 136 82 61 25 9 19 17 90 93 173 294 320 325 242 160 214 220 209 186 126 78 59 32 19 31 92 96 38 33 24 1 5 9 0 0 0 0 0
60 45 125 116 79 75 58 37 57 37 60 52 62 54 71 135 218 203 223 233 232 234 233 203 174 164 146 129 93 43 79 84 27 28 16 16 43 14 0 0 0 0 0
12 1 41 50 23 51 53 35 39 45 2 53 61 61 58 49 60 123 172 214 291 267 213 152 134 117 105 118 93 91 83 62 34 10 25 53 42 0 0 0 0 0 0
0 0 24 34 33 32 10 13 26 48 26 41 70 79 109 63 48 60 92 164 178 189 174 161 147 107 73 64 72 74 70 35 18 41 0 23 31 0 0 0 1 7 9
4 0 33 7 20 35 25 30 50 64 31 29 23 30 48 24 16 13 30 72 155 193 231 176 166 116 94 81 60 55 33 30 40 33 38 20 11 2 1 6 7 0 0

GFSSE_con_mucape_090.txt.gz
CAPE
781 1271 1906 1439 1370 1678 1849 2168 2250 1905 1741 1330 1287 1252 1330 1236 828 294 33 571 742 642 261 656 238 187 131 38 136 206 42 11 8 4 22 108 129 86 11 7 23 3 23
888 1302 1821 1584 1199 1232 1809 2165 2258 1969 1891 1760 1242 1144 1072 1010 573 112 40 493 589 926 778 546 55 11 2 4 9 6 0 0 0 0 0 0 0 0 0 3 15 5 11
993 1283 1390 1700 1630 1572 1533 1295 1672 1711 1654 1820 1663 1037 765 1088 632 240 38 204 492 927 718 375 13 2 0 0 0 0 0 0 0 0 0 0 0 3 3 2 3 6 6
1115 1262 1176 1785 1717 1374 1095 810 1014 1496 1423 1438 1472 1571 1441 1241 754 306 135 92 564 803 725 269 4 0 0 0 2 1 0 0 0 0 0 0 0 6 6 5 3 1 1
1163 1166 1297 1966 1885 1694 1265 911 548 659 1401 1409 1486 1360 1385 1179 825 205 360 583 409 348 815 181 1 0 0 0 0 0 0 0 0 0 0 0 0 3 3 3 3 4 4
1259 1222 1633 1830 1843 1710 1493 1251 885 511 578 1382 1266 1365 1219 973 859 358 826 642 430 281 328 412 32 0 0 0 0 0 0 0 0 0 0 0 0 3 5 4 5 4 3
1139 1176 1437 1307 1437 1902 1411 1441 1241 1150 929 1247 1358 1176 960 1038 969 1014 973 511 265 34 111 534 132 0 0 0 0 0 0 0 0 0 0 0 0 2 2 3 3 2 3
990 1114 922 632 972 1235 918 929 1206 1004 788 990 1312 1175 1149 1053 768 969 789 29 32 123 188 333 233 26 0 0 0 0 0 0 0 0 0 0 3 2 0 0 0 0 0
1010 905 720 452 339 281 243 176 252 664 678 771 1370 1049 774 659 524 709 264 132 110 153 406 381 195 142 21 0 0 0 0 0 0 0 0 0 3 1 0 0 0 0 0
649 705 567 463 354 188 124 95 21 9 145 444 988 523 422 226 179 329 131 85 259 571 783 562 350 194 91 29 0 0 0 0 0 0 0 0 0 1 0 0 0 0 0
212 452 535 481 399 295 111 65 30 40 0 61 392 334 309 147 48 29 2 36 165 218 146 121 136 75 28 0 0 0 0 0 0 0 0 0 0 0 0 0 0 0 0
141 103 148 142 201 190 94 53 40 21 43 28 155 256 163 145 60 30 13 22 87 78 47 48 23 14 0 0 0 0 0 0 0 0 0 0 0 0 0 0 1 6 1
135 112 105 104 108 92 72 60 17 19 56 8 36 152 245 217 100 47 8 10 11 4 0 0 2 0 0 0 0 0 0 0 0 0 0 0 35 18 7 16 16 22 36
77 84 36 34 4 0 0 0 0 12 2 16 25 67 84 188 112 38 12 3 2 0 0 0 0 0 0 0 0 0 0 0 0 0 0 0 38 34 32 18 19 23 28
110 48 28 20 7 1 0 0 0 0 0 1 11 42 51 79 77 44 5 1 0 0 0 0 0 0 0 0 0 0 0 0 0 0 0 0 0 54 78 40 35 28 33
117 87 46 33 8 0 0 1 6 2 1 7 3 25 27 0 120 48 4 8 0 2 0 0 0 0 0 0 0 0 0 0 0 0 0 0 2 8 66 46 32 31 50
101 40 48 37 3 0 0 0 8 16 0 5 0 49 11 56 15 53 5 1 1 0 0 0 0 0 0 0 0 0 0 0 0 0 0 2 4 2 20 76 134 56 32
95 105 76 36 14 5 1 0 0 5 66 34 18 40 0 18 37 39 15 3 0 0 0 0 0 0 0 0 0 0 0 0 0 0 8 7 5 3 7 16 142 144 8
160 124 101 48 47 15 7 3 7 66 105 20 14 9 12 5 49 50 10 7 1 0 0 0 0 0 0 0 0 0 0 0 0 2 12 12 4 3 1 0 0 6 0
234 217 116 76 42 5 45 38 72 110 48 37 2 1 59 55 91 43 56 9 0 0 0 0 0 0 0 0 11 15 13 12 4 4 8 3 6 0 1 0 0 0 0
232 188 140 75 48 18 25 22 52 98 133 38 19 11 56 113 81 106 63 2 0 0 0 0 0 0 0 16 15 15 20 17 22 32 30 13 8 1 1 0 0 0 0
216 193 130 83 58 33 64 39 62 93 103 108 51 43 39 93 136 126 41 27 16 7 55 81 73 45 16 22 44 50 31 25 39 61 22 5 6 4 2 0 0 0 0
110 221 318 176 106 37 74 43 47 90 84 102 79 75 54 86 155 188 138 200 221 224 211 185 186 156 106 100 82 45 37 43 83 93 66 26 22 36 11 32 5 0 0
190 162 62 61 110 43 69 49 39 59 31 44 36 32 60 75 70 96 183 204 272 276 274 261 271 194 163 112 76 55 63 72 59 36 28 41 43 32 18 35 1 0 0
66 94 99 46 31 67 58 59 22 8 53 17 16 42 40 42 58 53 57 69 84 135 129 133 142 154 138 111 104 77 77 61 38 15 29 14 20 16 46 15 0 1 0
54 53 45 38 28 6 47 8 25 22 41 48 59 36 51 62 44 44 53 52 51 76 94 137 88 80 92 90 92 84 51 57 52 27 10 9 6 6 1 6 26 2 4

GFSSE_con_mucape_093.txt.gz
CAPE
631 1117 1878 1695 1973 2044 2041 1756 1669 1691 1701 1464 905 910 1074 986 724 208 105 208 211 262 543 467 408 147 124 105 74 201 85 4 4 42 54 257 61 7 0 0 0 65 182
691 1311 1804 1635 1790 1942 2043 2283 2094 1866 1829 1694 1143 987 639 935 455 138 729 775 597 373 787 386 360 193 18 108 7 0 2 1 0 0 0 0 6 1 3 7 8 10 25
935 1232 1320 1656 1705 1672 1826 2116 2104 2017 1953 1796 1528 757 1206 884 334 142 727 781 1008 874 628 84 10 6 7 11 0 0 0 0 0 0 0 0 0 3 1 4 5 4 3
1029 1217 1161 1693 1617 1365 1447 1729 1570 1694 1619 1754 1585 1284 1271 964 415 99 533 660 1001 789 413 8 4 0 0 2 3 2 0 0 0 0 0 0 0 6 6 4 1 1 1
1052 1179 1185 1834 1752 1524 1159 1104 1475 1457 1398 1424 1394 1496 1390 1107 759 264 187 850 1191 920 571 4 0 1 5 6 4 0 0 0 0 0 0 0 0 2 5 5 4 5 2
1113 1096 1511 1869 1883 1698 1474 1097 625 1143 1292 1196 1257 1357 1255 1005 910 335 710 753 579 916 348 10 0 0 5 5 0 0 0 0 0 0 0 0 0 6 8 7 5 6 4
1113 1168 1542 2003 1990 1782 1511 1387 1171 676 685 1283 1430 1116 1044 1015 808 823 790 729 356 551 447 22 0 0 0 0 0 0 0 0 0 0 0 0 0 5 6 8 6 5 5
979 1285 1129 1307 1522 1481 1237 1192 1329 1094 985 1107 1320 1318 1247 1092 1136 994 998 536 331 51 628 171 0 0 0 0 0 0 0 0 0 0 0 0 3 3 3 4 2 2 3
896 1109 841 478 346 323 208 278 351 322 350 452 1049 1186 1124 808 760 835 758 372 191 130 123 591 48 0 0 0 0 0 0 0 0 0 0 0 6 4 0 0 0 0 0
483 661 578 396 303 259 249 178 35 15 34 128 449 1046 616 379 475 433 439 157 18 44 276 521 251 38 1 0 0 0 0 0 0 0 0 0 3 3 0 0 0 0 0
139 306 265 231 260 117 125 124 92 58 2 28 104 606 474 283 196 46 7 7 48 288 461 458 417 357 99 4 0 0 0 0 0 0 0 0 0 1 2 0 0 0 0
133 168 182 131 145 98 70 61 43 55 9 0 19 108 268 286 178 34 4 4 47 303 446 577 384 187 7 0 0 0 0 0 0 0 0 0 0 0 9 0 0 3 0
176 140 141 144 144 115 95 47 29 45 36 5 13 88 163 232 169 71 20 43 34 53 69 57 16 0 0 0 0 0 0 0 0 0 0 0 34 16 17 23 17 29 41
114 118 105 114 119 112 102 77 51 18 3 3 5 94 116 161 163 145 87 56 37 21 26 24 1 0 0 0 0 0 0 0 0 0 0 0 96 42 26 24 30 36 56
63 122 107 88 66 75 73 32 0 0 0 0 0 86 88 127 151 157 147 99 31 25 25 3 0 0 0 0 0 0 0 0 0 0 0 0 0 171 213 45 34 39 45
112 65 62 37 12 5 4 0 0 0 0 0 0 37 112 107 61 97 97 114 10 8 32 0 0 0 0 0 0 0 0 0 0 0 0 0 0 5 159 156 52 33 28
44 54 32 30 16 0 0 0 0 0 0 0 0 4 84 88 39 54 12 204 7 11 53 0 0 0 0 0 0 0 0 0 0 0 0 0 0 1 19 108 130 72 36
1 33 65 29 18 0 0 0 0 0 0 0 0 0 26 57 55 9 5 94 47 88 118 1 0 0 0 0 0 0 0 0 0 0 0 0 1 6 1 33 165 242 126
22 68 113 54 18 26 3 0 0 0 0 4 2 5 20 63 41 22 2 12 26 6 99 24 0 0 0 0 0 0 0 0 0 0 0 0 4 5 0 0 2 45 78
55 108 105 98 62 50 16 1 8 26 7 0 16 104 66 58 57 62 22 2 72 101 83 8 0 0 0 0 0 0 0 0 0 8 0 0 3 0 0 0 0 1 0
144 160 178 152 100 27 0 7 16 14 9 26 79 96 122 71 36 72 64 36 36 93 101 3 0 0 0 0 0 0 10 23 21 24 15 23 32 7 5 7 0 0 0
135 162 183 169 122 79 31 5 9 23 36 56 40 89 59 85 43 62 99 67 58 18 45 71 42 0 0 0 0 25 32 28 36 31 23 35 29 9 0 3 0 5 2
83 113 123 152 178 117 74 28 24 35 50 65 72 51 56 66 90 3 84 111 71 37 20 71 33 1 0 0 52 52 47 29 42 36 40 36 23 17 5 7 8 9 10
71 63 76 111 132 60 69 78 57 36 12 33 33 43 26 61 50 74 77 93 97 88 73 37 37 57 121 94 40 53 57 59 54 19 39 51 48 22 33 41 27 20 6
75 47 58 78 63 56 71 66 67 32 11 24 7 25 46 11 56 69 45 85 102 123 157 185 151 158 162 174 108 73 64 67 51 35 30 14 35 46 54 24 31 22 9
32 46 40 63 45 44 21 29 18 35 17 38 24 33 23 35 31 38 51 61 99 107 110 93 95 103 125 118 90 71 55 51 16 62 51 32 34 34 15 9 12 9 2

GFSSE_con_mucape_096.txt.gz
CAPE
622 1219 1906 1975 1871 1908 1692 1366 1611 1856 1939 1965 1614 1465 1172 1088 860 491 167 203 248 511 902 676 542 491 394 345 291 68 19 107 146 118 166 193 5 3 1 0 8 13 157
675 1300 1982 2184 2147 2116 2085 1842 1841 1808 1735 1582 1342 1390 1330 937 578 140 245 226 338 706 668 418 23 248 13 11 128 40 2 0 0 0 0 0 4 2 2 0 13 4 7
802 1392 1550 2137 2093 1899 1988 1794 2003 1961 1812 1552 820 857 639 783 313 454 645 695 456 840 674 263 39 12 89 1 0 0 0 0 0 0 0 0 0 1 3 3 2 4 5
1074 1335 1256 1996 2004 1912 1898 1816 1791 1667 1717 1727 1296 938 737 782 270 574 656 980 999 682 227 16 6 8 13 1 0 0 0 0 0 0 0 0 0 5 4 2 1 1 1
1110 1246 1197 1924 1946 1958 1733 1873 1603 1710 1517 1438 1457 1393 1366 904 400 390 819 1214 1026 762 279 2 2 12 7 5 2 1 0 0 0 0 0 0 0 3 6 4 2 4 2
1144 1186 1417 1809 1892 1746 1628 1652 1615 1482 1346 1423 1138 1258 1158 1161 701 370 979 1222 954 648 113 0 3 11 108 25 0 0 0 0 0 0 0 0 0 8 8 7 7 6 4
1099 1090 1420 1810 1857 1757 1471 1305 1255 1296 1442 1323 1204 981 992 1037 842 866 865 972 1076 845 119 0 3 15 5 1 0 0 0 0 0 0 0 0 0 7 8 7 7 6 4
910 993 1231 1192 1431 1702 1651 1528 1331 1067 721 1159 1457 1378 1161 936 1159 934 962 871 1080 745 188 0 1 3 0 1 0 0 0 0 0 0 0 0 4 5 6 4 3 3 5
425 629 913 1057 832 541 604 585 515 506 505 285 1037 1191 1156 825 749 856 869 834 701 727 569 128 2 0 0 1 0 0 0 0 0 0 0 0 12 3 2 0 0 0 1
121 283 521 500 323 216 205 144 176 81 81 98 274 807 702 621 525 512 508 551 417 139 536 487 115 4 7 1 0 0 0 0 0 0 0 0 7 4 0 0 0 0 0
134 275 160 176 156 105 119 65 71 60 38 10 160 490 741 440 320 262 193 149 150 115 113 654 397 131 32 0 0 0 0 0 0 0 0 0 5 6 0 0 0 0 0
248 140 100 133 145 118 98 87 63 48 54 41 19 180 267 284 276 232 98 74 22 35 55 335 471 354 29 0 0 0 0 0 0 0 0 0 27 14 17 0 0 0 0
5 346 132 120 160 157 129 102 59 48 15 21 46 23 78 146 175 219 109 50 3 0 27 92 116 122 16 0 0 0 0 0 0 0 0 0 17 20 16 14 0 17 13
7 22 84 112 111 151 131 94 63 48 24 14 4 1 40 150 169 209 165 152 171 17 180 152 76 52 3 0 0 0 0 0 0 0 0 0 11 72 44 39 31 28 26
3 28 76 115 123 119 137 112 95 68 43 12 17 7 105 124 165 185 182 179 137 173 67 150 65 38 23 0 0 0 0 0 0 0 0 0 0 86 193 66 56 51 59
0 42 47 92 116 123 140 144 107 87 15 8 1 0 64 85 108 172 176 145 135 116 132 65 75 47 16 0 0 0 0 0 0 0 0 0 0 0 91 216 158 109 75
0 0 27 12 7 10 1 4 2 0 0 0 0 0 6 66 66 99 151 156 148 116 91 62 86 82 0 0 0 0 0 0 0 0 0 0 0 0 3 35 341 196 123
0 0 0 0 11 0 6 0 0 0 0 0 0 0 0 14 42 55 88 98 49 45 80 23 32 104 8 0 0 0 0 0 0 0 0 0 0 0 0 5 113 358 253
0 0 0 0 20 1 9 0 0 0 0 0 0 0 0 0 17 36 30 66 69 37 36 59 6 75 43 0 0 0 0 0 0 0 0 0 0 0 2 0 0 45 144
0 0 5 17 45 27 0 0 0 0 0 0 0 0 1 0 0 22 35 77 54 59 5 1 9 99 60 19 0 0 0 0 0 0 0 0 0 0 8 2 0 0 12
128 92 71 98 90 73 34 0 6 3 2 0 0 1 2 3 3 20 59 85 82 77 9 0 1 64 93 14 0 0 0 0 0 0 0 13 17 22 23 12 0 0 0
213 203 177 181 154 118 73 27 13 0 0 2 1 0 3 22 32 120 94 101 64 62 28 3 2 0 50 23 15 1 11 4 3 20 12 26 41 41 33 28 0 0 2
198 190 179 186 124 138 110 77 56 53 2 1 0 5 18 27 43 38 44 75 87 63 23 7 6 61 1 11 68 40 50 22 36 50 52 56 62 49 62 49 17 0 0
109 83 91 137 69 58 32 56 196 79 6 13 0 2 14 24 24 44 75 32 18 24 5 3 26 72 60 74 80 53 66 56 44 38 52 64 68 88 96 77 57 20 19
170 149 104 96 57 17 19 94 76 70 51 3 2 4 15 9 20 22 33 26 16 4 43 27 78 80 100 120 90 83 115 114 89 69 61 69 70 101 105 115 75 48 38
67 43 93 67 93 73 72 45 45 72 26 5 37 25 27 33 33 44 13 9 34 60 41 35 70 71 111 151 173 114 128 88 77 72 82 46 30 20 33 74 54 50 46

GFSSE_con_mucape_099.txt.gz
CAPE
652 1421 2270 2128 1673 1810 1660 1538 1891 2016 1999 1791 1621 1570 1530 1201 755 402 190 205 420 797 748 692 700 560 532 453 402 331 303 331 398 179 217 50 3 1 0 18 174 85 294
745 1400 2190 2223 2251 2227 2040 2079 2111 2103 2060 1945 1676 1468 1319 1098 858 545 240 302 625 1024 820 635 609 520 486 252 25 109 63 1 0 0 0 0 4 2 0 0 8 6 8
835 1450 1342 2195 2370 2336 2003 2020 1962 2037 1905 1886 1682 1593 1435 1149 640 286 266 340 717 1006 612 161 216 64 17 95 9 0 0 0 0 0 0 0 0 2 2 0 0 3 3
1069 1561 1286 1961 2012 2105 2020 1921 1920 1901 1864 1613 1046 1364 1164 1008 487 354 578 494 999 1067 761 211 203 271 1 0 0 0 0 0 0 0 0 0 0 3 1 1 1 1 1
1169 1462 1259 1978 1754 1745 1897 2018 1988 1914 1871 1760 1570 1168 1283 891 584 583 1153 1285 983 900 614 332 245 209 0 0 0 0 0 0 0 0 0 2 2 5 5 4 4 2 2
1184 1408 1416 1921 1807 1766 1819 1969 1858 1708 1701 1723 1665 1491 1219 1184 670 1044 1228 829 803 525 297 9 35 38 106 17 2 0 0 0 0 0 0 0 4 7 5 3 3 3 3
973 1255 1367 1591 1736 1500 1580 1506 1817 1871 1677 1531 1277 1225 1007 1013 875 1140 1152 1016 871 606 87 0 2 5 30 29 0 0 0 0 0 0 0 2 7 7 4 4 3 3 2
541 766 1095 1015 1415 1531 1524 1442 1279 1424 1427 1260 1440 1369 1217 1249 921 1066 1127 902 796 530 33 0 21 32 21 0 1 46 0 0 0 0 0 1 10 6 6 3 3 3 3
114 276 770 1085 1028 1242 1200 1081 936 838 373 350 833 1433 1326 1013 1083 861 745 789 823 691 300 54 184 137 19 50 0 125 0 0 0 0 0 1 8 6 3 1 1 2 2
66 244 254 432 570 644 510 270 150 299 307 123 330 895 889 817 774 638 398 545 786 680 481 176 195 152 130 157 2 0 0 0 0 0 0 0 7 5 1 0 0 0 0
0 120 151 143 112 198 202 118 105 62 53 52 174 470 589 779 770 541 263 166 350 494 516 404 227 139 71 46 0 0 0 0 0 0 0 0 10 8 1 0 0 0 0
0 0 167 163 152 128 113 91 65 53 52 34 259 471 549 622 583 482 335 170 273 215 152 469 422 173 15 13 0 0 0 0 0 0 0 0 1 17 12 0 0 0 0
0 6 7 121 378 130 144 135 67 71 46 23 10 168 201 230 346 466 434 324 254 25 61 16 253 117 0 0 0 0 0 0 0 0 0 0 0 52 43 32 11 0 0
0 0 0 25 288 217 157 156 141 93 31 2 1 0 61 271 176 430 325 301 135 66 93 75 102 184 107 5 0 0 0 0 0 0 0 0 0 97 55 52 31 29 29
0 0 0 12 97 153 195 178 142 89 21 11 7 1 38 72 137 185 276 244 152 110 106 306 138 119 83 28 0 0 0 0 0 0 0 0 0 52 189 142 86 67 59
0 0 0 0 36 77 127 171 144 104 39 23 9 8 10 50 111 117 184 207 261 189 216 140 144 146 93 61 33 0 0 0 0 0 0 0 0 0 69 214 190 170 152
0 0 0 10 18 62 101 126 160 177 140 74 63 0 0 0 29 148 240 172 178 203 194 93 86 127 104 101 58 0 0 0 0 0 0 0 0 0 0 11 160 251 256
0 0 0 7 0 8 50 62 64 61 55 0 0 0 0 0 0 33 137 159 245 159 168 146 59 83 64 109 140 2 0 0 0 0 0 0 0 0 0 0 25 199 355
0 0 0 9 0 1 0 26 0 0 0 0 0 0 0 0 0 7 51 59 161 153 104 97 128 86 40 29 101 16 0 0 0 0 0 0 0 0 0 0 0 1 124
0 0 0 7 8 15 15 24 9 0 0 1 2 0 0 0 2 28 38 46 94 98 46 76 26 81 98 26 4 0 0 0 0 0 0 0 0 0 0 0 0 0 0
0 0 6 15 36 69 79 48 40 25 22 15 7 4 0 0 1 22 59 63 99 78 28 53 77 35 77 23 20 4 0 0 0 0 0 0 0 0 7 26 28 22 0
0 44 87 120 142 152 136 120 78 53 20 33 37 3 16 5 20 10 67 37 33 41 35 43 65 45 101 36 21 3 0 5 1 0 0 0 0 25 48 56 56 56 29
62 152 158 163 131 153 174 165 121 69 42 90 68 4 46 24 73 35 127 106 47 40 15 9 51 54 75 19 17 9 0 0 37 63 50 38 23 39 65 88 84 84 54
142 59 79 72 80 60 55 59 83 95 140 95 114 57 31 7 76 79 102 104 59 62 49 3 22 62 90 28 3 5 36 34 98 96 46 76 87 101 119 139 131 147 95
59 61 59 80 78 34 30 39 74 55 109 55 83 73 38 9 33 70 27 96 32 55 12 6 42 34 6 3 0 0 0 73 90 103 104 121 141 153 158 165 106 108 83
93 62 72 68 80 72 134 44 153 124 51 39 27 5 17 14 25 29 30 5 100 24 13 12 2 2 3 6 7 31 0 17 82 131 118 132 120 122 100 107 135 95 57

GFSSE_con_mucape_102.txt.gz
CAPE
1176 1642 2092 1927 1700 1598 1586 1759 2085 2180 1941 2049 1847 1776 1389 1038 1008 353 165 407 328 333 216 423 482 590 601 617 472 503 439 402 413 126 233 170 41 54 57 64 344 295 375
965 1402 2127 2249 1994 1903 2029 2056 2394 2285 2145 2229 2028 1718 1522 1152 778 385 208 329 769 1120 804 877 723 673 606 406 374 266 233 153 29 0 0 0 15 0 0 0 188 36 88
1310 1298 1185 2022 2150 2279 2325 2261 2264 2318 2233 2150 2127 1643 1513 1375 951 655 384 404 1104 1061 952 980 757 538 433 108 138 151 32 0 0 0 0 0 0 1 0 0 0 4 2
1177 1296 1346 1822 2055 1989 2230 2012 2226 2131 2131 2006 1869 2003 1527 1288 911 481 339 424 1065 1013 1140 779 548 474 183 84 6 13 1 0 0 0 0 0 0 0 0 0 0 0 0
1175 1186 1332 1709 1813 1908 1867 1920 2088 2145 1974 1789 1606 1424 1356 1202 779 591 723 951 1282 951 958 731 575 43 2 1 0 0 0 0 0 0 0 1 4 1 3 1 1 0 0
869 1286 1273 1485 1574 1594 1576 1690 1861 1985 2001 1888 1758 1449 1463 1091 823 1036 1032 1341 1015 943 762 250 277 0 0 0 0 0 0 0 0 0 0 0 0 0 3 2 3 3 2
781 1005 1131 1297 1338 1328 1367 1627 1823 1718 1563 1560 1293 1296 1118 979 1073 1302 962 756 849 812 358 103 142 27 21 24 2 0 0 0 0 0 0 0 4 6 6 5 3 3 4
278 610 1168 829 995 1190 1287 1416 1453 1502 1411 1202 1140 1104 1230 1170 1203 1136 980 924 865 465 156 37 61 68 92 75 20 4 0 0 0 0 0 4 4 7 6 5 3 3 3
10 152 424 944 826 832 1105 1152 1169 1114 1064 923 1243 1285 1260 1011 1012 1114 890 939 807 726 404 298 372 247 172 83 118 249 0 0 0 0 0 3 0 9 5 2 2 3 2
3 8 208 353 878 907 1027 764 693 771 438 343 503 802 1011 977 886 796 709 592 739 822 548 349 491 455 195 319 143 230 0 0 0 0 0 6 0 9 3 0 0 1 0
0 0 8 174 314 839 841 621 204 183 181 108 148 193 627 744 697 611 388 309 570 551 524 428 487 456 222 143 72 66 0 0 2 0 0 0 1 10 4 0 0 0 0
0 0 0 19 147 100 258 424 335 120 49 89 258 454 636 372 359 420 369 239 354 410 359 398 404 349 60 16 45 0 17 4 3 2 0 0 0 20 12 1 0 0 0
0 0 0 5 30 276 126 181 58 81 43 40 153 673 389 686 506 461 485 552 343 99 242 237 214 166 5 0 7 4 0 7 4 2 0 0 0 134 30 24 0 0 0
0 0 0 0 34 0 278 151 204 82 51 49 35 6 79 194 531 455 232 498 526 369 215 210 130 254 240 8 0 1 0 0 0 1 0 0 0 80 177 107 24 16 3
0 0 0 0 11 24 156 163 219 156 50 50 5 0 1 50 115 180 528 404 565 910 251 101 125 123 269 230 10 0 0 0 0 0 0 0 0 27 180 210 146 51 33
0 0 0 0 0 35 46 237 219 219 193 80 31 15 17 20 41 107 143 249 407 444 306 189 163 182 78 181 108 20 0 0 0 0 0 0 0 0 11 171 162 164 155
0 0 0 0 0 1 95 207 248 196 144 96 66 49 40 22 8 12 78 173 272 526 472 431 389 297 348 97 59 28 0 0 0 0 0 0 0 0 0 0 104 182 178
0 0 0 0 0 0 109 256 187 207 239 271 263 104 80 35 3 0 17 51 125 370 536 613 551 313 198 63 65 52 7 0 0 0 0 0 0 0 0 0 85 201 295
0 0 0 0 0 0 15 26 227 232 194 160 97 23 0 6 15 0 12 27 49 175 246 287 248 286 181 127 72 69 19 6 0 0 0 0 0 0 0 0 0 0 70
0 0 0 0 0 4 29 33 51 129 143 122 105 60 56 40 41 44 3 4 20 43 128 100 122 87 157 112 78 70 66 7 0 0 0 0 0 0 0 0 0 0 0
0 0 0 0 0 23 44 70 142 195 187 139 94 83 82 72 39 39 41 32 39 52 69 89 146 67 106 132 81 83 6 18 24 1 0 0 0 0 0 0 11 55 37
78 51 9 0 48 152 160 238 298 312 292 271 242 201 199 176 135 94 85 65 69 205 140 105 143 87 73 75 72 76 74 25 13 6 1 0 0 6 7 9 27 94 141
27 74 156 175 240 254 299 211 195 167 144 132 157 242 178 99 148 173 136 133 105 301 336 175 185 34 52 34 51 39 55 16 10 25 19 0 8 51 48 82 91 94 118
30 76 69 129 109 72 75 96 183 213 225 230 172 169 304 169 119 127 227 250 358 400 275 203 48 14 42 11 8 57 48 34 36 24 1 44 59 45 86 137 132 156 187
102 133 58 68 60 57 97 87 77 212 254 180 126 116 27 19 30 134 147 192 286 189 190 51 20 43 30 20 0 3 50 43 14 3 9 81 48 88 126 158 182 164 169
14 35 58 54 46 59 103 53 72 75 102 70 39 47 28 21 21 68 120 130 102 106 94 35 46 40 17 4 2 19 27 0 0 0 0 0 24 84 84 78 64 91 102

GFSSE_con_mucape_105.txt.gz
CAPE
973 1534 2147 1999 1834 1751 1671 1992 2370 2487 2228 2080 1609 1531 1246 1103 1179 187 209 191 229 213 165 421 377 626 517 592 440 503 511 419 315 179 124 291 197 132 91 179 347 264 438
1294 1395 2156 2141 1854 1638 1654 2061 2401 2308 2355 2072 1992 1702 1500 1307 806 243 346 423 370 336 522 675 652 800 653 638 331 465 393 163 2 7 0 0 52 1 2 49 391 145 284
1117 1239 1232 2148 2219 2266 2173 2113 2235 2283 2305 1887 2051 1807 1483 1419 951 512 262 384 910 1008 922 1073 804 681 559 364 215 194 141 39 0 0 0 0 0 0 0 0 0 0 1
965 1158 1342 2075 2088 2049 2143 2119 2217 2292 2010 2051 2115 1904 1653 1353 1264 932 517 392 1081 930 878 1117 913 587 371 46 141 87 18 0 0 0 0 0 0 0 0 0 1 1 0
867 1311 1108 1760 1819 1857 1916 1992 1997 1982 2067 1792 1844 1874 1676 1416 1225 743 488 611 1164 1015 922 1021 649 458 263 43 7 7 0 0 0 0 0 0 0 0 2 0 0 0 2
689 1238 1512 1551 1622 1547 1348 1850 1670 1758 1682 1638 1533 1506 1443 1272 903 951 1330 1201 1262 871 792 847 363 95 16 0 0 0 0 0 0 0 0 0 5 0 0 0 0 1 4
356 780 1365 1469 1536 1604 1521 1410 1328 1595 1775 1615 1595 1246 1193 1026 1041 1190 1023 1020 1125 758 692 409 320 28 0 0 0 0 0 0 0 0 0 0 0 1 4 3 2 2 4
132 585 888 1161 1339 1479 1512 1454 1491 1587 1403 1368 1398 1216 1190 1231 1170 962 933 873 930 743 523 311 329 127 27 64 58 24 0 0 0 0 1 6 0 1 5 4 2 1 2
30 96 475 1012 874 911 1068 1264 1458 1501 1547 1567 1245 1122 1074 1305 1409 1101 1142 906 967 778 688 486 470 247 127 146 107 184 14 0 0 0 0 7 0 4 4 1 1 3 3
0 0 61 333 894 860 940 934 1005 1100 1098 1139 1008 758 718 569 995 1094 999 797 1006 1008 603 514 522 486 427 309 287 242 7 0 0 0 0 17 15 1 4 1 1 3 3
0 0 3 34 221 733 979 897 553 612 471 171 144 114 319 481 566 597 373 353 640 904 732 537 661 633 359 150 152 145 5 0 0 0 0 14 0 3 6 1 0 1 1
0 0 0 0 33 147 406 677 727 354 300 205 134 140 228 157 196 233 259 194 425 624 582 595 598 535 143 0 10 0 5 0 1 5 0 10 0 3 13 2 1 1 0
0 0 0 0 0 18 317 269 438 444 242 28 47 158 230 331 689 529 454 410 510 243 353 258 151 29 7 0 0 0 0 0 3 10 6 6 0 114 48 0 0 1 1
0 0 0 0 0 4 32 226 264 338 103 40 28 60 205 503 571 372 157 210 691 524 304 248 283 114 51 10 0 0 0 0 0 5 9 0 0 0 185 152 25 0 1
0 0 0 0 0 0 61 43 504 384 223 42 14 10 0 63 290 334 258 404 817 638 720 281 230 159 279 123 16 0 0 0 0 0 0 0 0 0 0 250 228 145 8
0 0 0 0 0 0 53 70 123 317 321 179 114 62 0 0 38 87 102 161 240 435 615 264 255 231 78 110 155 9 2 0 0 0 0 0 0 0 27 14 369 178 178
0 0 0 0 0 0 0 56 119 279 220 283 171 222 101 42 45 51 98 127 123 125 187 559 224 212 328 182 106 151 12 1 0 0 0 0 0 0 0 0 6 204 338
0 0 0 0 0 0 0 16 155 586 470 434 323 330 263 143 64 25 33 72 126 180 227 281 499 517 473 608 258 209 78 6 3 0 0 0 0 0 0 0 5 99 321
0 0 0 0 0 0 0 1 256 423 414 383 477 396 342 234 112 68 40 59 64 169 199 335 454 371 436 431 362 315 112 53 32 11 2 0 0 0 0 0 0 0 41
4 3 0 0 0 0 0 0 12 95 356 455 328 236 169 121 66 68 48 61 86 148 164 221 218 346 315 357 136 159 133 69 67 40 5 0 0 0 0 0 0 0 0
15 9 19 0 0 0 0 0 1 63 182 341 313 237 147 144 127 183 160 101 139 123 115 123 75 193 183 222 123 109 45 39 21 32 26 1 0 1 0 0 6 19 4
7 8 8 86 11 0 0 93 146 310 330 443 417 305 318 275 286 268 282 253 275 213 129 156 187 117 210 159 128 114 47 30 39 3 4 2 14 18 0 0 4 4 15
3 7 16 24 119 144 162 325 494 407 379 385 338 243 369 284 258 203 281 264 320 318 253 284 281 213 127 129 173 96 53 14 15 10 0 0 1 18 6 1 0 7 33
8 19 18 36 30 65 224 157 226 287 456 467 394 335 342 185 117 78 83 108 244 385 369 346 319 283 248 140 172 129 102 37 10 10 12 0 9 4 6 0 2 18 52
2 40 55 46 52 122 69 72 97 194 318 264 164 112 85 76 36 19 20 30 74 207 261 247 260 249 249 180 112 58 51 53 43 20 0 0 9 0 29 14 58 82 99
1 2 42 46 59 42 44 38 37 24 126 125 73 85 102 78 46 5 13 26 66 54 149 252 246 147 149 63 80 77 48 28 37 17 2 42 0 3 4 20 43 97 109

GFSSE_con_mucape_108.txt.gz
CAPE
1117 1334 2369 2098 2030 1909 1797 1949 2276 2543 2459 1948 1236 1195 1267 1162 793 134 180 230 241 189 239 411 435 545 465 357 568 460 510 487 352 261 253 355 269 163 303 313 524 285 468
908 1266 2150 2303 2049 1969 1949 2176 2251 2316 2408 2249 1961 1626 1171 1269 813 154 403 204 299 258 314 706 637 770 696 440 455 495 382 112 4 36 1 2 56 36 67 57 397 198 162
767 1399 1404 2280 2193 2097 2160 2039 2066 2078 2254 2097 1956 1868 1629 1419 843 312 268 381 621 516 767 876 848 858 800 233 493 302 189 42 0 0 0 0 0 0 0 0 0 2 6
839 1174 1324 1894 1900 2032 2176 1840 1849 1944 2056 1872 1886 1845 1561 1375 1170 815 510 309 652 903 830 1118 1038 856 493 49 54 167 44 0 0 0 1 0 0 0 0 0 0 0 0
485 917 1216 1825 1960 1885 1660 2023 2040 1767 1712 1626 1470 1512 1507 1372 1295 1119 640 709 844 865 683 1068 1156 752 599 43 73 47 0 0 0 0 1 0 0 0 0 0 0 1 0
385 759 1213 1424 1516 1597 1705 1641 1953 1959 1713 1559 1388 1632 1661 1554 1162 1111 1103 986 999 918 796 942 599 420 334 59 1 0 0 0 0 0 0 3 0 0 3 3 0 0 2
206 645 1034 1312 1311 1578 1444 1384 1320 1517 1837 1775 1554 1504 1428 1470 1290 1039 1056 1029 1205 1060 959 690 347 120 10 0 0 0 0 0 0 0 0 0 0 0 1 1 1 3 5
26 487 851 931 1071 1289 1330 1210 1227 1253 1348 1556 1481 1495 1393 1485 1410 1192 1120 936 1172 962 891 706 420 111 0 0 0 0 0 0 0 0 0 0 14 0 4 3 0 1 3
0 14 424 582 773 848 1014 1158 1268 1436 1488 1497 1202 1302 1215 1345 1324 1318 1248 1127 1193 1160 872 653 825 349 102 103 298 153 0 0 0 0 0 0 56 0 3 1 1 1 3
0 0 0 147 516 647 672 791 943 1068 1056 1075 1031 880 680 653 805 1225 1046 967 1070 1197 977 797 745 685 464 426 355 234 0 0 0 0 0 4 147 0 1 0 1 2 3
0 0 0 0 25 333 633 699 568 628 672 583 517 445 411 396 426 574 568 468 682 967 1036 717 704 633 414 239 208 62 0 0 0 0 0 40 57 0 1 0 0 2 4
0 0 0 0 0 4 93 329 469 496 234 164 24 20 20 29 33 346 507 385 389 548 783 789 687 517 243 32 18 1 2 0 0 0 0 109 133 0 1 2 0 1 2
0 0 0 0 0 0 11 30 177 584 253 213 128 79 103 119 181 169 235 302 186 299 254 395 291 105 196 29 0 0 0 0 0 0 0 88 147 0 1 4 0 0 1
0 0 0 0 0 0 0 0 34 127 222 192 60 57 112 249 414 340 178 290 250 279 165 199 125 53 6 0 0 0 0 0 0 0 0 4 133 6 0 100 18 1 3
0 0 0 0 0 0 0 8 4 27 254 203 95 40 36 101 164 201 166 148 188 276 258 171 107 81 50 33 4 0 0 0 0 0 0 0 18 93 87 162 413 167 17
0 0 0 0 0 0 0 9 10 22 57 182 125 45 46 33 63 107 106 67 106 168 272 225 164 149 145 124 96 59 14 0 0 0 0 0 0 31 116 43 204 453 312
0 0 0 0 0 0 0 0 34 32 45 217 162 105 82 68 53 44 82 70 63 61 40 73 187 159 149 155 125 119 97 69 20 0 0 0 0 4 36 100 86 199 480
0 0 0 0 0 0 0 0 14 31 64 196 278 189 206 140 114 83 54 53 86 81 72 98 162 139 197 179 157 135 124 106 48 22 19 1 0 0 0 52 129 213 280
0 0 0 0 0 0 0 0 0 56 173 209 361 232 278 320 281 141 105 109 66 35 54 96 181 216 257 207 216 196 113 103 78 47 48 40 0 0 0 0 2 49 124
0 0 0 0 0 0 0 0 0 43 124 173 203 273 283 259 250 235 104 88 73 60 59 104 171 197 234 258 209 227 222 151 107 65 53 56 38 21 2 0 0 0 11
0 0 5 1 0 5 0 0 0 0 7 164 192 236 124 173 163 128 101 110 104 100 103 89 85 142 136 174 317 132 103 167 112 70 53 27 74 60 7 15 0 0 0
0 0 0 1 1 3 12 8 0 47 93 123 204 215 219 233 245 226 174 142 138 123 101 94 104 89 85 193 224 143 51 35 74 52 46 41 38 20 47 6 1 0 0
0 0 0 0 1 1 0 43 95 162 218 253 269 270 170 173 161 133 128 89 112 126 91 115 172 179 124 117 213 132 69 13 11 2 0 0 0 15 23 50 24 1 0
0 0 0 8 5 10 25 26 103 257 180 152 197 127 177 171 121 146 78 62 58 42 48 97 147 151 164 66 124 150 130 85 52 17 16 0 0 7 15 10 15 4 1
0 0 0 10 22 39 46 65 160 81 177 159 112 103 107 102 47 52 14 22 17 14 0 6 6 80 84 98 74 130 161 157 123 68 18 5 15 1 3 1 0 10 20
0 0 0 2 22 4 17 12 28 43 44 45 33 53 5 15 18 23 54 35 7 0 4 1 1 14 84 134 130 139 148 79 144 116 58 45 17 15 14 8 0 4 19

GFSSE_con_mucape_111.txt.gz
CAPE
841 1101 1912 2270 2178 2041 1879 1972 2320 2198 2279 1757 1200 1181 1317 1047 383 162 252 327 215 185 439 464 537 394 280 607 422 354 650 517 487 417 337 380 360 374 447 448 361 252 289
964 1245 1563 2330 2138 1983 2012 2120 2013 2264 2073 2008 1610 1246 1125 1386 340 264 237 228 276 262 425 614 812 847 482 367 562 508 344 97 65 111 84 30 106 229 179 179 340 136 50
671 1165 1440 1914 2000 2274 2130 1815 1833 2157 1922 1925 1686 1650 1395 1381 693 279 448 353 397 414 601 788 805 953 474 178 503 236 141 9 0 5 0 0 0 0 0 0 20 24 11
475 911 1184 1583 1778 1972 2133 1656 1580 1831 2048 1741 1628 1612 1533 1423 1035 635 390 315 490 852 837 997 1033 828 320 211 4 131 64 0 0 0 0 0 0 0 0 0 0 0 0
587 602 1128 1559 1557 1431 1837 2029 1846 1856 1737 1633 1772 1831 1751 1450 1362 1187 866 634 554 791 941 1088 1015 860 219 49 107 60 9 0 0 0 0 0 0 0 0 0 1 2 0
270 928 1079 1437 1232 1229 1239 1359 1786 1939 1819 1617 1558 1591 1661 1363 1020 1195 1164 834 673 830 896 939 823 511 466 80 41 21 0 0 0 0 0 0 0 0 2 3 0 0 1
64 518 929 1268 1186 1110 1258 1325 1419 1455 1414 1563 1599 1546 1520 1265 1256 1410 1388 1132 1134 1171 1000 742 707 429 250 107 0 0 0 0 0 0 0 0 0 0 0 0 0 2 3
0 172 690 749 786 1091 963 1021 1116 1131 1275 1498 1516 1521 1605 1378 1340 1240 1272 1150 1277 1098 947 836 517 279 89 2 0 0 0 0 0 0 0 0 4 0 0 1 0 1 2
0 0 38 402 535 534 666 826 1010 930 1152 1401 1074 1177 1211 1227 1377 1423 1317 1221 1268 1328 1336 1177 934 310 66 5 126 184 4 0 0 0 0 0 143 0 0 1 1 1 3
0 0 0 0 263 709 424 540 644 839 843 840 770 714 711 604 733 1267 1035 1016 1233 1366 1297 1078 1129 865 402 255 403 194 5 0 0 0 0 0 259 6 0 1 1 2 4
0 0 0 0 0 0 247 621 471 478 488 529 528 565 532 409 355 446 647 632 806 1028 1209 1067 946 921 518 226 299 97 9 0 0 0 0 0 168 0 0 0 2 7 7
0 0 0 0 0 0 0 33 212 552 423 170 133 94 30 32 113 278 329 376 378 625 796 1058 907 666 299 56 43 10 0 0 0 0 0 15 237 12 0 0 1 4 9
0 0 0 0 0 0 0 0 0 127 292 297 231 150 96 77 72 46 47 253 382 316 253 583 532 196 135 63 7 0 0 0 0 0 0 11 526 108 0 0 1 2 5
0 0 0 0 0 0 0 0 0 0 62 261 200 224 86 129 143 240 215 209 262 331 259 207 235 171 87 90 27 0 0 0 0 0 0 0 381 424 60 48 44 1 3
0 0 0 0 0 0 0 0 0 0 3 77 295 155 65 41 94 164 178 212 300 278 274 222 142 114 96 63 34 8 0 0 0 0 0 0 53 428 543 412 170 167 34
0 0 0 0 0 0 0 0 0 0 0 11 162 165 127 23 41 52 59 69 229 200 282 272 254 199 152 133 91 78 23 0 0 0 0 0 0 121 410 586 600 626 384
0 0 0 0 0 0 0 0 0 0 12 0 8 112 118 51 51 62 62 64 84 76 190 91 143 199 195 215 178 157 115 86 42 53 7 0 0 0 79 514 628 805 1027
0 0 0 0 0 0 0 0 0 0 0 6 0 66 71 106 112 76 72 106 99 77 51 37 64 127 138 158 184 173 168 146 114 49 28 44 1 12 13 96 240 445 761
0 0 0 0 0 0 0 0 0 0 0 19 41 108 131 102 134 168 136 142 161 106 82 74 87 120 145 162 177 162 144 150 123 118 64 40 22 18 22 20 24 102 188
0 0 0 0 0 0 0 0 0 0 0 39 148 187 197 179 150 162 195 174 121 107 85 68 92 130 138 139 120 118 122 143 154 112 90 71 24 33 41 22 5 19 40
0 0 0 0 0 0 0 0 0 0 0 0 139 157 233 220 193 117 183 120 85 89 91 96 97 87 112 188 161 92 74 75 79 99 113 103 77 42 35 37 19 28 43
0 0 0 0 0 0 0 0 5 2 2 30 114 127 78 146 141 149 111 145 141 128 142 123 92 77 82 80 116 138 31 2 4 8 91 78 57 59 27 27 37 40 28
0 0 0 0 0 0 0 3 0 17 16 30 38 72 82 122 114 76 57 57 53 72 55 43 39 63 63 54 101 174 64 7 4 16 38 75 67 48 49 76 60 12 0
0 0 0 0 0 1 1 2 1 2 0 49 150 97 148 126 126 58 43 43 9 6 11 10 5 7 12 12 69 49 85 72 33 23 12 21 49 46 17 9 2 0 3
0 0 0 0 0 8 0 3 0 5 28 86 116 112 42 97 95 47 5 1 0 1 3 1 4 0 0 0 25 58 40 65 74 93 25 15 21 18 34 27 28 27 33
0 0 0 0 0 3 1 1 0 0 8 24 8 16 8 24 41 1 42 40 7 3 3 2 1 0 0 1 10 14 55 66 33 102 90 34 19 13 11 4 4 10 47

GFSSE_con_mucape_114.txt.gz
CAPE
611 1081 1414 1937 2074 2059 1845 1904 1883 1772 1692 1644 1458 1338 1271 789 306 369 458 280 222 262 498 415 195 111 405 510 404 498 629 597 594 415 336 484 480 451 481 385 367 182 202
553 1173 1165 1628 1677 1730 1915 2000 2037 2072 1953 1766 1212 1196 1205 980 251 309 249 253 298 375 582 773 753 591 560 607 578 514 121 92 121 73 56 32 247 337 246 405 335 82 47
384 897 1375 1550 1494 1543 1610 1616 1884 2040 1767 1840 1588 1458 1246 1257 408 507 341 376 412 391 547 833 850 808 353 719 526 311 53 0 0 0 0 0 0 5 36 38 73 79 6
249 641 1117 1524 1391 1720 1670 1472 1496 2002 1903 1781 1736 1466 1404 1331 887 511 448 404 621 888 874 936 1045 650 237 103 192 233 72 0 0 0 0 0 0 0 0 0 0 1 1
252 630 1083 1425 1285 1431 1643 1614 1547 1770 1822 1796 1771 1803 1624 1395 1348 1044 830 593 541 803 913 1090 1041 819 397 223 3 125 27 0 0 0 0 0 0 0 0 0 0 0 0
145 817 950 1303 1285 1009 1225 1271 1625 1791 1816 1700 1586 1815 1725 1433 1317 1243 1245 1077 653 842 1051 1171 1063 548 450 228 209 143 19 0 0 0 0 0 0 0 0 0 0 0 0
16 458 771 814 899 1180 1006 1024 1219 1337 1500 1691 1646 1466 1357 1235 1320 1335 1259 1112 1003 1125 953 943 943 551 197 148 133 60 0 0 0 0 0 0 0 0 0 0 0 1 1
0 33 187 524 591 802 952 912 966 1034 1277 1339 1288 1227 1512 1410 1449 1428 1407 1389 1272 1050 1076 1027 997 693 361 215 79 15 0 0 0 0 0 0 5 0 0 1 0 1 1
0 0 0 124 278 362 482 568 820 1011 955 894 989 993 986 1151 1253 1221 1310 1335 1347 1318 1393 1366 1207 775 335 100 65 53 3 0 0 0 0 0 39 0 0 0 0 2 3
0 0 0 0 0 285 579 364 425 673 826 853 784 615 525 609 620 1052 971 1096 1362 1389 1338 1321 1280 1038 589 250 139 175 0 0 0 0 0 0 3 92 1 0 0 2 4
0 0 0 0 0 0 0 15 297 421 407 377 421 427 443 409 329 292 438 641 735 1160 1306 1276 1090 1001 644 206 207 177 0 0 0 0 0 0 4 192 68 0 0 3 7
0 0 0 0 0 0 0 0 13 91 424 376 184 209 231 228 186 185 219 265 370 660 814 1190 1156 792 580 174 59 95 29 1 0 0 0 0 0 243 153 54 0 1 5
0 0 0 0 0 0 0 0 0 0 51 169 386 229 103 36 12 35 37 55 148 287 334 466 691 601 315 150 56 38 39 21 0 0 0 0 0 238 167 163 0 1 4
0 0 0 0 0 0 0 0 0 0 0 35 184 183 246 223 123 124 179 175 163 145 299 285 292 355 345 138 79 23 17 25 9 0 0 0 3 127 566 274 148 49 4
0 0 0 0 0 0 0 0 0 0 0 0 4 44 194 169 110 104 174 246 270 296 303 437 304 221 216 175 132 88 41 12 8 1 0 0 0 234 825 913 354 193 107
0 0 0 0 0 0 0 0 0 0 0 0 0 2 32 144 174 30 68 162 213 334 360 343 367 214 257 190 167 130 76 64 41 23 2 0 0 44 425 779 899 626 282
0 0 0 0 0 0 0 0 0 0 0 0 0 0 10 51 124 94 36 36 38 90 291 283 284 185 201 169 161 188 119 114 139 93 72 33 25 0 104 476 657 578 825
0 0 0 0 0 0 0 0 0 0 0 0 0 0 0 24 144 103 105 46 55 79 76 98 132 128 140 155 137 159 178 185 143 124 108 86 62 39 8 119 298 650 653
0 0 0 0 0 0 0 0 0 0 0 0 0 0 0 16 93 97 99 143 105 110 73 55 45 45 62 73 83 78 68 66 70 82 91 102 91 45 14 55 15 127 245
0 0 0 0 0 0 0 0 0 0 0 0 0 0 20 82 150 130 145 152 164 125 94 63 69 59 77 90 79 66 54 36 29 29 34 60 61 99 75 42 22 12 71
0 0 0 0 0 0 0 0 0 0 0 0 16 1 6 7 5 64 90 115 129 211 78 81 66 75 89 79 56 50 39 34 40 28 41 52 45 31 119 93 47 2 8
0 0 0 0 0 0 0 0 0 0 0 3 11 1 0 1 23 59 104 137 112 109 114 121 84 66 61 62 71 59 3 0 0 16 33 42 38 22 0 63 106 79 58
0 0 0 0 0 0 0 0 0 0 4 0 0 1 0 0 127 82 38 143 62 42 42 35 12 1 0 0 11 83 16 1 0 0 1 8 14 52 50 50 44 44 56
0 0 0 0 0 0 0 0 0 0 0 2 13 39 14 37 64 128 165 62 2 3 0 33 0 2 2 0 0 11 28 47 22 9 0 2 23 36 69 66 45 40 36
0 0 0 0 0 0 0 0 0 9 19 29 19 22 45 14 25 12 46 29 2 0 0 0 0 14 0 0 0 0 0 0 18 49 24 3 10 24 40 58 56 41 54
0 0 0 0 0 0 0 1 1 0 2 13 22 17 13 4 12 2 3 0 0 0 0 0 0 0 0 0 0 0 0 1 0 14 3 10 15 4 20 26 17 28 39

GFSSE_con_mucape_117.txt.gz
CAPE
394 1064 1486 1509 1393 1581 1758 1604 1700 1563 1561 1564 1392 1370 1099 540 363 499 301 184 232 337 355 253 76 89 294 411 504 534 464 571 644 530 488 594 503 471 479 411 351 138 154
327 935 1639 1454 1316 1354 1412 1442 1496 1500 1753 1488 1410 1413 1201 436 263 264 329 265 304 538 644 558 400 224 554 594 485 351 306 291 112 21 54 149 377 367 436 324 286 66 26
179 574 1130 1356 1354 1398 1372 1408 1619 1747 1652 1561 1547 1464 1209 804 386 401 235 333 404 425 628 797 792 340 608 674 611 184 0 1 9 0 0 0 0 115 99 134 145 9 3
174 536 1040 1507 1258 1301 1327 1394 1457 1777 1672 1504 1498 1384 1435 1267 743 564 449 427 668 879 972 898 974 623 521 553 416 269 3 0 0 0 0 0 0 0 0 0 0 1 2
161 363 921 1273 1080 1020 1319 1356 1305 1351 1634 1520 1627 1707 1453 1363 1262 967 729 520 589 843 777 934 1023 811 499 314 110 290 67 0 0 0 0 0 0 0 0 0 0 0 0
156 617 713 779 939 847 1122 1055 1252 1486 1522 1550 1439 1449 1493 1367 1384 1331 1146 1184 738 895 843 1129 1068 865 649 372 63 218 83 0 0 0 0 0 0 0 0 0 0 0 0
26 158 431 612 641 1077 902 739 922 1192 1347 1570 1434 1277 1373 1354 1318 1135 1202 1228 1034 823 934 1034 864 701 388 233 229 197 114 0 0 0 0 0 0 0 0 0 0 2 2
0 0 0 41 458 472 503 952 885 843 1234 1319 1375 1347 1395 1339 1371 1269 1236 1161 1223 961 983 1051 1099 881 543 245 247 200 114 0 0 0 0 0 0 26 0 0 0 0 2
0 0 0 0 49 141 256 260 513 716 1023 1005 1057 1087 1151 1070 1268 1135 1346 1357 1294 1224 1222 1302 1373 1013 856 539 464 308 18 0 0 0 0 0 0 149 14 0 1 1 2
0 0 0 0 0 0 1 86 200 305 515 816 784 625 443 429 588 934 990 966 1393 1391 1368 1292 1429 1248 886 702 480 174 2 0 0 0 0 0 0 167 123 9 0 1 2
0 0 0 0 0 0 0 0 2 76 343 394 282 282 311 287 272 252 230 355 596 1020 1265 1337 1290 1136 630 338 220 108 19 0 0 0 0 0 0 106 247 92 1 1 5
0 0 0 0 0 0 0 0 0 0 4 217 351 260 107 115 187 191 154 166 193 500 721 1156 1294 985 645 306 101 68 64 21 0 0 0 0 0 10 288 355 56 1 4
0 0 0 0 0 0 0 0 0 0 0 11 41 113 229 208 116 25 0 0 6 65 171 320 557 745 605 408 248 77 66 54 11 0 0 0 0 0 125 687 273 69 3
0 0 0 0 0 0 0 0 0 0 0 0 0 2 11 140 202 200 121 116 143 95 85 134 257 336 434 422 295 153 79 46 39 20 0 0 0 1 84 591 841 270 103
0 0 0 0 0 0 0 0 0 0 0 0 0 0 13 5 80 157 139 91 181 233 211 270 263 279 274 241 253 210 158 105 53 30 24 7 0 3 33 189 788 404 314
0 0 0 0 0 0 0 0 0 0 0 0 0 0 0 0 4 15 90 131 71 124 290 310 337 377 288 211 254 251 228 177 114 79 57 41 1 0 68 105 400 777 413
0 0 0 0 0 0 0 0 0 0 0 0 0 0 0 0 0 4 14 58 48 76 75 269 319 395 335 243 240 232 164 144 135 109 108 124 96 19 16 60 393 724 913
0 0 0 0 0 0 0 0 0 0 0 0 0 0 0 0 0 14 3 23 89 66 41 58 174 191 152 124 154 157 132 135 166 168 151 129 110 75 64 52 179 475 636
0 0 0 0 0 0 0 0 0 0 0 0 0 0 0 0 0 41 60 38 68 98 82 112 110 107 83 91 142 126 83 57 53 41 61 61 54 41 49 53 61 87 268
0 0 0 0 0 0 0 0 0 0 0 0 3 6 1 2 1 1 7 46 83 69 114 132 82 75 51 93 79 70 69 67 49 28 32 37 35 19 2 1 32 78 33
0 0 0 0 0 0 0 0 0 0 0 8 19 5 0 0 0 0 18 145 101 118 99 161 106 112 100 97 69 29 8 9 5 5 16 9 0 9 1 0 0 2 59
0 0 0 0 0 0 0 0 0 2 6 7 2 3 2 0 0 2 1 68 177 173 118 133 96 87 54 68 20 1 0 0 0 1 4 3 0 0 0 0 0 0 0
0 0 0 0 0 0 0 0 0 0 0 0 0 0 3 3 4 14 42 122 39 110 77 118 14 7 7 6 6 0 0 0 0 0 0 0 5 3 0 0 0 0 0
0 0 0 0 0 0 0 0 0 0 0 0 0 1 13 12 5 9 6 15 31 29 9 13 5 0 0 0 0 0 0 0 0 0 0 0 3 5 5 20 32 18 12
0 0 0 0 0 0 0 0 0 0 0 1 6 9 13 3 8 9 1 12 10 24 95 20 5 0 0 0 0 0 0 0 0 0 0 0 0 1 8 31 59 50 41
0 0 0 0 0 0 0 0 0 0 0 0 2 4 6 6 11 7 13 6 7 13 11 0 0 0 0 0 0 0 0 0 0 0 0 0 0 0 0 0 28 53 63